[[{"header":{"parameterUnit":"m.s-1","parameterCategory":1,"la1":31.0,"la2":29.5877,"lo1":-88.7671,"lo2":-86.6584,"dy":0.0162,"dx":0.0185,"nx":115,"ny":88,"refTime":"2024-07-20T18:00:00:Z","depth":0,"parameterNumber":2,"parameterNumberName":"U-component_of_WINDS"},"data":[0.0,0.0,0.0,0.0,0.0,0.0,0.0,0.0,0.0,0.0,0.0,0.0,0.0,0.0,0.0,0.0,0.0,0.0,0.0,0.0,0.0,0.0,0.0,0.0,0.0,0.0,0.0,0.0,0.0,0.0,0.0,0.0,0.0,0.0,0.0,0.0,0.0,0.0,0.0,0.0,0.0,0.0,0.0,0.0,0.0,0.0,0.0,0.0,0.0,0.0,0.0,0.0,0.0,0.0,0.0,0.0,0.0,0.0,0.0,0.0,0.0,0.0,0.0,0.0,0.0,0.0,0.0,0.0,0.0,0.0,0.0,0.0,0.0,0.0,0.0,0.0,0.0,0.0,0.0,0.0,0.0,0.0,0.0,0.0,0.0,0.0,0.0,0.0,0.0,0.0,0.0,0.0,0.0,0.0,0.0,0.0,0.0,0.0,0.0,0.0,0.0,0.0,0.0,0.0,0.0,0.0,0.0,0.0,0.0,0.0,0.0,0.0,0.0,0.0,0.0,0.0,0.0,0.0,0.0,0.0,0.0,0.0,0.0,0.0,0.0,0.0,0.0,0.0,0.0,0.0,0.0,0.0,0.0,0.0,0.0,0.0,0.0,0.0,0.0,0.0,0.0,0.0,0.0,0.0,0.0,0.0,0.0,0.0,0.0,0.0,0.0,0.0,0.0,0.0,0.0,0.0,0.0,0.0,0.0,0.0,0.0,0.0,0.0,0.0,0.0,0.0,0.0,0.0,0.0,0.0,0.0,0.0,0.0,0.0,0.0,0.0,0.0,0.0,0.0,0.0,0.0,0.0,0.0,0.0,0.0,0.0,0.0,0.0,0.0,0.0,0.0,0.0,0.0,0.0,0.0,0.0,0.0,0.0,0.0,0.0,0.0,0.0,0.0,0.0,0.0,0.0,0.0,0.0,0.0,0.0,0.0,0.0,0.0,0.0,0.0,0.0,0.0,0.0,0.0,0.0,0.0,0.0,0.0,0.0,0.0,0.0,0.0,0.0,0.0,0.0,0.0,0.0,0.0,0.0,0.0,0.0,0.0,0.0,0.0,0.0,0.0,0.0,0.0,0.0,0.0,0.0,0.0,0.0,0.0,0.0,0.0,0.0,0.0,0.0,0.0,0.0,0.0,0.0,0.0,0.0,0.0,0.0,0.0,0.0,0.0,0.0,0.0,0.0,0.0,0.0,0.0,0.0,0.0,0.0,0.0,0.0,0.0,0.0,0.0,0.0,0.0,0.0,0.0,0.0,0.0,0.0,0.0,0.0,0.0,0.0,0.0,0.0,0.0,0.0,0.0,0.0,0.0,0.0,0.0,0.0,0.0,0.0,0.0,0.0,0.0,0.0,0.0,0.0,0.0,0.0,0.0,0.0,0.0,0.0,0.0,0.0,0.0,0.0,0.0,0.0,0.0,0.0,0.0,0.0,0.0,0.0,0.0,0.0,0.0,0.0,0.0,0.0,0.0,0.0,0.0,0.0,0.0,0.0,0.0,0.0,0.0,0.0,0.0,0.0,0.0,0.0,0.0,0.0,0.0,0.0,0.0,0.0,0.0,0.0,0.0,0.0,0.0,0.0,0.0,0.0,0.0,0.0,0.0,0.0,0.0,0.0,0.0,0.0,0.0,0.0,0.0,0.0,0.0,0.0,0.0,0.0,0.0,0.0,0.0,0.0,0.0,0.0,0.0,0.0,0.0,0.0,0.0,0.0,0.0,0.0,0.0,0.0,0.0,0.0,0.0,0.0,0.0,0.0,0.0,0.0,0.0,0.0,0.0,0.0,0.0,0.0,0.0,0.0,0.0,0.0,0.0,0.0,0.0,0.0,0.0,0.0,0.0,0.0,0.0,0.0,0.0,0.0,0.0,0.0,0.0,0.0,0.0,0.0,0.0,0.0,0.0,0.0,0.0,0.0,0.0,0.0,0.0,0.0,0.0,0.0,0.0,0.0,0.0,0.0,0.0,0.0,0.0,0.0,0.0,0.0,0.0,0.0,0.0,0.0,0.0,0.0,0.0,0.0,0.0,0.0,0.0,0.0,0.0,0.0,0.0,0.0,0.0,0.0,0.0,0.0,0.0,0.0,0.0,0.0,0.0,0.0,0.0,0.0,0.0,0.0,0.0,0.0,0.0,0.0,0.0,0.0,0.0,0.0,0.0,0.0,0.0,0.0,0.0,0.0,0.0,0.0,0.0,0.0,0.0,0.0,0.0,0.0,0.0,0.0,0.0,0.0,0.0,0.0,0.0,0.0,0.0,0.0,0.0,0.0,0.0,0.0,0.0,0.0,0.0,0.0,0.0,0.0,0.0,0.0,0.0,0.0,0.0,0.0,0.0,0.0,0.0,0.0,0.0,0.0,0.0,0.0,0.0,0.0,0.0,0.0,0.0,0.0,0.0,0.0,0.0,0.0,0.0,0.0,0.0,0.0,0.0,0.0,0.0,0.0,0.0,0.0,0.0,0.0,0.0,0.0,0.0,0.0,0.0,0.0,0.0,0.0,0.0,0.0,0.0,0.0,0.0,0.0,0.0,0.0,0.0,0.0,0.0,0.0,0.0,0.0,0.0,0.0,0.0,0.0,0.0,0.0,0.0,0.0,0.0,0.0,0.0,0.0,0.0,0.0,0.0,0.0,0.0,0.0,0.0,0.0,0.0,0.0,0.0,0.0,0.0,0.0,0.0,0.0,0.0,0.0,0.0,0.0,0.0,0.0,0.0,0.0,0.0,0.0,0.0,0.0,0.0,0.0,0.0,0.0,0.0,0.0,0.0,0.0,0.0,0.0,0.0,0.0,0.0,0.0,0.0,0.0,0.0,0.0,0.0,0.0,0.0,0.0,0.0,0.0,0.0,0.0,0.0,0.0,0.0,0.0,0.0,0.0,0.0,0.0,0.0,0.0,0.0,0.0,0.0,0.0,0.0,0.0,0.0,0.0,0.0,0.0,0.0,0.0,0.0,0.0,0.0,0.0,0.0,0.0,0.0,0.0,0.0,0.0,0.0,0.0,0.0,0.0,0.0,0.0,0.0,0.0,0.0,0.0,0.0,0.0,0.0,0.0,0.0,0.0,0.0,0.0,0.0,0.0,0.0,0.0,0.0,0.0,0.0,0.0,0.0,0.0,0.0,0.0,0.0,0.0,0.0,0.0,0.0,0.0,0.0,0.0,0.0,0.0,0.0,0.0,0.0,0.0,0.0,0.0,0.0,0.0,0.0,0.0,0.0,0.0,0.0,0.0,0.0,0.0,0.0,0.0,0.0,0.0,0.0,0.0,0.0,0.0,0.0,0.0,0.0,0.0,0.0,0.0,0.0,0.0,0.0,0.0,0.0,0.0,0.0,0.0,0.0,0.0,0.0,0.0,0.0,0.0,0.0,0.0,0.0,0.0,0.0,0.0,0.0,0.0,0.0,0.0,0.0,0.0,0.0,0.0,0.0,0.0,0.0,0.0,0.0,0.0,0.0,0.0,0.0,0.0,0.0,0.0,0.0,0.0,0.0,0.0,0.0,0.0,0.0,0.0,0.0,0.0,0.0,0.0,0.0,0.0,0.0,0.0,0.0,0.0,0.0,0.0,0.0,0.0,0.0,0.0,0.0,0.0,0.0,0.0,0.0,0.0,0.0,0.0,0.0,0.0,0.0,0.0,0.0,0.0,0.0,0.0,0.0,0.0,0.0,0.0,0.0,0.0,0.0,0.0,0.0,0.0,0.0,0.0,0.0,0.0,0.0,0.0,0.0,0.0,0.0,0.0,0.0,0.0,0.0,0.0,0.0,0.0,0.0,0.0,0.0,0.0,0.0,0.0,0.0,0.0,0.0,0.0,0.0,0.0,0.0,0.0,0.0,0.0,0.0,0.0,0.0,0.0,0.0,0.0,0.0,0.0,0.0,0.0,0.0,0.0,0.0,0.0,0.0,0.0,0.0,0.0,0.0,0.0,0.0,0.0,0.0,0.0,0.0,0.0,0.0,0.0,0.0,0.0,0.0,0.0,0.0,0.0,0.0,0.0,0.0,0.0,0.0,0.0,0.0,0.0,0.0,0.0,0.0,0.0,0.0,0.0,0.0,0.0,0.0,0.0,0.0,0.0,0.0,0.0,0.0,0.0,0.0,0.0,0.0,0.0,0.0,0.0,0.0,0.0,0.0,0.0,0.0,0.0,0.0,0.0,0.0,0.0,0.0,0.0,0.0,0.0,0.0,0.0,0.0,0.0,0.0,0.0,0.0,0.0,0.0,0.0,0.0,0.0,0.0,0.0,0.0,0.0,0.0,0.0,0.7282,0.0,0.0,0.0,0.0,0.0,0.0,0.0,0.0,0.0,0.0,0.0,0.0,0.0,0.0,0.0,0.0,0.0,0.0,0.0,0.0,0.0,0.0,0.0,0.0,0.0,0.0,0.0,0.0,0.0,0.0,0.0,0.0,0.0,0.0,0.0,0.0,0.0,0.0,0.0,0.0,0.0,0.0,0.0,0.0,0.0,0.0,0.0,0.0,0.0,0.0,0.0,0.0,0.0,0.0,0.0,0.0,0.0,0.0,0.0,0.0,0.0,0.0,0.0,0.0,0.0,0.0,0.0,0.0,0.0,0.0,0.0,0.0,0.0,0.0,0.0,0.0,0.0,0.0,0.0,0.0,0.0,0.0,0.0,0.0,0.0,0.0,0.0,0.0,0.0,0.0,0.0,0.0,0.0,0.0,0.0,0.0,0.0,0.0,0.0,0.0,0.0,0.0,0.0,0.0,0.0,0.0,0.0,0.0,0.0,0.0,0.8205,0.8128,0.7927,0.7695,0.7376,0.0,0.0,0.0,0.0,0.0,0.0,0.0,0.0,0.0,0.0,0.0,0.0,0.0,0.0,0.0,0.0,0.0,0.0,0.0,0.0,0.0,0.0,0.0,0.0,0.0,0.0,0.0,0.0,0.0,0.0,0.0,0.0,0.0,0.0,0.0,0.0,0.0,0.0,0.0,0.0,0.0,0.0,0.0,0.0,0.0,0.0,0.0,0.0,0.0,0.0,0.0,0.0,0.0,0.0,0.0,0.0,0.0,0.0,0.0,0.0,0.0,0.0,0.0,0.0,0.0,0.0,0.0,0.0,0.0,0.0,0.0,0.0,0.0,0.0,0.0,0.0,0.0,0.0,0.0,0.0,0.0,0.0,0.0,0.0,0.0,0.0,0.0,0.0,0.0,0.0,0.0,0.0,0.0,0.0,0.0,0.0,0.0,0.0,0.0,0.0,0.0,0.0,0.0,0.0,0.0,0.0,0.0,0.0,0.0,0.0,0.0,0.0,0.8211,0.7945,0.7666,0.0,0.0,0.0,0.0,0.0,0.0,0.0,0.0,0.0,0.0,0.0,0.0,0.0,0.0,0.0,0.0,0.0,0.0,0.0,0.0,0.0,0.0,0.0,0.0,0.0,0.0,0.0,0.0,0.0,0.0,0.0,0.0,0.0,0.0,0.0,0.0,0.0,0.0,0.0,0.0,0.0,0.0,0.0,0.0,0.0,0.0,0.0,0.0,0.0,0.0,0.0,0.0,0.0,0.0,0.0,0.0,0.0,0.0,0.0,0.0,0.0,0.0,0.0,0.0,0.0,0.0,0.0,0.0,0.0,0.0,0.0,0.0,0.0,0.0,0.0,0.0,0.0,0.0,0.0,0.0,0.0,0.0,0.0,0.0,0.0,0.0,0.0,0.0,0.0,0.0,0.0,0.0,0.0,0.0,0.0,0.0,0.0,0.0,0.0,0.0,0.0,0.0,0.0,0.0,0.0,0.0,0.0,0.0,0.0,0.0,0.873,0.9259,0.9246,0.0,0.8508,0.0,0.0,0.0,0.0,0.0,0.0,0.0,0.0,0.0,0.0,0.0,0.0,0.0,0.0,0.0,0.0,0.0,0.0,0.0,0.0,0.0,0.0,0.0,0.0,0.0,0.0,0.0,0.0,0.0,0.0,0.0,0.0,0.0,0.0,0.0,0.0,0.0,0.0,0.0,0.0,0.0,0.0,0.0,0.0,0.0,0.0,0.0,0.0,0.0,0.0,0.0,0.0,0.0,0.0,0.0,0.0,0.0,0.0,0.0,0.0,0.0,0.0,0.0,0.0,0.0,0.0,0.0,0.0,0.0,0.0,0.0,0.0,0.0,0.0,0.0,0.0,0.0,0.0,0.0,0.0,0.0,0.0,0.0,0.0,0.0,0.0,0.0,0.0,0.0,0.0,0.0,0.0,0.0,0.0,0.0,0.0,0.0,0.0,0.0,0.0,0.0,0.0,0.0,0.0,0.0,0.0,0.0,0.0,0.0,0.0,0.0,0.9401,0.9173,0.8875,0.0,0.0,0.0,0.0,0.0,0.0,0.0,0.0,0.0,0.0,0.0,0.0,0.0,0.0,0.0,0.0,0.0,0.0,0.0,0.0,0.0,0.0,0.0,0.0,0.0,0.0,0.0,0.0,0.0,0.0,0.0,0.0,0.0,0.0,0.0,0.0,0.0,0.0,0.0,0.0,0.0,0.0,0.0,0.0,0.0,0.0,0.0,0.0,0.0,0.0,0.0,0.0,0.0,0.0,0.0,0.0,0.0,0.0,0.0,0.0,0.0,0.0,0.0,0.0,0.0,0.0,0.0,0.0,0.0,0.0,0.0,0.0,0.0,0.0,0.0,0.0,0.0,0.0,0.0,0.0,0.0,0.0,0.0,0.0,0.0,0.0,0.0,0.0,0.0,0.0,0.0,0.0,0.0,0.0,0.0,0.0,0.0,0.0,0.0,0.0,0.0,0.0,0.0,0.0,0.0,0.0,0.0,0.0,0.0,0.0,0.9463,0.0,0.9714,0.9341,0.8972,0.866,0.0,0.0,0.0,0.0,0.0,0.0,0.0,0.0,0.0,0.0,0.0,0.0,0.0,0.0,0.0,0.0,0.0,0.0,0.0,0.0,0.0,0.0,0.0,0.0,0.0,0.0,0.0,0.0,0.0,0.0,0.0,0.0,0.0,0.0,0.0,0.0,0.0,0.0,0.0,0.0,0.0,0.0,0.0,0.0,0.0,0.0,0.0,0.0,0.0,0.0,0.0,0.0,0.0,0.0,0.0,0.0,0.0,0.0,0.0,0.0,0.0,0.0,0.0,0.0,0.0,0.0,0.0,0.0,0.0,0.0,0.0,0.0,0.0,0.0,0.0,0.0,0.0,0.0,0.0,0.0,0.0,0.0,0.0,0.0,0.0,0.0,0.0,0.0,0.0,0.0,0.0,0.0,0.0,0.0,0.0,0.0,0.0,0.0,0.0,0.0,0.0,0.0,0.0,0.0,0.0,0.0,0.0,0.0,0.0,1.0076,0.9904,1.0494,1.0156,0.9627,0.0,0.0,0.0,0.0,0.0,0.0,0.0,0.0,0.0,0.0,0.0,0.0,0.0,0.0,0.0,0.0,0.0,0.0,0.0,0.0,0.0,0.0,0.0,0.0,0.0,0.0,0.0,0.0,0.0,0.0,0.0,0.0,0.0,0.0,0.0,0.0,0.0,0.0,0.0,0.0,0.0,0.0,0.0,0.0,0.0,0.0,0.0,0.0,0.0,0.0,0.0,0.0,0.0,0.0,0.0,0.0,0.0,0.0,0.0,0.0,0.0,0.0,0.0,0.0,0.0,0.0,0.0,0.0,0.0,0.0,0.0,0.0,0.0,0.0,0.0,0.0,0.0,0.0,0.0,0.0,0.0,0.0,0.0,0.0,0.0,0.0,0.0,0.0,0.0,0.0,0.0,0.0,0.0,0.0,0.0,0.0,0.0,0.0,0.0,0.0,0.0,0.0,0.0,0.0,0.0,0.0,0.0,0.0,0.0,0.9534,0.962,1.012,1.0985,1.003,0.9478,0.0,0.0,0.0,0.0,0.0,0.0,0.0,0.0,0.0,0.0,0.0,0.0,0.0,0.0,0.0,0.0,0.0,0.0,0.0,0.0,0.0,0.0,0.0,0.0,0.0,0.0,0.0,0.0,0.0,0.0,0.0,0.0,0.0,0.0,0.0,0.0,0.0,0.0,0.0,0.0,0.0,0.0,0.0,0.0,0.0,0.0,0.0,0.0,0.0,0.0,0.0,0.0,0.0,0.0,0.0,0.0,0.0,0.0,0.0,0.0,0.0,0.0,0.0,0.0,0.0,0.0,0.0,0.0,0.0,0.0,0.0,0.0,0.0,0.0,0.0,0.0,0.0,0.0,0.0,0.0,0.0,0.0,0.0,0.0,0.0,0.0,0.0,0.0,0.0,0.0,0.0,0.0,0.0,0.0,0.0,0.0,0.0,0.0,0.0,0.0,0.0,0.0,0.0,0.0,0.0,0.0,0.0,0.0,0.0,0.9379,0.0,1.0527,0.0,1.0078,0.945,0.0,0.0,0.0,0.0,0.0,0.0,0.0,0.0,0.0,0.0,0.0,0.0,0.0,0.0,0.0,0.0,0.0,0.0,0.0,0.0,0.0,0.0,0.0,0.0,0.0,0.0,0.0,0.0,0.0,0.0,0.0,0.0,0.0,0.0,0.0,0.0,0.0,0.0,0.0,0.0,0.0,0.0,0.0,0.0,0.0,0.0,0.0,0.0,0.0,0.0,0.0,0.0,0.0,0.0,0.0,0.0,0.0,0.0,0.0,0.0,0.0,0.0,0.0,0.0,0.0,0.0,0.0,0.0,0.0,0.0,0.0,0.0,0.0,0.0,0.0,0.0,0.0,0.0,0.0,0.0,0.0,0.0,0.0,0.0,0.0,0.0,0.0,0.0,0.0,0.0,0.0,0.0,0.0,0.0,0.0,0.0,0.0,0.0,0.0,0.0,0.0,0.0,0.0,0.0,0.0,0.0,0.0,0.0,0.9522,1.0724,1.1171,1.1134,1.0543,1.0348,0.9593,0.0,0.0,0.0,0.0,0.0,0.0,0.0,0.0,0.0,0.0,0.0,0.0,0.0,0.0,0.0,0.0,0.0,0.0,0.0,0.0,0.0,0.0,0.0,0.0,0.0,0.0,0.0,0.0,0.0,0.0,0.0,0.0,0.0,0.0,0.0,0.0,0.0,0.0,0.0,0.0,0.0,0.0,0.0,0.0,0.0,0.0,0.0,0.0,0.0,0.0,0.0,0.0,0.0,0.0,0.0,0.0,0.0,0.0,0.0,0.0,0.0,0.0,0.0,0.0,0.0,0.0,0.0,0.0,0.0,0.0,0.0,0.0,0.0,0.0,0.0,0.0,0.0,0.0,0.0,0.0,0.0,0.0,0.0,0.0,0.0,0.0,0.0,0.0,0.0,0.0,0.0,0.0,0.0,0.0,0.0,0.0,0.0,0.0,0.0,0.0,0.0,0.0,0.0,0.0,0.0,0.0,0.0,0.0,0.0,1.0303,1.0635,1.1183,1.1851,1.0396,0.9748,0.0,0.0,0.0,0.0,0.0,0.0,0.0,0.0,0.0,0.0,0.0,0.0,0.0,0.0,0.0,0.0,0.0,0.0,0.0,0.0,0.0,0.0,0.0,0.0,0.0,0.0,0.0,0.0,0.0,0.0,0.0,0.0,0.0,0.0,0.0,0.0,0.0,0.0,0.0,0.0,0.0,0.0,0.0,0.0,0.0,0.0,0.0,0.0,0.0,0.0,0.0,0.0,0.0,0.0,0.0,0.0,0.0,0.0,0.0,0.0,0.0,0.0,0.0,0.0,0.0,0.0,0.0,0.0,0.0,0.0,0.0,0.0,0.0,0.0,0.0,0.0,0.0,0.0,0.0,0.0,0.0,0.0,0.0,0.0,0.0,0.0,0.0,0.0,0.0,0.0,0.0,0.0,0.0,0.0,0.0,0.0,0.0,0.0,0.0,0.0,0.0,0.0,0.0,0.0,0.0,0.0,0.0,0.0,0.0,1.1273,1.1564,1.1967,1.2585,1.0934,1.0122,1.0325,0.0,0.0,0.0,0.0,0.0,0.0,0.0,0.0,0.0,0.0,0.0,0.0,0.0,0.0,0.0,0.0,0.0,0.0,0.0,0.0,0.0,0.0,0.0,0.0,0.0,0.0,0.0,0.0,0.0,0.0,0.0,0.0,0.0,0.0,0.0,0.0,0.0,0.0,0.0,0.0,0.0,0.0,0.0,0.0,0.0,0.0,0.0,0.0,0.0,0.0,0.0,0.0,0.0,0.0,0.0,0.0,0.0,0.0,0.0,0.0,0.0,0.0,0.0,0.0,0.0,0.0,0.0,0.0,0.0,0.0,0.0,0.0,0.0,0.0,0.0,0.0,0.0,0.0,0.0,0.0,0.0,0.0,0.0,0.0,0.0,0.0,0.0,0.0,0.0,0.0,0.0,0.0,0.0,0.0,0.0,0.0,0.0,0.0,0.0,0.0,0.0,0.0,0.0,0.0,0.0,0.0,0.0,0.0,1.3291,1.3665,1.3512,1.2824,1.1917,1.0751,0.0,0.0,0.0,0.0,0.0,0.0,0.0,0.0,0.0,0.0,0.0,0.0,0.0,0.0,0.0,0.0,0.0,0.0,0.0,0.0,0.0,0.0,0.0,0.0,0.0,0.0,0.0,0.0,0.0,0.0,0.0,0.0,0.0,0.0,0.0,0.0,0.0,0.0,0.0,0.0,0.0,0.0,0.0,0.0,0.0,0.0,0.0,0.0,0.0,0.0,0.0,0.0,0.0,0.0,0.0,0.0,0.0,0.0,0.0,0.0,0.0,0.0,0.0,0.0,0.0,0.0,0.0,0.0,0.0,0.0,0.0,0.0,0.0,0.0,0.0,0.0,0.0,0.0,0.0,0.0,0.0,0.0,0.0,0.0,0.0,0.0,0.0,0.0,0.0,0.0,0.0,0.0,0.0,0.0,0.0,0.0,0.0,0.0,0.0,0.0,0.0,0.0,0.0,0.0,0.0,0.0,0.0,0.0,0.0,1.4777,1.5244,1.5302,1.4934,1.2931,1.1688,0.0,0.0,0.0,0.0,0.0,0.0,0.0,0.0,0.0,0.0,0.0,0.0,0.0,0.0,0.0,0.0,0.0,0.0,0.0,0.0,0.0,0.0,0.0,0.0,0.0,0.0,0.0,0.0,0.0,0.0,0.0,0.0,0.0,0.0,0.0,0.0,0.0,0.0,0.0,0.0,0.0,0.0,0.0,0.0,0.0,0.0,0.0,0.0,0.0,0.0,0.0,0.0,0.0,0.0,0.0,0.0,0.0,0.0,0.0,0.0,0.0,0.0,0.0,0.0,0.0,0.0,0.0,0.0,0.0,0.0,0.0,0.0,0.0,0.0,0.0,0.0,0.0,0.0,0.0,0.0,0.0,0.0,0.0,0.0,0.0,0.0,0.0,0.0,0.0,0.0,0.0,0.0,0.0,0.0,0.0,0.0,0.0,0.0,0.0,0.0,0.0,0.0,0.0,0.0,0.0,0.0,0.0,0.0,1.4563,1.6253,1.658,1.6834,1.7045,1.4662,1.2831,0.0,0.0,0.0,0.0,0.0,0.0,0.0,0.0,0.0,0.0,0.0,0.0,0.0,0.0,0.0,0.0,0.0,0.0,0.0,0.0,0.0,0.0,0.0,0.0,0.0,0.0,0.0,0.0,0.0,0.0,0.0,0.0,0.0,0.0,0.0,0.0,0.0,0.0,0.0,0.0,0.0,0.0,0.0,0.0,0.0,0.0,0.0,0.0,0.0,0.0,0.0,0.0,0.0,0.0,0.0,0.0,0.0,0.0,0.0,0.0,0.0,0.0,0.0,0.0,0.0,0.0,0.0,0.0,0.0,0.0,0.0,0.0,0.0,0.0,0.0,0.0,0.0,0.0,0.0,0.0,0.0,0.0,0.0,0.0,0.0,0.0,0.0,0.0,0.0,0.0,0.0,0.0,0.0,0.0,0.0,0.0,0.0,0.0,0.0,0.0,0.0,0.0,0.0,0.0,0.0,0.0,0.0,0.0,1.5517,1.7493,1.7658,1.8048,1.8722,1.6577,1.4098,0.0,0.0,0.0,0.0,0.0,0.0,0.0,0.0,0.0,0.0,0.0,0.0,0.0,0.0,0.0,0.0,0.0,0.0,0.0,0.0,0.0,0.0,0.0,0.0,0.0,0.0,0.0,0.0,0.0,0.0,0.0,0.0,0.0,0.0,0.0,0.0,0.0,0.0,0.0,0.0,0.0,0.0,0.0,0.0,0.0,0.0,0.0,0.0,0.0,0.0,0.0,0.0,0.0,0.0,0.0,0.0,0.0,0.0,0.0,0.0,0.0,0.0,0.0,0.0,0.0,0.0,0.0,0.0,0.0,0.0,0.0,0.0,0.0,0.0,0.0,0.0,0.0,0.0,0.0,0.0,0.0,0.0,0.0,0.0,0.0,0.0,0.0,0.0,0.0,0.0,0.0,0.0,0.0,0.0,0.0,0.0,0.0,0.0,0.0,0.0,0.0,0.0,0.0,0.0,0.0,0.0,0.0,0.0,1.6578,1.7854,1.825,1.8683,1.9075,1.6906,1.4928,0.0,0.0,0.0,0.0,0.0,0.0,0.0,0.0,0.0,0.0,0.0,0.0,0.0,0.0,0.0,0.0,0.0,0.0,0.0,0.0,0.0,0.0,0.0,0.0,0.0,0.0,0.0,0.0,0.0,0.0,0.0,0.0,0.0,0.0,0.0,0.0,0.0,0.0,0.0,0.0,0.0,0.0,0.0,0.0,0.0,0.0,0.0,0.0,0.857,0.0,0.0,0.0,0.0,0.0,0.0,0.0,0.0,0.0,0.0,0.0,0.0,0.0,0.0,0.0,0.0,0.0,0.0,0.0,0.0,0.0,0.0,0.0,0.0,0.0,0.0,0.0,0.0,0.0,0.0,0.0,0.0,0.0,0.0,0.0,0.0,0.0,0.0,0.0,0.0,0.0,0.0,0.0,0.0,0.0,0.0,0.0,0.0,0.0,0.0,0.0,0.0,0.0,0.0,0.0,0.0,0.0,0.0,0.0,1.7115,1.8485,1.8938,1.9327,1.9577,1.7743,1.5854,0.0,0.0,0.0,0.0,0.0,0.0,0.0,0.0,0.0,0.0,0.0,0.0,0.0,0.0,0.0,0.0,0.0,0.0,0.0,0.0,0.0,0.0,0.0,0.0,0.0,0.0,0.0,0.0,0.0,0.0,0.0,0.0,0.0,0.0,0.0,0.0,0.0,0.0,0.0,0.0,0.0,0.0,0.0,0.0,0.0,0.0,0.0,0.0,0.0,0.0,0.0,0.0,0.0,0.0,0.0,0.0,0.0,0.0,0.0,0.0,0.0,0.0,0.0,0.0,0.0,0.0,0.0,0.0,0.0,0.0,0.0,0.0,0.0,0.0,0.0,0.0,0.0,0.0,0.0,0.0,0.0,0.0,0.0,0.0,0.0,0.0,0.0,0.0,0.0,0.0,0.0,0.0,0.0,0.0,0.0,0.0,0.0,0.0,0.0,0.0,0.0,0.0,0.0,0.0,0.0,0.0,0.0,1.5288,1.7199,1.8961,1.9514,1.9903,2.0108,1.857,1.6728,1.4649,0.0,0.0,0.0,0.0,0.0,0.0,0.0,0.0,0.0,0.0,0.0,0.0,0.0,0.0,0.0,0.0,0.0,0.0,0.0,0.0,0.0,0.0,0.0,0.0,0.0,0.0,0.0,0.0,0.0,0.0,0.0,0.0,0.0,0.0,0.0,0.0,0.0,0.0,0.7786,0.8431,0.0,0.0,0.0,0.0,0.0,0.0,0.0,0.0,0.9278,0.0,0.0,0.0,0.0,0.0,0.0,0.0,0.0,0.0,0.0,0.0,0.0,0.0,0.0,0.0,0.0,0.0,0.0,0.0,0.0,0.0,0.0,0.0,0.0,0.0,0.0,0.0,0.0,0.0,0.0,0.0,0.0,0.0,0.0,0.0,0.0,0.0,0.0,0.0,0.0,0.0,0.0,0.0,0.0,0.0,0.0,0.0,0.0,0.0,0.0,0.0,0.0,0.0,0.0,0.0,0.0,1.3996,1.5315,1.6866,1.8645,1.9637,1.9997,1.9737,1.8403,1.7197,1.6093,0.0,0.0,0.0,0.0,0.0,0.0,0.0,0.0,0.0,0.0,0.0,0.0,0.0,0.0,0.0,0.0,0.0,0.0,0.0,0.0,0.0,0.0,0.0,0.0,0.0,0.0,0.0,0.0,0.0,0.0,0.0,0.0,0.0,0.0,0.0,0.0,0.0,0.0,0.0,0.9243,0.9805,0.0,0.0,0.0,0.0,0.0,0.0,0.0,0.0,0.9921,0.0,0.0,0.0,0.0,0.0,0.0,0.0,0.0,0.0,0.0,0.0,0.0,0.0,0.0,0.0,0.0,0.0,0.0,0.0,0.0,0.0,0.0,0.0,0.0,0.0,0.0,0.0,0.0,0.0,0.0,0.0,0.0,0.0,0.0,0.0,0.0,0.0,0.0,0.0,0.0,0.0,0.0,0.0,0.0,0.0,0.0,0.0,0.0,0.0,0.0,0.0,0.0,0.0,0.0,0.0,1.365,1.6032,1.7694,1.8602,1.9844,2.0258,1.9666,1.776,1.6469,0.0,0.0,0.0,0.0,0.0,0.0,0.0,0.0,0.0,0.0,0.0,0.0,0.0,0.0,0.0,0.0,0.0,0.0,0.0,0.0,0.0,0.0,0.0,0.0,0.0,0.0,0.0,0.0,0.0,0.0,0.0,0.0,0.0,0.0,0.0,0.0,0.0,0.0,0.0,0.0,1.0086,1.0405,1.0616,0.0,0.0,0.0,0.0,0.0,0.0,1.0738,1.0644,0.0,0.0,0.0,0.0,0.0,0.0,0.0,0.0,0.0,0.0,0.0,0.0,0.0,0.0,0.0,0.0,0.0,0.0,0.0,0.0,0.0,0.0,0.0,0.0,0.0,0.0,0.0,0.0,0.0,0.0,0.0,0.0,0.0,0.0,0.0,0.0,0.0,0.0,0.0,0.0,0.0,0.0,0.0,0.0,0.0,0.0,0.0,0.0,0.0,0.0,0.0,0.0,0.0,0.0,0.0,1.3187,1.6275,1.8125,1.8617,1.9766,2.0107,1.9486,1.7326,1.5864,0.0,0.0,0.0,0.0,0.0,0.0,0.0,0.0,0.0,0.0,0.0,0.0,0.0,0.0,0.0,0.0,0.0,0.0,0.0,0.0,0.0,0.0,0.0,0.0,0.0,0.0,0.0,0.0,0.0,0.0,0.0,0.0,0.0,0.0,0.0,0.0,0.0,0.0,0.0,0.0,0.0,1.1203,1.1274,1.1372,0.0,0.0,0.0,0.0,1.1386,1.1547,0.0,0.0,0.0,0.0,0.0,0.0,0.0,0.0,0.0,0.0,0.0,0.0,0.0,0.0,0.0,0.0,0.0,0.0,0.0,0.0,0.0,0.0,0.0,0.0,0.0,0.0,0.0,0.0,0.0,0.0,0.0,0.0,0.0,0.0,0.0,0.0,0.0,0.0,0.0,0.0,0.0,0.0,0.0,0.0,0.0,0.0,0.0,0.0,0.0,0.0,0.0,0.0,0.0,0.0,0.0,0.0,1.3103,1.4908,1.6738,1.8479,1.8831,1.8925,1.8807,1.7954,1.6531,0.0,0.0,0.0,0.0,0.0,0.0,0.0,0.0,0.0,0.0,0.0,0.0,0.0,0.0,0.0,0.0,0.0,0.0,0.0,0.0,0.0,0.0,0.0,0.0,0.0,0.0,0.0,0.0,0.0,0.0,0.0,0.0,0.0,0.0,0.0,0.0,0.0,0.0,0.0,0.0,0.0,1.2454,1.175,1.2354,1.2648,0.0,0.0,1.319,1.2812,1.3166,0.0,0.0,0.0,0.0,0.0,0.0,0.0,0.0,0.0,0.0,0.0,0.0,0.0,0.0,0.0,0.0,0.0,0.0,0.0,0.0,0.0,0.0,0.0,0.0,0.0,0.0,0.0,0.0,0.0,0.0,0.0,0.0,0.0,0.0,0.0,0.0,0.0,0.0,0.0,0.0,0.0,0.0,0.0,0.0,0.0,0.0,0.0,0.0,0.0,0.0,0.0,0.0,0.0,0.0,0.0,1.2405,1.3205,1.5651,1.7491,1.8556,1.9029,1.9091,1.8702,1.7341,1.5715,0.0,0.0,0.0,0.0,0.0,0.0,0.0,0.0,0.0,0.0,0.0,0.0,0.0,0.0,0.0,0.0,0.0,0.0,0.0,0.0,0.0,0.0,0.0,0.0,0.0,0.0,0.0,0.0,0.0,0.0,0.0,0.0,0.0,0.0,0.0,0.0,0.0,0.0,0.0,0.0,0.0,0.0,1.296,1.3483,0.0,0.0,0.0,1.4393,1.4308,0.0,0.0,0.0,0.0,0.0,0.0,0.0,0.0,0.0,0.0,0.0,0.0,0.0,0.0,0.0,0.0,0.0,0.0,0.0,0.0,0.0,0.0,0.0,0.0,0.0,0.0,0.0,0.0,0.0,0.0,0.0,0.0,0.0,0.0,0.0,0.0,0.0,0.0,0.0,0.0,0.0,0.0,0.0,0.0,0.0,0.0,0.0,0.0,0.0,0.0,0.0,0.0,0.0,0.0,0.0,0.0,0.0,1.3258,1.6182,1.8003,1.8572,1.8827,1.8808,1.8418,1.6862,0.0,0.0,0.0,0.0,0.0,0.0,0.0,0.0,0.0,0.0,0.0,0.0,0.0,0.0,0.0,0.0,0.0,0.0,0.0,0.0,0.0,0.0,0.0,0.0,0.0,0.0,0.0,0.8261,0.0,0.0,0.0,0.0,0.0,0.0,0.0,0.0,0.0,0.0,0.0,0.0,0.0,0.0,1.4304,1.4199,1.467,1.491,0.0,0.0,1.577,1.548,1.5682,1.5312,0.0,0.0,0.0,0.0,0.0,0.0,0.0,0.0,0.0,0.0,0.0,0.0,0.0,0.0,0.0,0.0,0.0,0.0,0.0,0.0,0.0,0.0,0.0,0.0,0.0,0.0,0.0,0.0,0.0,0.0,0.0,0.0,0.0,0.0,0.0,0.0,0.0,0.0,0.0,0.0,0.0,0.0,0.0,0.0,0.0,0.0,0.0,0.0,0.0,0.0,0.0,0.0,0.0,0.0,0.0,1.3274,1.5509,1.7322,1.8525,1.7486,1.7161,1.7727,1.704,1.5309,0.0,0.0,0.0,0.0,0.0,0.0,0.0,0.0,0.0,0.0,0.0,0.0,0.0,0.0,0.0,0.0,0.0,0.0,0.0,0.0,0.0,0.0,0.0,0.0,0.0,0.0,0.0,0.0,0.0,0.0,0.0,0.0,0.0,0.0,0.0,0.0,0.0,0.0,0.0,0.0,0.0,1.56,1.5237,1.5978,1.6431,0.0,0.0,1.7499,1.6004,1.6642,1.6369,1.3444,0.0,0.0,0.0,0.0,0.0,0.0,0.0,0.0,0.0,0.0,0.0,0.0,0.0,0.0,0.0,0.0,0.0,0.0,0.0,0.0,0.0,0.0,0.0,0.0,0.0,0.0,0.0,0.0,0.0,0.0,0.0,0.0,0.0,0.0,0.0,0.0,0.0,0.0,0.0,0.0,0.0,0.0,0.0,0.0,0.0,0.0,0.0,0.0,0.0,0.0,0.0,0.0,0.0,1.3033,1.3224,1.5438,1.7231,1.8495,1.7961,1.7666,1.7715,1.7443,1.5871,0.0,0.0,0.0,0.0,0.0,0.0,0.0,0.0,0.0,0.0,0.0,0.0,0.0,0.0,0.0,0.0,0.0,0.0,0.0,0.0,0.0,0.0,0.0,0.0,0.0,0.0,0.0,0.0,0.845,0.846,0.8447,0.0,0.0,0.0,0.0,0.0,0.0,0.0,0.0,0.0,0.0,1.5767,1.6281,1.6986,0.0,0.0,1.8214,1.85,1.7906,1.7547,1.678,1.502,1.4383,0.0,0.0,0.0,0.0,0.0,0.0,0.0,0.0,0.0,0.0,0.0,0.0,0.0,0.0,0.0,0.0,0.0,0.0,0.0,0.0,0.0,0.0,0.0,0.0,0.0,0.0,0.0,0.0,0.0,0.0,0.0,0.0,0.0,0.0,0.0,0.0,0.0,0.0,0.0,0.0,0.0,0.0,0.0,0.0,0.0,0.0,0.0,0.0,0.0,0.0,0.0,0.0,1.2985,1.34,1.5719,1.7452,1.8467,1.8315,1.805,1.7715,1.7503,1.6128,0.0,0.0,0.0,0.0,0.0,0.0,0.0,0.0,0.0,0.0,0.0,0.0,0.0,0.0,0.0,0.0,0.0,0.0,0.0,0.0,0.0,0.0,0.0,0.0,0.0,0.0,0.0,0.0,0.8755,0.8894,0.8882,0.0,0.0,0.0,0.0,0.0,0.0,0.0,0.0,0.0,0.0,1.6306,1.7249,1.7834,1.8354,1.8691,1.9071,1.928,1.911,1.8232,1.7204,1.6182,0.0,0.0,0.0,0.0,0.0,0.0,0.0,0.0,0.0,0.0,0.0,0.0,0.0,0.0,0.0,0.0,0.0,0.0,0.0,0.0,0.0,0.0,0.0,0.0,0.0,0.0,0.0,0.0,0.0,0.0,0.9698,0.0,0.0,0.0,0.0,0.0,0.0,0.0,0.0,0.0,0.0,0.0,0.0,0.0,0.0,0.0,0.0,0.0,0.0,0.0,0.0,0.0,0.0,1.3154,1.3893,1.6374,1.7836,1.8238,1.8253,1.8112,1.7715,1.707,1.5887,1.4108,0.0,0.0,0.0,0.0,0.0,0.0,0.0,0.0,0.0,0.0,0.0,0.0,0.0,0.0,0.0,0.0,0.0,0.0,0.0,0.0,0.0,0.0,0.0,0.0,0.0,0.0,0.8665,0.9296,0.9775,0.0,0.0,0.0,0.0,0.0,0.0,0.0,0.0,0.0,0.0,1.6599,1.7505,1.8166,1.8598,1.8999,1.9398,1.9808,1.9802,1.9122,1.855,1.7782,0.0,0.0,0.0,0.0,0.0,0.0,0.0,0.0,0.0,0.0,0.0,0.0,0.0,0.0,0.0,0.0,0.0,0.0,0.0,0.0,0.0,0.0,0.0,0.0,0.0,0.0,0.0,1.2688,1.1965,0.0,0.0,0.0,0.0,0.0,0.0,0.0,0.0,0.0,0.0,0.0,1.4863,1.5542,0.0,0.0,0.0,0.0,0.0,0.0,0.0,0.0,0.0,0.0,0.0,0.0,1.3394,1.4589,1.6402,1.7836,1.8759,1.8639,1.8311,1.7745,1.7473,1.6308,1.4099,0.0,0.0,0.0,0.0,0.0,0.0,0.0,0.0,0.0,0.0,0.0,0.0,0.0,0.0,0.0,0.0,0.0,0.0,0.0,0.0,0.0,0.0,0.0,0.0,0.0,0.9596,0.0,0.0,0.0,0.0,0.0,0.0,0.0,0.0,0.0,0.0,0.0,1.5889,1.7001,1.7347,1.7824,1.8698,1.9184,1.9551,0.0,0.0,0.0,0.0,0.0,0.0,0.0,0.0,0.0,0.0,0.0,0.0,0.0,0.0,1.1388,0.9709,0.9155,0.9023,0.9264,0.0,0.0,0.0,0.0,0.0,0.0,0.0,0.0,0.0,0.0,0.0,0.0,0.0,0.0,1.4612,0.0,1.3832,0.0,0.0,0.0,0.0,0.0,0.0,0.0,0.0,1.6942,1.747,1.693,1.7654,1.7483,0.0,1.6562,1.5607,0.0,0.0,0.0,0.0,0.0,0.0,0.0,0.0,1.3807,1.5296,1.6822,1.8022,1.8915,1.9137,1.8869,1.8089,1.7578,1.6383,1.4323,1.3282,1.2142,0.0,0.0,0.0,0.0,0.0,0.0,0.0,0.0,0.0,0.0,0.0,0.0,0.0,0.0,0.0,0.0,0.0,0.0,0.0,0.0,0.0,0.0,0.0,1.021,0.0,0.0,0.0,0.0,0.0,0.0,0.0,0.0,0.0,1.7685,1.6985,1.6717,1.7562,1.7888,1.8275,1.9029,0.0,0.0,0.0,0.0,0.0,0.0,0.0,1.872,1.8067,1.7506,1.6812,1.5785,1.5016,1.4357,1.3828,0.0,0.0,1.0554,0.9925,0.9734,0.9916,1.0175,1.0276,0.9949,1.0231,1.0338,0.0,0.0,0.0,0.0,0.0,0.0,0.0,0.0,1.6813,1.6407,0.0,1.5579,0.0,0.0,0.0,0.0,0.0,1.71,0.0,0.0,1.9891,2.0223,1.9188,1.9049,1.8726,1.8393,1.9417,1.9095,1.7399,1.3615,0.0,0.0,0.0,0.0,0.0,0.0,1.4405,1.6163,1.7592,1.8448,1.8766,1.9665,1.968,1.8687,1.7428,1.6159,1.4917,1.4394,1.3433,1.1931,1.1062,0.0,0.0,0.0,0.0,0.0,0.0,0.0,0.0,0.0,0.0,0.0,0.0,0.0,0.0,0.0,0.0,0.0,0.0,0.0,0.0,0.9829,0.0,0.0,0.0,0.0,0.0,0.0,0.0,0.0,0.0,0.0,1.7319,1.8218,1.8578,1.753,0.0,0.0,0.0,0.0,1.9945,2.0339,2.0373,2.0339,2.027,1.9427,1.8727,1.8674,0.0,0.0,1.5271,1.5116,1.4789,1.3983,1.351,1.3122,1.2754,1.1842,1.1334,1.1721,1.106,1.0499,1.0561,1.0306,0.991,2.0244,0.0,0.0,0.0,0.0,1.8699,1.9304,2.059,1.9773,1.9117,1.8528,1.8336,0.0,0.0,0.0,0.0,0.0,0.0,1.9373,1.935,2.0491,2.09,2.0722,2.0661,2.0586,2.0493,2.0295,1.9789,1.8918,1.688,1.4977,1.3303,0.0,0.0,0.0,0.0,1.5534,1.7425,1.8229,1.885,1.9405,1.9677,1.9466,1.8717,1.7861,1.7025,1.6189,1.5387,1.4451,1.3401,1.1866,0.0,0.0,0.0,0.0,0.0,0.0,0.0,0.0,0.0,0.0,0.0,0.0,0.0,0.0,0.0,0.0,0.0,0.0,0.0,1.0313,1.0429,1.1334,0.0,0.0,0.0,0.0,0.0,0.0,0.0,0.0,0.0,1.8655,1.8452,1.8387,0.0,0.0,1.9391,1.9651,2.0035,2.0323,2.0388,2.0373,0.0,0.0,1.9566,1.9169,1.838,1.7353,1.6391,1.5714,1.5318,1.4926,1.4348,1.3893,1.3573,1.3467,1.258,1.2053,1.2291,1.1997,1.1542,1.1402,1.1235,1.104,2.271,2.1004,2.0058,2.005,2.0628,2.0165,2.0876,2.2312,2.1441,2.1057,2.1025,2.063,1.9633,1.8272,1.8521,0.0,0.0,0.0,2.085,2.1045,2.1454,2.1658,2.1628,2.1615,2.1524,2.1401,2.1098,2.0703,2.021,1.953,1.8168,1.6121,0.0,0.0,1.5233,1.5661,1.6736,1.8339,1.8594,1.9016,1.9675,1.9705,1.9375,1.8717,1.8313,1.7652,1.6756,1.6172,1.5387,1.4358,1.304,1.1925,0.0,0.0,0.0,0.0,0.0,0.0,0.0,0.0,0.0,0.0,0.0,0.9219,0.0,0.0,0.0,0.0,0.956,1.0334,1.1514,1.1925,0.0,0.0,0.0,0.0,0.0,0.0,0.0,1.8974,1.9178,1.9324,1.9679,1.9288,1.904,1.9244,1.9573,1.9854,1.9965,0.0,2.0494,2.0525,2.0475,2.0304,1.9904,1.9747,1.9317,1.8249,1.7517,1.6837,1.6312,1.5844,1.5412,1.4869,1.4326,1.3962,1.4046,1.3228,1.2559,1.2676,1.2382,1.2026,1.1719,1.1669,1.1619,2.508,2.4862,2.2441,2.1702,2.2136,2.2177,2.2575,2.32,2.2337,2.2576,2.3501,2.2559,2.1896,2.1505,2.1043,0.0,2.147,2.2025,2.2511,2.2917,2.2668,2.2398,2.2084,2.2068,2.1866,2.1509,2.1853,2.1731,2.118,2.1519,2.0966,1.9553,1.772,1.7054,1.7514,1.7506,1.8007,1.9015,1.8861,1.9076,1.9675,1.9705,1.939,1.8807,1.8732,1.8071,1.6861,1.6711,1.6099,1.4959,1.4317,1.3424,1.2201,0.0,0.0,0.0,0.0,0.0,0.0,0.0,0.0,0.0,0.0,0.0,0.0,0.0,0.0,0.0,1.1038,0.0,1.2639,1.3878,0.0,0.0,0.0,1.704,1.8141,1.8094,1.8578,2.0056,0.0,0.0,2.0376,2.0395,2.012,1.9391,1.9889,2.027,2.0185,2.0376,2.0577,2.066,2.061,2.0525,2.0512,2.0157,1.9605,1.8607,1.795,1.762,1.6995,1.6615,1.6169,1.5478,1.4766,1.4395,1.451,1.3879,1.318,1.3017,1.2597,1.2175,1.2017,1.1909,1.1819,2.5832,2.573,2.4566,2.4126,2.4282,2.4489,2.4673,2.4831,2.4878,2.5042,2.5244,2.4355,2.3543,2.2835,2.2779,2.2729,2.2754,2.3012,2.3122,2.3135,2.3129,2.2982,2.2756,2.2712,2.2544,2.226,2.2276,2.2089,2.1645,2.1735,2.148,2.0849,2.0358,1.9728,1.8956,1.8975,1.9357,2.0113,1.9732,1.9596,1.969,1.9705,1.9615,1.9465,1.8972,1.8295,1.7473,1.6713,1.6081,1.556,1.4512,1.3743,1.337,1.1723,0.0,0.0,0.0,0.0,0.0,0.0,0.0,0.0,0.0,1.0754,0.9624,0.0,1.1013,0.0,1.2314,1.3173,1.3763,1.4445,0.0,0.0,1.7565,1.8199,1.9398,1.961,1.9906,2.0575,2.0452,2.0342,2.0395,2.0395,2.0342,2.012,2.0273,2.046,2.0613,2.0695,2.0744,2.0724,2.074,2.0814,2.121,2.136,2.0971,2.0019,1.967,1.9107,1.7717,1.7421,1.7074,1.6093,1.5421,1.5314,1.5788,1.4896,1.4253,1.45,1.3907,1.3238,1.318,1.288,1.2589,2.6619,2.6592,2.6311,2.6225,2.6173,2.5627,2.5473,2.5622,2.58,2.6027,2.6201,2.5713,2.5231,2.4779,2.4802,2.4761,2.4681,2.418,2.3904,2.3798,2.3263,2.2968,2.285,2.2756,2.2642,2.2487,2.2422,2.2237,2.202,2.1886,2.1691,2.1524,2.137,2.0933,2.0274,2.0207,2.0416,2.0748,2.0261,2.0,1.998,1.9782,1.9611,1.947,1.8985,1.8305,1.7562,1.6814,1.6159,1.5546,1.485,1.4332,1.397,1.2665,1.1775,0.0,0.0,0.0,0.0,0.0,0.0,0.0,0.0,0.0,0.0,0.0,1.1897,1.2786,1.37,1.4639,1.5664,1.6143,1.6884,1.818,1.8572,1.9043,1.9904,2.0069,2.0319,2.0747,2.0545,2.0395,2.041,2.0793,2.0995,2.0876,2.1245,2.1462,2.1345,2.1521,2.1726,2.1689,2.1673,2.1749,2.2102,2.2024,2.1753,2.1245,2.0876,2.0274,1.9173,1.8829,1.8372,1.7498,1.6806,1.6443,1.6681,1.6017,1.5493,1.5867,1.5594,1.4864,1.3979,1.3351,1.2967,2.7407,2.7421,2.7659,2.776,2.7666,2.6364,2.5932,2.6154,2.6254,2.647,2.6746,2.6765,2.6695,2.6612,2.6612,2.6573,2.6454,2.5311,2.4778,2.467,2.35,2.2929,2.2859,2.2684,2.2569,2.2497,2.2377,2.231,2.2282,2.202,2.1857,2.1857,2.1601,2.1432,2.1432,2.1306,2.1181,2.0943,2.055,2.0348,2.0314,1.998,1.9637,1.9313,1.8846,1.8193,1.7407,1.6925,1.6262,1.5338,1.5349,1.5103,1.4427,1.3712,1.3245,0.0,1.2488,0.0,0.0,0.0,0.0,0.0,0.0,0.0,0.0,1.2671,1.3025,1.4421,1.531,1.6356,1.7682,1.814,1.8571,1.9126,1.9457,1.9747,2.0096,2.0131,2.0369,2.0921,2.0754,2.0634,2.0839,2.1528,2.196,2.1835,2.2497,2.2845,2.2397,2.2604,2.2769,2.288,2.2959,2.2923,2.2944,2.2654,2.2439,2.2276,2.1924,2.1369,2.0755,2.0271,1.9775,1.9021,1.8266,1.7749,1.7593,1.7179,1.691,1.7152,1.7044,1.6448,1.4975,1.4031,1.3417,2.7954,2.7954,2.7992,2.8037,2.8029,2.7985,2.8023,2.8073,2.833,2.8082,2.7581,2.7567,2.7218,2.6631,2.6612,2.6447,2.6172,2.5935,2.5721,2.5465,2.4626,2.4141,2.3894,2.3274,2.2816,2.2515,2.247,2.2422,2.2327,2.2237,2.2209,2.2209,2.2152,2.2106,2.2106,0.0,0.0,0.0,2.0429,2.0465,2.033,2.0212,2.0165,2.0064,1.8667,0.0,1.7631,1.7026,1.6383,1.5736,1.6158,0.0,0.0,0.0,0.0,0.0,0.0,0.0,0.0,0.0,0.0,0.0,1.5576,1.4781,1.3839,1.5015,1.6009,1.64,1.7719,1.8502,1.8362,1.8838,1.9324,1.9722,2.005,2.0376,2.0663,2.0925,2.1263,2.1772,2.1802,2.1991,2.2534,2.2876,2.2991,2.3095,2.3729,2.41,2.4003,2.3399,2.2948,2.2912,2.3386,2.3702,2.3696,2.3967,2.3955,2.3794,2.3305,2.2641,2.1715,2.1105,2.0536,1.9884,1.9125,1.8721,1.8852,1.8166,1.7678,1.7927,1.7625,1.7169,1.6627,1.5919,1.5398,2.8101,0.0,2.8264,2.8334,0.0,2.8669,2.8791,2.881,2.8947,2.8778,2.8411,2.8374,2.8086,2.7588,2.7588,2.7411,2.7061,2.6601,2.6268,2.61,2.5209,2.4742,2.458,2.4126,2.3608,2.3061,2.2977,2.2722,2.2299,2.2152,2.2049,2.2065,2.1886,2.1827,2.1827,2.1827,2.1462,2.0764,2.0614,2.0465,2.0314,2.0089,1.9936,1.9718,0.0,0.0,0.0,0.0,0.0,0.0,0.0,0.0,0.0,0.0,0.0,1.5811,1.5288,1.5251,1.5918,1.6006,1.6407,1.7225,1.7331,1.6758,1.5276,1.6412,1.7296,1.7691,1.8804,1.9396,1.9226,1.9465,1.9788,2.0158,2.0447,2.0856,2.1355,2.1665,2.2086,2.2633,2.2778,2.2955,2.3294,2.3665,2.3877,2.4032,2.458,2.5017,2.4984,2.4521,2.4074,2.3961,2.416,2.4428,2.446,2.45,2.4661,2.4451,2.3879,2.3229,2.263,2.1965,2.1365,2.0799,2.0187,1.9852,1.995,1.943,1.8921,1.8904,1.868,1.8396,1.8068,1.7109,1.6227,2.8451,2.8488,2.8605,2.8669,2.8694,2.8905,2.8975,2.8975,0.0,0.0,0.0,2.897,2.8815,2.8669,2.8551,2.8352,2.8066,2.7194,2.6771,2.6667,2.564,2.5195,2.5195,2.4905,2.444,2.383,2.3578,2.3117,2.2513,2.2086,2.1886,2.1857,2.1631,2.1493,2.1479,2.1432,2.1446,2.1552,2.0991,2.0614,2.0416,2.012,1.9741,1.941,1.8936,1.8567,1.8298,1.8027,1.7421,1.6451,1.7043,1.7089,1.6449,1.6908,1.7348,1.767,1.7682,1.7757,1.7847,1.7861,1.7954,1.8026,1.8568,1.8395,1.7152,1.756,1.8101,1.8672,1.9379,1.9919,2.0122,2.0222,2.0443,2.096,2.1226,2.1647,2.2258,2.2539,2.2981,2.3565,2.3728,2.3793,2.3972,2.4408,2.4749,2.4866,2.5342,2.5675,2.5621,2.5351,2.5051,2.48,2.4736,2.4815,2.4806,2.4589,2.4539,2.463,2.3937,2.3363,2.3143,2.2618,2.1996,2.152,2.114,2.0868,2.0795,2.0445,2.0169,1.9668,1.9617,1.9512,1.9008,1.793,1.7035,2.9921,2.9856,2.9222,2.8929,2.8929,2.8994,2.8975,2.8975,2.8994,2.8975,2.8975,2.8785,2.8767,2.8905,2.8352,2.8075,2.8057,2.7648,2.7382,0.0,2.6346,2.5954,2.5919,2.5269,2.4895,2.4665,2.3949,2.3516,2.3277,2.2586,2.2254,2.2225,2.218,2.2152,2.2152,2.1886,2.1675,2.1598,2.1554,2.1308,2.0894,2.078,2.0534,2.0125,1.9212,1.8691,1.8635,1.8587,1.8208,1.7522,1.8115,1.816,1.7537,1.7558,1.7644,1.7697,1.7697,1.7969,1.8508,1.8568,1.8807,1.9346,1.9495,1.9471,1.9276,1.9331,1.943,1.9549,2.0015,2.0539,2.1013,2.1338,2.1922,2.2859,2.3106,2.3273,2.3621,2.372,2.3984,2.4538,2.4617,2.4863,2.5321,2.5566,2.5704,2.5895,2.5944,2.6007,2.5807,2.5508,2.51,2.4701,2.458,2.4441,2.4276,2.4109,2.4109,2.4124,2.361,2.3127,2.3127,2.2449,2.1855,2.1759,2.1458,2.1166,2.0894,2.0746,2.0409,1.9862,1.9708,1.95,1.9146,1.873,1.8477,3.0834,3.0815,3.0448,3.0301,3.0301,3.0271,2.999,2.9558,2.9539,2.9289,2.8947,2.8767,2.8601,2.8386,2.812,2.7823,2.7547,2.7478,2.739,2.7264,2.6919,2.6747,2.6713,2.6337,2.5897,2.5489,2.5039,2.4633,2.4164,2.3345,2.2943,2.2926,2.2336,2.1915,2.1675,2.1721,2.1661,2.1538,2.1385,2.1214,2.0942,2.0877,2.073,2.0548,1.9866,1.9524,1.9539,1.9331,1.8942,1.8283,1.8871,1.8931,1.8313,1.8604,1.8798,1.8792,1.8792,1.8927,1.9226,1.9241,1.9361,1.966,1.9705,1.9705,1.9705,1.9705,1.9705,1.9756,2.091,2.1701,2.1619,2.228,2.2989,2.3669,2.3786,2.4,2.448,2.4597,2.4861,2.5436,2.5549,2.5697,2.601,2.6043,2.6096,2.6168,2.6203,2.6079,2.5807,2.5584,2.5262,2.4751,2.44,2.4193,2.4024,2.3782,2.3782,2.394,2.3363,2.2904,2.2844,2.2249,2.1793,2.1616,2.1471,2.1361,2.1104,2.1118,2.0858,2.0409,2.0067,1.9823,1.946,1.9146,1.8721,3.1671,3.1659,3.1458,3.1403,3.1403,3.1327,3.0885,3.0312,3.0268,2.9922,2.9381,2.8943,2.8539,2.8258,2.7986,2.7694,2.7437,2.727,2.7218,2.725,2.7282,2.7299,2.7299,2.712,2.673,2.6168,2.5853,2.5368,2.476,2.3941,2.3409,2.3143,2.2175,2.1462,2.1118,2.1401,2.1479,2.1385,2.1134,2.0975,2.1023,2.0942,2.086,2.0794,2.0496,2.0326,2.0326,2.01,1.9697,1.9125,1.9547,1.9542,1.8986,1.9405,1.9705,1.9705,1.9705,1.9705,1.9705,1.9705,1.9726,1.9726,1.9726,1.9726,1.9762,1.9726,1.9837,2.0192,2.161,2.2524,2.2623,2.3284,2.4013,2.4431,2.4497,2.4779,2.5259,2.5342,2.5557,2.6104,2.6203,2.6187,2.6203,2.6203,2.6168,2.6132,2.6132,2.597,2.5696,2.553,2.5208,2.4855,2.4343,2.394,2.3812,2.348,2.3436,2.3711,2.3038,2.2632,2.248,2.2109,2.1698,2.1471,2.141,2.1361,2.141,2.1361,2.1215,2.0809,2.0409,2.0029,1.9512,1.9028,1.8429,3.2493,3.2375,3.1751,3.1403,3.1458,3.1331,3.1224,3.1166,3.1055,3.0984,3.0693,2.915,2.882,2.9122,2.7982,2.7778,2.8219,2.7444,2.7055,2.7135,2.725,2.7299,2.7235,2.6891,2.6708,2.6455,2.5547,2.5026,2.4742,2.3932,2.3127,2.2378,2.1568,2.115,2.1118,2.1055,2.1071,2.1039,2.0958,2.1055,2.1324,2.1293,2.1087,2.081,2.0761,2.0761,2.0679,2.0728,2.0514,2.0097,2.0108,1.9984,1.9671,1.966,1.9705,1.9705,1.9705,1.9705,1.9705,1.9705,1.9726,1.9812,1.9797,1.9833,1.9955,1.9812,2.014,2.1034,2.1688,2.2861,2.4091,2.4687,2.5192,2.574,2.5872,2.6002,2.6038,2.6104,2.6137,2.617,2.6203,2.6203,2.6203,2.6168,2.6132,2.597,2.5934,2.5909,2.5697,2.5358,2.5108,2.4829,2.439,2.3814,2.3305,2.2978,2.3008,2.3008,2.2646,2.237,2.2263,2.1921,2.141,2.141,2.141,2.141,2.1313,2.1361,2.1215,2.0809,2.0359,1.9978,1.9251,1.8709,1.8038,3.3311,3.3275,3.2944,3.2763,3.2702,3.2648,3.232,3.1847,3.1764,3.1483,3.0994,3.0252,3.0025,3.0044,2.9047,2.8694,2.8706,2.7747,2.731,2.7293,2.6973,2.6775,2.6742,2.635,2.6158,2.6158,2.5631,2.5392,2.5242,2.4495,2.3412,2.2107,2.1591,2.109,2.0527,2.0597,2.0614,2.0548,2.073,2.0909,2.1007,2.1023,2.0925,2.0794,2.0563,2.0429,2.0462,2.0429,2.0361,2.0208,2.0208,2.0154,2.0015,1.9818,1.9705,1.9705,1.9705,1.9705,1.9705,1.9705,1.9741,1.9797,1.9797,1.9848,2.0021,2.0436,2.1085,2.2082,2.3603,2.4658,2.4471,2.5196,2.5926,2.6191,2.6222,2.6203,2.6203,2.6203,2.6203,2.6203,2.6203,2.6203,2.6168,2.6096,2.6007,2.5897,2.5824,2.5837,2.5947,2.5807,2.574,2.5764,2.5601,2.4785,2.36,2.3008,2.2947,2.2902,2.2752,2.2601,2.2417,2.2324,2.1983,2.1396,2.1458,2.1313,2.0723,2.0908,2.0908,2.051,2.0105,1.9668,1.9093,1.8815,1.8321,3.3807,3.3807,3.3762,3.3716,3.3615,3.3577,3.3164,3.2589,3.2524,3.218,3.1673,3.1655,3.1373,3.0843,2.9828,2.9189,2.881,2.7698,2.7213,2.7195,2.6556,2.621,2.6175,2.5835,2.5635,2.5615,2.5486,2.5433,2.533,2.4574,2.3469,2.2357,2.1916,2.1265,2.0411,2.0476,2.0424,2.0273,2.0496,2.0679,2.0745,2.0695,2.0679,2.0761,2.0496,2.0361,2.0361,2.0361,2.0311,2.0208,2.0208,2.0104,1.9894,1.9675,1.9545,1.9545,1.953,1.9581,1.969,1.9705,1.9777,1.9848,1.9848,2.0,2.043,2.1159,2.2023,2.2949,2.513,2.5907,2.4943,2.5481,2.6137,2.6241,2.6134,2.6043,2.6168,2.6203,2.6203,2.6203,2.6203,2.6203,2.6184,2.6261,2.6352,2.6241,2.6254,2.6202,2.6519,2.6557,2.6525,2.6654,2.657,2.5859,2.4402,2.3925,2.3595,2.33,2.3283,2.2936,2.2672,2.2569,2.2417,2.1779,2.1746,2.1444,2.0908,2.0809,2.0497,2.0118,1.9823,1.9396,1.8815,1.8762,1.8321,3.3807,3.378,3.3671,3.3643,3.3671,3.3509,3.3433,3.3335,3.3332,3.3284,3.3176,3.3194,3.2778,3.179,2.9906,2.8908,2.8613,2.7148,2.6556,2.6656,2.6073,2.5819,2.5766,2.5427,2.523,2.5176,2.4879,2.4655,2.4461,2.3816,2.331,2.3078,2.2432,2.1782,2.1,2.0887,2.0679,2.0424,2.0385,2.046,2.0728,2.0444,2.0462,2.0761,2.0745,2.0679,2.0728,2.0745,2.0579,2.0208,2.0208,1.9894,1.9273,1.9176,1.9139,1.9139,1.9139,1.9288,1.9617,1.969,1.9792,1.995,2.0081,2.038,2.1194,2.1998,2.2808,2.357,2.544,2.6282,2.5689,2.5726,2.5974,2.6151,2.5848,2.5828,2.6151,2.6203,2.6203,2.6203,2.6203,2.6253,2.627,2.6816,2.6965,2.7027,2.7273,2.7478,2.732,2.719,2.7115,2.7107,2.6889,2.6392,2.5925,2.5166,2.4787,2.4456,2.3868,2.3349,2.2794,2.2402,2.232,2.2058,2.178,2.1491,2.1131,2.0709,2.0105,1.9772,1.9617,1.9251,1.8548,1.8267,1.7809,3.378,3.3726,3.3633,3.3605,3.3549,3.3509,3.3452,3.3441,3.3411,3.3393,3.3393,3.3393,3.2652,3.125,3.0349,2.9504,2.8613,2.6922,2.616,2.6162,2.5545,2.5237,2.5182,2.4823,2.4614,2.4614,2.4451,2.3991,2.3419,2.3622,2.2867,2.1542,2.2132,2.1919,2.087,2.1347,2.1725,2.1522,2.1335,2.1324,2.141,2.0915,2.0646,2.0761,2.0342,2.01,2.01,2.0292,2.0361,2.0208,2.0208,2.007,1.9803,1.9347,1.9116,1.9116,1.9116,1.9064,1.8997,1.942,1.9833,2.0132,2.0685,2.1286,2.2139,2.3068,2.3842,2.4384,2.5426,2.6044,2.5994,2.6063,2.6258,2.6345,2.6151,2.599,2.6115,2.6203,2.6203,2.6203,2.6203,2.6369,2.6796,2.7057,2.718,2.7411,2.7518,2.7608,2.7778,2.7775,2.7797,2.8223,2.8243,2.8136,2.8045,2.6365,2.5263,2.505,2.4637,2.4138,2.3601,2.3669,2.3674,2.2639,2.2125,2.1655,2.1342,2.0258,1.9741,1.9621,1.9462,1.9269,1.8267,1.8176,1.7634,3.3762,3.3689,3.3587,3.353,3.3509,3.3462,3.3452,3.3393,3.3393,3.3334,3.3208,3.3032,3.2146,3.0783,3.0145,2.9302,2.8178,2.6673,2.5889,2.5733,2.5028,2.4719,2.4639,2.4426,2.4302,2.4261,2.3979,2.3288,2.2324,2.2877,2.2095,2.0375,2.1563,2.1629,2.0855,2.1491,2.2037,2.2156,2.2035,2.1996,2.2055,2.1572,2.1305,2.1308,2.0635,2.005,1.9904,2.007,2.0154,2.0035,2.005,1.9965,1.9788,1.9258,1.8988,1.9078,1.9116,1.9049,1.9003,1.9575,2.0124,2.0413,2.1174,2.1997,2.2736,2.3787,2.443,2.4882,2.5595,2.6147,2.6156,2.6329,2.6415,2.6364,2.6151,2.6043,2.6168,2.6203,2.6336,2.6498,2.6401,2.6751,2.7458,2.7558,2.772,2.7996,2.7965,2.8096,2.8194,2.8092,2.8139,2.8607,2.8576,2.8482,2.823,2.698,2.6183,2.5971,2.5404,2.4903,2.4544,2.4713,2.4485,2.3396,2.2595,2.2082,2.1212,2.0042,1.9617,1.9582,1.9746,1.9749,1.8902,1.8193,1.7505,3.3762,3.3633,3.352,3.3462,3.3415,3.3375,3.3364,3.3316,3.3316,3.3099,3.2763,3.238,3.1579,3.0332,2.9436,2.8302,2.7299,2.6338,2.5767,2.549,2.4773,2.4436,2.4451,2.4234,2.4078,2.3979,2.3362,2.2338,2.1267,2.1315,2.1069,2.0718,2.0726,2.1014,2.1105,2.1325,2.1693,2.2245,2.2401,2.2443,2.2619,2.2319,2.2294,2.2503,2.1714,2.0896,2.0266,2.0204,2.0085,1.9833,1.9747,1.9508,1.9236,1.8822,1.8707,1.9121,1.9145,1.9302,1.9708,2.0273,2.067,2.0961,2.1568,2.2432,2.3134,2.3962,2.4701,2.5236,2.587,2.6385,2.64,2.6347,2.6241,2.6168,2.5901,2.5848,2.6079,2.6236,2.6518,2.7061,2.6962,2.7101,2.8024,2.8412,2.854,2.8757,2.8858,2.8851,2.8514,2.8245,2.8,2.7932,2.811,2.8207,2.7929,2.757,2.7293,2.6913,2.6223,2.5604,2.5197,2.5183,2.5046,2.4189,2.3554,2.2944,2.1811,2.0815,2.0361,2.0237,2.033,1.991,1.8964,1.8065,1.7332,3.3807,3.3726,3.3538,3.3268,3.305,3.297,3.2862,3.2669,3.2619,3.2553,3.2435,3.2298,3.1519,3.0442,2.9881,2.8478,2.6389,2.5974,2.591,2.5889,2.528,2.4937,2.4759,2.3904,2.3069,2.2532,2.2016,2.1172,2.0304,2.0526,2.0041,1.8907,1.9902,2.0607,2.0792,2.171,2.2656,2.3504,2.3414,2.334,2.339,2.2833,2.2613,2.2676,2.2399,2.1797,2.0947,2.0454,2.017,2.0065,1.9818,1.9654,1.9472,1.9124,1.919,1.9653,1.9319,1.9435,2.0114,2.0611,2.1102,2.1639,2.251,2.3317,2.3912,2.4522,2.5008,2.5246,2.5427,2.5589,2.5855,2.5815,2.5905,2.6241,2.6099,2.6043,2.6283,2.6667,2.7247,2.786,2.791,2.8223,2.8784,2.896,2.8978,2.9442,2.9339,2.9028,2.8748,2.8367,2.8207,2.7947,2.7963,2.7815,2.763,2.7509,2.728,2.7086,2.6593,2.617,2.5807,2.5647,2.5517,2.4984,2.4337,2.3478,2.2361,2.1542,2.0981,2.0366,2.0006,1.9346,1.8473,1.785,1.739,3.3643,3.3486,3.3142,3.2862,3.2601,3.2433,3.2247,3.2022,3.1845,3.17,3.1482,3.093,3.0203,2.9299,2.8682,2.7428,2.5701,2.5606,2.5742,2.5726,2.4695,2.4266,2.4102,2.3107,2.2091,2.1385,2.0917,2.0066,1.8943,1.9221,1.8773,1.7831,1.8614,1.966,2.0354,2.124,2.2386,2.3591,2.3296,2.2998,2.2923,2.255,2.242,2.2604,2.2725,2.2583,2.2133,2.1404,2.0819,2.065,2.0594,2.0524,2.0145,1.9819,1.9883,2.0059,1.9809,1.9792,2.0741,2.1094,2.15,2.2263,2.3122,2.3759,2.4139,2.4601,2.4895,2.4902,2.4973,2.5098,2.5368,2.5351,2.5637,2.6501,2.6426,2.6495,2.6728,2.7321,2.7959,2.85,2.8596,2.8999,2.9477,2.9443,2.9232,2.9641,2.9438,2.8795,2.8511,2.8155,2.7894,2.763,2.7444,2.7342,2.7444,2.7321,2.7196,2.7034,2.6886,2.657,2.6271,2.6329,2.63,2.5303,2.4549,2.3607,2.2508,2.1654,2.1015,2.037,1.9909,1.9649,1.9239,1.8521,1.7957,3.3494,3.3148,3.2583,3.2316,3.2213,3.1756,3.1482,3.1408,3.1053,3.0603,2.9995,2.9026,2.7997,2.7195,2.626,2.5422,2.5025,2.4831,2.4623,2.4163,2.3082,2.2285,2.2451,2.1979,2.1223,2.0471,1.9936,1.902,1.7722,1.7776,1.7501,1.72,1.7101,1.7958,1.952,1.9927,2.1062,2.2593,2.2249,2.1978,2.1825,2.1671,2.1755,2.2259,2.2464,2.2666,2.262,2.2193,2.1766,2.147,2.1719,2.1561,2.0948,2.0767,2.0759,2.084,2.0228,2.0669,2.1476,2.1814,2.2054,2.2742,2.3378,2.3739,2.3797,2.4112,2.4364,2.4385,2.4553,2.4813,2.4902,2.5171,2.5809,2.6941,2.7138,2.7192,2.7712,2.8194,2.8743,2.9204,2.9173,2.9186,3.0245,2.9972,2.9657,2.9467,2.9287,2.8685,2.8076,2.781,2.7321,2.713,2.7063,2.7063,2.7218,2.7115,2.6989,2.6989,2.6832,2.664,2.6328,2.6361,2.6312,2.5408,2.4517,2.3589,2.2857,2.2033,2.132,2.0742,2.05,2.044,1.9727,1.8741,1.779,3.4951,3.4684,3.3086,3.2225,3.1882,3.1036,3.0508,3.0285,3.0143,2.9512,2.8774,2.8358,2.7046,2.5629,2.516,2.4193,2.2942,2.2551,2.1921,2.1171,2.024,2.055,2.1339,2.1146,2.0204,1.9016,1.8533,1.771,1.6719,1.6842,1.6673,1.6275,1.6093,1.6522,1.7767,1.8815,1.9975,2.1409,2.2443,2.2229,2.16,2.1505,2.124,2.0656,2.0798,2.0737,2.0616,2.1355,2.1762,2.1642,2.1741,2.1777,2.147,2.144,2.1605,2.1874,2.1584,2.1695,2.2679,2.269,2.278,2.3308,2.3661,2.3839,2.3638,2.3809,2.3894,2.3852,2.3917,2.4177,2.4601,2.5513,2.6918,2.854,2.8505,2.8421,2.8765,2.9042,2.9417,3.0005,3.0013,3.017,3.0201,3.0156,2.9853,2.9837,2.9467,2.8919,2.8271,2.7894,2.7675,2.7181,2.7041,2.6989,2.6937,2.6884,2.6832,2.6832,2.6674,2.6433,2.5986,2.5618,2.5467,2.5037,2.4269,2.3392,2.3077,2.2573,2.1906,2.0696,1.9933,1.9309,1.8844,1.7994,1.7118,3.541,3.5147,3.334,3.2206,3.151,3.0679,3.0018,2.9361,2.8717,2.815,2.7444,2.6234,2.5064,2.387,2.2992,2.1971,2.0802,2.0647,2.0298,1.9792,1.9351,1.957,2.004,1.9782,1.8988,1.8104,1.7575,1.691,1.6296,1.6275,1.6104,1.5931,1.5526,1.585,1.695,1.7463,1.8546,1.9674,2.0545,2.0424,2.0102,2.0102,1.9851,1.9457,1.9597,1.976,1.9772,2.0974,2.1686,2.1695,2.2211,2.2601,2.2184,2.2113,2.2278,2.2679,2.2214,2.2445,2.326,2.3247,2.3299,2.3743,2.3925,2.3867,2.3867,2.3822,2.3724,2.4066,2.4038,2.4487,2.5475,2.6958,2.8402,2.9425,2.9928,2.9909,2.9559,2.9809,3.0013,3.021,3.0342,3.0368,3.0215,3.007,3.0027,2.9837,2.9438,2.9012,2.8591,2.8334,2.786,2.7218,2.6712,2.6539,2.6258,2.6096,2.6096,2.6165,2.5756,2.5632,2.5315,2.4754,2.4284,2.3981,2.3631,2.3217,2.2603,2.1868,2.0749,1.9694,1.8844,1.824,1.7833,1.712,1.628,3.5479,3.5092,3.3571,3.2153,3.0912,3.0346,2.9263,2.8181,2.699,2.6352,2.5652,2.3257,2.1813,2.1616,1.9222,1.8451,1.8251,1.7715,1.8328,1.8292,1.8481,1.8713,1.835,1.8486,1.812,1.7595,1.7052,1.6375,1.5811,1.5702,1.5633,1.5342,1.505,1.54,1.593,1.6115,1.6907,1.8042,1.8289,1.8283,1.8395,1.8419,1.8312,1.8151,1.8701,1.9147,1.9535,2.0518,2.1076,2.0777,2.3007,2.3459,2.2858,2.2772,2.2828,2.2798,2.2697,2.2803,2.3251,2.3239,2.3422,2.3773,2.3681,2.3824,2.4009,2.387,2.3904,2.426,2.4633,2.5368,2.6929,2.8786,2.9668,3.0139,3.1136,3.084,3.0202,3.0419,3.0593,2.975,3.013,2.9984,2.9853,2.9897,3.0027,2.9483,2.9104,2.8779,2.8448,2.8076,2.753,2.6878,2.6404,2.5974,2.5632,2.53,2.53,2.53,2.461,2.4297,2.4173,2.3651,2.2952,2.2603,2.2737,2.2127,2.1014,2.0204,1.9573,1.89,1.822,1.7609,1.6982,1.6062,1.5147,3.69,3.6593,3.4057,3.1683,2.9715,2.8709,2.7225,2.5366,2.4915,2.4089,2.2997,2.043,1.8413,1.7016,1.4665,1.2799,1.2778,1.2714,1.2878,1.4755,1.6087,1.6462,1.6615,1.7174,1.7694,1.712,1.6243,1.5501,1.5004,1.4745,1.4392,1.4103,1.4103,1.3855,1.3999,1.4955,1.5756,1.6697,1.7583,1.7909,1.7773,1.7795,1.7501,1.7045,1.7246,1.7346,1.7599,1.8502,1.9047,1.9724,2.1769,2.3389,2.3212,2.3298,2.334,2.3338,2.332,2.3065,2.2656,2.3126,2.3241,2.2996,2.3736,2.4036,2.3754,2.4079,2.4008,2.409,2.4372,2.5938,2.8165,2.834,2.9631,3.0982,3.104,3.0499,3.0071,3.0245,3.0123,2.9705,2.9454,2.9257,2.8889,2.9212,2.9257,2.9074,2.8779,2.8448,2.8158,2.7879,2.7276,2.6669,2.6457,2.6082,2.5412,2.5007,2.4597,2.4355,2.3598,2.3075,2.2952,2.2675,2.2029,2.1942,2.2151,2.1227,2.002,1.9694,1.9243,1.8489,1.7522,1.6618,1.5703,1.4854,1.3757,3.7257,3.6517,3.4512,3.2595,3.08,2.9108,2.665,2.3838,2.2005,2.0316,1.8311,1.5951,1.438,1.3389,1.1513,1.0329,0.9979,0.9764,1.0279,1.1465,1.2459,1.2848,1.2899,1.3847,1.4542,1.5659,1.5602,1.4967,1.4604,1.3986,1.3673,1.3519,1.3329,1.3277,1.2989,1.3682,1.4241,1.4809,1.5739,1.6381,1.669,1.6768,1.6856,1.6477,1.6488,1.6534,1.6684,1.7698,1.8258,1.8911,2.0647,2.2292,2.2847,2.3289,2.3551,2.3595,2.3809,2.3709,2.3448,2.3691,2.4112,2.3601,2.4292,2.4446,2.4446,2.461,2.464,2.4838,2.5677,2.7113,2.9639,3.0054,3.0844,3.1601,3.1623,3.0982,3.0606,3.0227,2.9569,2.9042,2.8889,2.8654,2.8574,2.8654,2.8654,2.8559,2.8288,2.7997,2.8061,2.7715,2.7174,2.6669,2.6578,2.619,2.5412,2.4768,2.3995,2.3454,2.2688,2.2212,2.1892,2.1557,2.1158,2.1055,2.0812,2.0333,1.932,1.9121,1.8623,1.7668,1.6627,1.5492,1.4339,1.3259,1.2084,3.7025,3.6029,3.4887,3.3654,3.2018,2.9165,2.5758,2.2247,1.8563,1.5746,1.3195,1.0966,0.9597,0.9301,0.7487,0.7315,0.7563,0.8083,0.7838,0.8644,0.9485,0.9786,0.9769,1.0104,1.1134,1.3893,1.3837,1.3723,1.3567,1.3307,1.2861,1.3018,1.3042,1.2805,1.2736,1.2744,1.3139,1.3777,1.3948,1.4483,1.5264,1.5517,1.5884,1.6306,1.6431,1.6431,1.6581,1.7246,1.785,1.8001,1.916,2.0364,2.1492,2.2639,2.3508,2.3566,2.3909,2.3794,2.3636,2.4184,2.4728,2.5073,2.5121,2.4965,2.4982,2.5042,2.5237,2.5863,2.6735,2.8338,3.0785,3.081,3.1405,3.2091,3.2144,3.1585,3.1021,2.9966,2.8763,2.8336,2.8352,2.8238,2.8091,2.8107,2.8091,2.8076,2.7815,2.76,2.76,2.7515,2.6901,2.6736,2.6645,2.6379,2.5646,2.3272,2.2687,2.2493,2.1732,2.0842,2.0353,1.9619,1.9138,1.9312,1.9079,1.87,1.8297,1.7881,1.7257,1.6567,1.5404,1.403,1.2809,1.1668,1.0318,3.659,3.6173,3.5045,3.3228,3.0472,2.5854,2.2492,1.8987,1.441,1.175,1.0349,0.6332,0.4054,0.3261,-0.0676,-0.1293,0.0987,0.2492,0.4155,0.5635,0.6783,0.7463,0.7393,0.748,0.8351,0.9196,1.0124,1.0808,1.1381,1.1457,1.1659,1.1832,1.2203,1.2274,1.2313,1.2375,1.2821,1.3327,1.3415,1.3872,1.4519,1.5177,1.5652,1.6249,1.6316,1.6374,1.6374,1.6581,1.6684,1.6842,1.7904,1.9004,2.0252,2.1566,2.2622,2.3406,2.3681,2.3565,2.3172,2.3764,2.3606,2.3374,2.4415,2.4871,2.4686,2.5124,2.5878,2.6238,2.7289,2.8831,3.0583,3.0636,3.0942,3.1399,3.0926,2.9966,2.9907,2.913,2.8354,2.8354,2.8143,2.7845,2.776,2.7625,2.7625,2.756,2.7408,2.7004,2.682,2.6797,2.6602,2.6645,2.6779,2.6394,2.5934,2.2817,2.0934,2.1128,2.0381,1.8833,1.8208,1.7357,1.7033,1.7133,1.7406,1.7425,1.7023,1.6627,1.5913,1.513,1.3807,1.2417,1.0947,0.9622,0.85,3.5938,3.5659,3.487,3.3846,3.2078,2.8417,2.3414,1.7912,1.2282,0.721,0.295,-0.1238,-0.2926,-0.3106,-0.4564,-0.5011,-0.3434,-0.2361,-0.0836,0.0688,0.214,0.3217,0.3766,0.4315,0.456,0.5005,0.6013,0.7768,0.9108,0.9822,1.0182,1.0635,1.1337,1.1939,1.2168,1.2233,1.2648,1.3108,1.3157,1.3354,1.4061,1.4893,1.5594,1.5836,1.6249,1.6374,1.6374,1.6374,1.6431,1.6524,1.7045,1.8258,1.952,2.0637,2.1857,2.3201,2.3566,2.3537,2.3231,2.3994,2.4254,2.4667,2.5521,2.6108,2.623,2.6844,2.7202,2.776,2.8003,2.9437,3.1005,3.0577,3.0768,3.0997,3.0286,2.9805,2.95,2.8639,2.8418,2.8386,2.7883,2.7494,2.7372,2.7284,2.7196,2.7093,2.6922,2.6457,2.5972,2.5849,2.5672,2.5108,2.4983,2.4689,2.4094,2.1774,1.9695,1.977,1.8979,1.7358,1.6347,1.5685,1.5105,1.479,1.5143,1.5625,1.5948,1.5545,1.4617,1.3526,1.1885,1.033,0.8844,0.758,0.644,3.4921,3.4088,3.4428,3.4301,3.3137,2.8115,2.2135,1.5521,0.7302,0.0257,-0.5383,-0.8436,-0.923,-0.8665,-0.8354,-0.7899,-0.6482,-0.6105,-0.5064,-0.3772,-0.2389,-0.1549,-0.0623,0.0313,0.1566,0.2422,0.296,0.4599,0.6741,0.7911,0.8408,0.8894,1.0,1.1129,1.1397,1.1884,1.23,1.2741,1.2933,1.3132,1.377,1.4708,1.5303,1.5362,1.5961,1.6316,1.6134,1.6316,1.6374,1.6509,1.6906,1.7799,1.9443,2.0142,2.1369,2.317,2.3569,2.3797,2.4024,2.4449,2.4989,2.5617,2.6487,2.7225,2.7735,2.7932,2.869,2.9576,2.9782,2.9966,3.1009,3.1083,3.0834,3.0566,3.0369,2.9976,2.9262,2.8576,2.7966,2.7784,2.7363,2.7071,2.6893,2.64,2.6187,2.5767,2.5604,2.4996,2.4576,2.452,2.4152,2.3216,2.2718,2.2454,2.1653,2.0281,1.8913,1.8685,1.7446,1.5756,1.4909,1.426,1.3598,1.2853,1.2732,1.3222,1.3841,1.4086,1.2933,1.1537,0.9814,0.8458,0.7259,0.573,0.4353,3.3127,3.0463,3.3156,3.3608,2.9352,1.7449,1.1286,0.8259,-0.3866,-1.0788,-1.1933,-1.2878,-1.3401,-1.2958,-1.317,-1.2254,-1.0633,-0.9194,-0.7798,-0.6204,-0.4775,-0.3478,-0.2095,-0.1092,0.0078,0.0784,0.1333,0.25,0.4296,0.5654,0.6198,0.671,0.815,0.904,0.9528,1.1391,1.2632,1.2773,1.3193,1.3607,1.3941,1.463,1.4827,1.5112,1.5683,1.6257,1.6065,1.6318,1.6498,1.6514,1.7288,1.8345,1.9542,2.0749,2.218,2.3349,2.3763,2.3596,2.3964,2.4602,2.5302,2.6083,2.6771,2.7265,2.7939,2.8542,2.9181,2.9724,3.0079,3.0434,3.0908,3.1015,3.0788,3.0336,2.988,2.9294,2.8623,2.7519,2.707,2.6643,2.6008,2.6279,2.6322,2.5713,2.5163,2.4689,2.4222,2.3619,2.2934,2.2611,2.2237,2.1183,2.0482,2.0217,1.9834,1.8395,1.736,1.7216,1.6165,1.4291,1.2687,1.1866,1.179,1.1187,1.0843,1.0376,1.0683,1.0781,1.0519,0.929,0.7382,0.6554,0.596,0.4271,0.2181,1.9703,2.2328,1.8172,1.5947,1.4284,0.6849,0.2098,-0.1994,-0.9398,-1.4684,-1.7175,-1.9488,-1.9357,-1.7639,-1.6633,-1.5462,-1.4331,-1.2964,-1.1449,-0.9421,-0.7722,-0.6007,-0.4565,-0.3184,-0.1715,-0.0625,-0.0078,0.0627,0.2097,0.3629,0.4589,0.4941,0.6988,0.8182,0.8029,1.0805,1.171,1.2128,1.2758,1.3637,1.3908,1.444,1.488,1.5157,1.6052,1.6407,1.6658,1.69,1.6984,1.6929,1.7265,1.8148,1.9364,2.0565,2.187,2.388,2.4317,2.4442,2.4716,2.5213,2.5742,2.6514,2.7371,2.8196,2.8806,2.9368,2.9798,3.0153,3.0385,3.0593,3.0675,3.0733,3.0418,2.9989,2.9432,2.8779,2.7905,2.648,2.5671,2.5218,2.4759,2.4829,2.4772,2.4165,2.3677,2.356,2.2934,2.225,2.1008,1.976,1.9381,1.8878,1.8282,1.7957,1.7687,1.6849,1.5211,1.4915,1.5303,1.3136,1.0199,0.9175,0.9295,0.8401,0.7163,0.7015,0.7419,0.7403,0.7071,0.6083,0.487,0.3787,0.2704,0.1314,-0.0853,0.3922,0.8772,0.4304,0.2244,0.1405,-0.2409,-0.6462,-1.041,-1.5924,-1.9721,-2.2196,-2.4396,-2.3655,-2.136,-1.9167,-1.7925,-1.7801,-1.6372,-1.5171,-1.3408,-1.137,-0.9155,-0.743,-0.5692,-0.3649,-0.195,-0.1327,-0.0391,0.0862,0.2031,0.2879,0.3119,0.533,0.6378,0.7277,0.9596,1.1596,1.2424,1.337,1.3787,1.3937,1.4438,1.4767,1.5283,1.6036,1.6806,1.7149,1.7575,1.741,1.7315,1.7643,1.8521,1.9498,2.0823,2.2146,2.3871,2.463,2.5634,2.5886,2.6242,2.6423,2.7149,2.8178,2.9108,3.0037,3.0468,3.0468,3.0435,3.0452,3.0468,3.051,3.051,3.0225,2.9717,2.9118,2.8401,2.754,2.6019,2.4983,2.4689,2.4037,2.2733,2.2552,2.2201,2.2067,2.2238,2.1725,2.0831,1.9371,1.7581,1.7104,1.6821,1.5514,1.4965,1.4426,1.4009,1.2806,1.2281,1.2646,1.1449,0.816,0.7056,0.7239,0.588,0.3801,0.3484,0.377,0.3703,0.3633,0.2929,0.2001,0.0309,-0.1008,-0.2327,-0.3857,-1.1806,-1.1589,-0.1988,0.0324,-0.1983,-1.1479,-1.6052,-1.7753,-2.5434,-2.8605,-2.8372,-2.7111,-2.5241,-2.3599,-2.1542,-2.0217,-2.0112,-1.8012,-1.7069,-1.6102,-1.4544,-1.2064,-1.0075,-0.7798,-0.541,-0.28,-0.2182,-0.1172,0.0235,0.0706,0.1097,0.1409,0.3635,0.388,0.5248,0.8123,1.1427,1.2769,1.4049,1.4229,1.4279,1.4517,1.4748,1.4562,1.5569,1.6437,1.6019,1.7216,1.7812,1.7698,1.8278,1.8881,1.9627,2.1245,2.2782,2.3837,2.5508,2.6624,2.741,2.697,2.6702,2.7426,2.8415,2.9512,3.0269,3.0452,3.0468,3.0468,3.0443,3.0468,3.0468,3.0426,3.0097,2.9673,2.8965,2.8115,2.7062,2.5492,2.4563,2.4266,2.3196,2.1661,2.0997,2.0692,2.0415,2.0583,1.9316,1.8358,1.7446,1.6027,1.5536,1.4782,1.287,1.1774,1.0777,1.0035,0.9332,0.8951,0.8976,0.7626,0.5369,0.5087,0.4757,0.2686,0.0616,0.0308,-0.0077,-0.0384,-0.046,-0.023,-0.0999,-0.3001,-0.4461,-0.5533,-0.7187,-2.258,-2.2855,-1.9409,-1.86,-1.9786,-2.5165,-2.7396,-2.7737,-3.0939,-3.1725,-3.0569,-2.8168,-2.6615,-2.5474,-2.3869,-2.267,-2.2298,-2.0017,-1.9023,-1.7398,-1.5506,-1.3393,-1.1516,-0.9776,-0.7355,-0.5271,-0.4119,-0.2728,-0.1485,-0.047,0.0236,0.1019,0.2265,0.2422,0.388,0.6608,1.0068,1.2417,1.3875,1.4466,1.4506,1.4638,1.5055,1.5822,1.6057,1.7206,1.7764,1.8232,1.8328,1.8301,1.8623,1.8984,1.9618,2.1479,2.2775,2.4014,2.5916,2.7639,2.8155,2.7631,2.7186,2.7661,2.842,2.9116,2.9976,3.0311,3.0452,3.0443,3.0359,3.0316,3.0468,3.0241,2.9881,2.954,2.8841,2.7875,2.6526,2.4942,2.3548,2.2959,2.1525,1.9976,1.9607,1.9431,1.9135,1.8783,1.7316,1.5877,1.5051,1.415,1.3482,1.227,1.0307,0.9109,0.8244,0.7195,0.6066,0.56,0.5217,0.3599,0.1992,0.1905,0.1216,-0.084,-0.2527,-0.3293,-0.3908,-0.4523,-0.4368,-0.3677,-0.4741,-0.6734,-0.7895,-0.8876,-1.0336,-2.8571,-2.9313,-3.0415,-3.1038,-3.1549,-3.3222,-3.3972,-3.39,-3.3644,-3.2711,-3.0857,-2.9312,-2.8077,-2.6908,-2.5546,-2.4363,-2.3658,-2.2079,-2.0951,-1.9219,-1.7186,-1.4973,-1.3301,-1.1378,-0.8969,-0.7512,-0.6207,-0.4585,-0.3191,-0.1563,-0.0939,-0.0156,0.1329,0.1488,0.2417,0.546,0.9075,1.1273,1.3331,1.4561,1.4561,1.4625,1.4895,1.6044,1.6513,1.7192,1.7996,1.8512,1.8837,1.8682,1.8731,1.8903,1.9839,2.102,2.2414,2.4055,2.6134,2.8388,2.8357,2.8137,2.7905,2.8545,2.813,2.8778,2.9436,3.011,3.0452,3.0251,3.0172,3.0179,3.0333,3.0017,2.9853,2.954,2.8119,2.6973,2.5742,2.4259,2.273,2.1475,2.016,1.9187,1.8633,1.8432,1.7726,1.7366,1.6489,1.4696,1.2891,1.1919,1.0869,0.9363,0.7555,0.6659,0.5835,0.439,0.2857,0.1304,0.0766,-0.0382,-0.1528,-0.1594,-0.2121,-0.381,-0.5433,-0.6742,-0.7572,-0.808,-0.7576,-0.6768,-0.8275,-0.984,-1.1083,-1.2045,-1.3114,-2.9033,-3.0316,-3.0627,-3.1016,-3.1698,-3.3049,-3.3961,-3.4248,-3.4015,-3.3023,-3.1603,-3.076,-2.955,-2.7957,-2.6674,-2.5548,-2.46,-2.369,-2.2761,-2.1409,-1.8968,-1.7321,-1.5323,-1.2942,-1.0237,-0.8049,-0.69,-0.6046,-0.4884,-0.2882,-0.2264,-0.1563,-0.0156,0.0863,0.1332,0.5536,0.8926,1.112,1.302,1.4027,1.4178,1.433,1.4848,1.5409,1.6175,1.6941,1.7687,1.8442,1.8793,1.8951,1.893,1.9055,1.9339,2.156,2.2393,2.2198,2.6301,2.8367,2.864,2.8685,2.9026,2.9154,2.8498,2.8545,2.9207,2.9805,3.0369,3.017,3.0064,2.9978,2.9907,2.9786,2.9738,2.8886,2.7409,2.5887,2.4611,2.3431,2.1798,2.0512,1.9738,1.8931,1.8172,1.7482,1.6498,1.5869,1.5313,1.3742,1.1493,0.9829,0.8777,0.6814,0.4999,0.3455,0.2543,0.1166,-0.0312,-0.2095,-0.3315,-0.3986,-0.4966,-0.5554,-0.6245,-0.7195,-0.8673,-1.0302,-1.1016,-1.1579,-1.1278,-1.1269,-1.1388,-1.2601,-1.3927,-1.5118,-1.6129,-3.1063,-3.1431,-3.2004,-3.2456,-3.287,-3.3576,-3.4073,-3.4347,-3.4211,-3.3563,-3.2552,-3.1899,-3.1083,-2.9605,-2.7799,-2.6466,-2.5548,-2.4021,-2.3292,-2.2384,-2.0178,-1.8238,-1.6187,-1.3915,-1.1464,-0.9487,-0.8206,-0.7359,-0.6583,-0.4119,-0.2728,-0.2031,-0.0627,0.0393,0.1486,0.4097,0.6139,0.7425,0.9983,1.2417,1.2642,1.3715,1.4768,1.5196,1.5895,1.6585,1.7413,1.824,1.8654,1.8998,1.9131,1.9131,1.9497,2.1459,2.2883,2.3758,2.7423,3.0398,3.1166,3.1463,3.0256,2.955,2.879,2.8715,2.9512,2.9087,2.9567,3.0137,2.9989,2.9874,2.9806,2.9473,2.9058,2.7671,2.6202,2.4598,2.3198,2.2068,2.0808,1.9781,1.8942,1.8317,1.7619,1.6636,1.5658,1.4791,1.4219,1.2622,1.0524,0.8477,0.6893,0.4699,0.2712,0.0774,-0.0777,-0.1555,-0.3019,-0.4844,-0.5828,-0.6504,-0.7568,-0.906,-1.0109,-1.0991,-1.2453,-1.3851,-1.4253,-1.4722,-1.573,-1.6073,-1.5575,-1.5286,-1.6173,-1.7523,-1.8837,-3.217,-3.2127,-3.2716,-3.3147,-3.3415,-3.3668,-3.398,-3.4321,-3.4466,-3.4036,-3.3175,-3.2599,-3.1706,-3.048,-2.9013,-2.7125,-2.6136,-2.4883,-2.3531,-2.2677,-2.0888,-1.8754,-1.6637,-1.4598,-1.2324,-1.0542,-0.921,-0.8358,-0.8206,-0.4963,-0.2882,-0.1486,-0.047,0.0236,0.133,0.2948,0.4548,0.5835,0.8244,1.066,1.142,1.2629,1.3996,1.4958,1.5754,1.6315,1.7276,1.7901,1.8317,1.8865,1.9131,1.9131,1.9792,2.0951,2.2571,2.4204,2.6826,3.0212,3.2406,3.2495,3.121,3.0336,2.927,2.9159,2.9545,2.9037,2.9451,2.9848,2.9848,2.9649,2.946,2.9137,2.8512,2.7175,2.554,2.3936,2.2752,2.1675,2.0149,1.911,1.8529,1.7833,1.6922,1.5799,1.4816,1.3939,1.3055,1.1292,0.9394,0.7275,0.4917,0.2551,0.0621,-0.1239,-0.2704,-0.378,-0.5457,-0.7501,-0.8468,-0.9134,-1.1107,-1.2734,-1.3739,-1.464,-1.5627,-1.6478,-1.7197,-1.7866,-1.844,-1.8843,-1.8809,-1.8629,-1.8665,-1.9565,-2.09,-3.2239,-3.2351,-3.2684,-3.2957,-3.3178,-3.3465,-3.3817,-3.4279,-3.4686,-3.4337,-3.3459,-3.3159,-3.2188,-3.0679,-2.9796,-2.8249,-2.6309,-2.5398,-2.4323,-2.3135,-2.1685,-1.9415,-1.7264,-1.5306,-1.3179,-1.136,-1.0056,-0.9593,-0.9674,-0.6736,-0.3577,-0.1174,-0.0627,-0.0157,0.0938,0.2178,0.3405,0.4243,0.6059,0.8463,1.004,1.1267,1.294,1.4219,1.5338,1.6105,1.6932,1.756,1.824,1.8787,1.9131,1.9131,1.9552,2.0395,2.0871,2.2555,2.5761,2.9872,3.2691,3.2688,3.2449,3.1585,2.9873,2.9922,2.9847,2.9355,2.9436,2.9569,2.9528,2.9273,2.9029,2.8826,2.8606,2.7054,2.5392,2.3993,2.2811,2.1428,1.9727,1.8808,1.8385,1.7619,1.6358,1.5242,1.4106,1.3121,1.1911,0.9612,0.7727,0.5689,0.3242,0.031,-0.1552,-0.3091,-0.4548,-0.6211,-0.8094,-1.0279,-1.1205,-1.2084,-1.4293,-1.5722,-1.6069,-1.6757,-1.8175,-1.9154,-1.9951,-2.0385,-2.0723,-2.107,-2.1319,-2.0728,-2.0328,-2.1276,-2.2347,-3.299,-3.2446,-3.3075,-3.3397,-3.3522,-3.4054,-3.4448,-3.4666,-3.4862,-3.465,-3.4222,-3.3504,-3.2594,-3.1636,-3.0218,-2.8665,-2.714,-2.5753,-2.4724,-2.361,-2.2628,-2.0452,-1.836,-1.6392,-1.4222,-1.2231,-1.0887,-1.0363,-0.975,-0.7584,-0.4966,-0.234,-0.1563,-0.1018,0.0078,0.1016,0.1484,0.2334,0.4167,0.628,0.8533,1.0051,1.1945,1.378,1.4776,1.5604,1.6664,1.7079,1.7823,1.8854,1.9065,1.9131,1.9198,2.1214,2.316,2.7566,3.0273,3.2624,3.3515,3.3478,3.3176,3.2657,3.1085,3.0182,3.0175,2.9798,2.9362,2.95,2.8966,2.8479,2.8446,2.8383,2.7947,2.674,2.5067,2.3618,2.237,2.0785,1.9177,1.8529,1.8182,1.706,1.5737,1.4681,1.3608,1.2464,1.0781,0.8337,0.6139,0.4169,0.2249,-0.0623,-0.3247,-0.4693,-0.7405,-0.9363,-1.1101,-1.2774,-1.3603,-1.4489,-1.6033,-1.7166,-1.7783,-1.8771,-2.007,-2.144,-2.2795,-2.3022,-2.3052,-2.3364,-2.3521,-2.2722,-2.2238,-2.2927,-2.3696,-3.3556,-3.2985,-3.3515,-3.3707,-3.3662,-3.4311,-3.4655,-3.4739,-3.4931,-3.4885,-3.4686,-3.4016,-3.3045,-3.1847,-3.0566,-2.9066,-2.7244,-2.5767,-2.4681,-2.4002,-2.3424,-2.094,-1.8916,-1.7206,-1.492,-1.2802,-1.126,-1.0594,-0.9976,-0.8353,-0.5813,-0.2804,-0.2574,-0.1486,-0.0392,0.0314,0.0314,0.0939,0.2178,0.4013,0.628,0.8613,1.096,1.3027,1.3867,1.5251,1.6315,1.6655,1.755,1.8586,1.8787,1.9131,1.9684,2.1971,2.4463,2.8224,3.0417,3.2222,3.3385,3.3205,3.3158,3.2925,3.2166,3.1048,2.9665,2.8801,2.9255,2.962,2.8434,2.756,2.7745,2.7795,2.7115,2.6381,2.4776,2.3132,2.1614,2.0084,1.9156,1.8442,1.7482,1.6367,1.5251,1.4129,1.2785,1.131,0.9399,0.7052,0.4852,0.2869,0.1323,-0.0625,-0.3627,-0.6191,-0.9045,-1.1674,-1.3316,-1.4514,-1.5345,-1.6441,-1.7803,-1.8979,-1.9899,-2.0854,-2.181,-2.3094,-2.4297,-2.498,-2.5232,-2.53,-2.4964,-2.42,-2.3592,-2.3761,-2.4627,-3.4027,-3.3692,-3.4018,-3.3906,-3.3616,-3.4311,-3.4624,-3.4668,-3.4922,-3.4999,-3.4874,-3.4414,-3.3247,-3.1829,-3.0823,-2.9237,-2.7425,-2.5835,-2.4838,-2.4118,-2.3424,-2.1498,-1.9404,-1.7427,-1.554,-1.3158,-1.1477,-1.0743,-1.0271,-0.8964,-0.6809,-0.3265,-0.3036,-0.2261,-0.0862,-0.0078,0.0079,0.0314,0.1018,0.2335,0.4394,0.6587,0.8851,1.1353,1.3092,1.4673,1.5683,1.6524,1.7207,1.7969,1.8586,1.9065,2.1078,2.225,2.4755,2.7363,2.9939,3.1703,3.3045,3.3176,3.2737,3.2786,3.2895,3.1793,3.0443,2.9857,3.0555,2.9055,2.774,2.7284,2.7386,2.7473,2.7056,2.6115,2.4761,2.3463,2.2226,2.0437,1.87,1.7969,1.6991,1.5877,1.4966,1.3905,1.2652,1.0627,0.8107,0.5765,0.3938,0.1868,-0.0311,-0.1636,-0.4459,-0.7609,-1.0448,-1.2927,-1.4923,-1.6175,-1.7055,-1.8471,-1.9931,-2.1065,-2.2152,-2.2747,-2.3272,-2.4359,-2.5425,-2.592,-2.6136,-2.5728,-2.5453,-2.5287,-2.5063,-2.4964,-2.5384,-3.4661,-3.4277,-3.4379,-3.4314,-3.4292,-3.4736,-3.498,-3.5048,-3.5,-3.5002,-3.4894,-3.4358,-3.3247,-3.169,-3.0902,-2.942,-2.7663,-2.5903,-2.505,-2.4394,-2.3649,-2.22,-2.0242,-1.8171,-1.6213,-1.4387,-1.259,-1.0968,-1.0657,-0.9814,-0.8737,-0.6499,-0.5266,-0.342,-0.172,0.0,0.0,0.0,0.0471,0.1562,0.3557,0.4925,0.6814,0.9829,1.2251,1.3678,1.4988,1.6455,1.7207,1.7969,1.8731,2.0534,2.3271,2.3323,2.5948,2.9536,3.0251,3.1835,3.2913,3.3449,3.3176,3.2559,3.2509,3.2314,3.2031,3.2064,3.1045,2.8853,2.7548,2.7299,2.7055,2.7078,2.6864,2.5807,2.4592,2.3593,2.2588,2.0456,1.8307,1.7345,1.6428,1.5517,1.4601,1.3513,1.2338,1.0043,0.7143,0.4786,0.3401,0.1397,-0.2537,-0.4232,-0.6039,-0.8882,-1.1649,-1.4151,-1.6139,-1.7668,-1.8731,-2.0253,-2.1872,-2.2949,-2.3807,-2.4066,-2.4681,-2.5439,-2.6002,-2.6433,-2.6472,-2.6122,-2.6054,-2.5932,-2.6094,-2.604,-2.64,-3.5078,-3.4717,-3.4605,-3.4548,-3.4623,-3.4971,-3.513,-3.5097,-3.5074,-3.5018,-3.4917,-3.4317,-3.3164,-3.155,-3.0793,-2.9469,-2.7674,-2.5903,-2.5231,-2.4667,-2.3682,-2.247,-2.071,-1.8796,-1.6838,-1.5014,-1.2517,-1.1037,-1.0893,-1.0582,-0.9578,-0.7956,-0.6259,-0.4419,-0.2649,0.0,0.0,0.0,0.0,0.1094,0.2715,0.3863,0.5831,0.8846,1.0954,1.2608,1.4625,1.6167,1.701,1.7765,1.8519,1.9498,2.1919,2.362,2.6005,2.8821,3.0659,3.2402,3.3358,3.3762,3.3597,3.2798,3.278,3.2859,3.1411,3.1289,3.1305,2.9403,2.856,2.8216,2.7174,2.6937,2.6254,2.5287,2.3399,2.1801,2.0079,1.8034,1.6844,1.6367,1.5517,1.4649,1.373,1.2865,1.1211,0.7988,0.5248,0.3486,0.2174,0.0775,-0.3147,-0.6191,-0.7613,-0.9485,-1.1959,-1.4646,-1.7319,-1.8818,-2.0202,-2.151,-2.2807,-2.4315,-2.5384,-2.5203,-2.537,-2.5893,-2.6447,-2.6832,-2.675,-2.639,-2.6481,-2.664,-2.6849,-2.7093,-2.7384,-3.5393,-3.5074,-3.4856,-3.4767,-3.4799,-3.5116,-3.5204,-3.5104,-3.5105,-3.5055,-3.4955,-3.4484,-3.2933,-3.1516,-3.0696,-2.9115,-2.753,-2.5889,-2.5287,-2.4781,-2.3695,-2.2786,-2.126,-1.9295,-1.6924,-1.4678,-1.2391,-1.1471,-1.1043,-1.0807,-1.0034,-0.8406,-0.6565,-0.4573,-0.2957,0.0,0.0,0.0,0.0157,0.0236,0.1328,0.264,0.5075,0.7409,0.967,1.2025,1.4124,1.5824,1.6733,1.7482,1.8355,1.9663,2.1096,2.3484,2.5834,2.8301,3.0837,3.2468,3.3652,3.3807,3.3299,3.2895,3.3328,3.2691,3.115,3.0465,3.0472,2.9998,2.9146,2.8279,2.7195,2.6351,2.5549,2.4269,2.2127,1.9949,1.7898,1.6123,1.5799,1.5455,1.4514,1.3643,1.2531,1.1668,0.929,0.6013,0.3793,0.2177,0.0623,-0.0853,-0.3471,-0.6125,-0.7917,-1.0013,-1.2841,-1.5418,-1.8429,-1.9738,-2.1043,-2.236,-2.3715,-2.5007,-2.5825,-2.5825,-2.6002,-2.6394,-2.6712,-2.7093,-2.6907,-2.6811,-2.7195,-2.755,-2.7635,-2.7883,-2.8176,-3.5593,-3.5572,-3.5571,-3.5566,-3.5554,-3.5599,-3.5548,-3.5425,-3.5197,-3.5055,-3.4899,-3.4508,-3.325,-3.1074,-3.0813,-2.9485,-2.7434,-2.5892,-2.5342,-2.4951,-2.3754,-2.31,-2.1844,-1.949,-1.6258,-1.4078,-1.2485,-1.1848,-1.1192,-1.1037,-1.0812,-1.0034,-0.6942,-0.526,-0.4419,0.0,0.0,-0.0079,0.0,0.0,0.0,0.1715,0.3861,0.6053,0.808,1.1022,1.3655,1.6018,1.6664,1.7345,1.8277,1.9867,2.1476,2.3221,2.5639,2.7966,3.0503,3.2107,3.3042,3.2852,3.2214,3.3187,3.3151,3.2042,3.064,2.9458,2.9298,2.8925,2.8139,2.7289,2.6332,2.5591,2.4745,2.2723,2.0637,1.8339,1.6209,1.55,1.5108,1.4371,1.3411,1.1985,1.0244,0.898,0.7239,0.4411,0.2719,0.1092,-0.0233,-0.2093,-0.4022,-0.65,-0.8812,-1.2168,-1.5574,-1.7011,-1.9357,-2.0662,-2.1992,-2.3276,-2.4526,-2.5632,-2.6218,-2.6165,-2.6433,-2.6832,-2.7093,-2.7284,-2.766,-2.7715,-2.8158,-2.8448,-2.848,-2.8528,-2.8779]},{"header":{"parameterUnit":"m.s-1","parameterCategory":1,"la1":31.0,"la2":29.5877,"lo1":-88.7671,"lo2":-86.6584,"dy":0.0162,"dx":0.0185,"nx":115,"ny":88,"refTime":"2024-07-20T18:00:00:Z","depth":0,"parameterNumber":3,"parameterNumberName":"V-component_of_WINDS"},"data":[0.0,0.0,0.0,0.0,0.0,0.0,0.0,0.0,0.0,0.0,0.0,0.0,0.0,0.0,0.0,0.0,0.0,0.0,0.0,0.0,0.0,0.0,0.0,0.0,0.0,0.0,0.0,0.0,0.0,0.0,0.0,0.0,0.0,0.0,0.0,0.0,0.0,0.0,0.0,0.0,0.0,0.0,0.0,0.0,0.0,0.0,0.0,0.0,0.0,0.0,0.0,0.0,0.0,0.0,0.0,0.0,0.0,0.0,0.0,0.0,0.0,0.0,0.0,0.0,0.0,0.0,0.0,0.0,0.0,0.0,0.0,0.0,0.0,0.0,0.0,0.0,0.0,0.0,0.0,0.0,0.0,0.0,0.0,0.0,0.0,0.0,0.0,0.0,0.0,0.0,0.0,0.0,0.0,0.0,0.0,0.0,0.0,0.0,0.0,0.0,0.0,0.0,0.0,0.0,0.0,0.0,0.0,0.0,0.0,0.0,0.0,0.0,0.0,0.0,0.0,0.0,0.0,0.0,0.0,0.0,0.0,0.0,0.0,0.0,0.0,0.0,0.0,0.0,0.0,0.0,0.0,0.0,0.0,0.0,0.0,0.0,0.0,0.0,0.0,0.0,0.0,0.0,0.0,0.0,0.0,0.0,0.0,0.0,0.0,0.0,0.0,0.0,0.0,0.0,0.0,0.0,0.0,0.0,0.0,0.0,0.0,0.0,0.0,0.0,0.0,0.0,0.0,0.0,0.0,0.0,0.0,0.0,0.0,0.0,0.0,0.0,0.0,0.0,0.0,0.0,0.0,0.0,0.0,0.0,0.0,0.0,0.0,0.0,0.0,0.0,0.0,0.0,0.0,0.0,0.0,0.0,0.0,0.0,0.0,0.0,0.0,0.0,0.0,0.0,0.0,0.0,0.0,0.0,0.0,0.0,0.0,0.0,0.0,0.0,0.0,0.0,0.0,0.0,0.0,0.0,0.0,0.0,0.0,0.0,0.0,0.0,0.0,0.0,0.0,0.0,0.0,0.0,0.0,0.0,0.0,0.0,0.0,0.0,0.0,0.0,0.0,0.0,0.0,0.0,0.0,0.0,0.0,0.0,0.0,0.0,0.0,0.0,0.0,0.0,0.0,0.0,0.0,0.0,0.0,0.0,0.0,0.0,0.0,0.0,0.0,0.0,0.0,0.0,0.0,0.0,0.0,0.0,0.0,0.0,0.0,0.0,0.0,0.0,0.0,0.0,0.0,0.0,0.0,0.0,0.0,0.0,0.0,0.0,0.0,0.0,0.0,0.0,0.0,0.0,0.0,0.0,0.0,0.0,0.0,0.0,0.0,0.0,0.0,0.0,0.0,0.0,0.0,0.0,0.0,0.0,0.0,0.0,0.0,0.0,0.0,0.0,0.0,0.0,0.0,0.0,0.0,0.0,0.0,0.0,0.0,0.0,0.0,0.0,0.0,0.0,0.0,0.0,0.0,0.0,0.0,0.0,0.0,0.0,0.0,0.0,0.0,0.0,0.0,0.0,0.0,0.0,0.0,0.0,0.0,0.0,0.0,0.0,0.0,0.0,0.0,0.0,0.0,0.0,0.0,0.0,0.0,0.0,0.0,0.0,0.0,0.0,0.0,0.0,0.0,0.0,0.0,0.0,0.0,0.0,0.0,0.0,0.0,0.0,0.0,0.0,0.0,0.0,0.0,0.0,0.0,0.0,0.0,0.0,0.0,0.0,0.0,0.0,0.0,0.0,0.0,0.0,0.0,0.0,0.0,0.0,0.0,0.0,0.0,0.0,0.0,0.0,0.0,0.0,0.0,0.0,0.0,0.0,0.0,0.0,0.0,0.0,0.0,0.0,0.0,0.0,0.0,0.0,0.0,0.0,0.0,0.0,0.0,0.0,0.0,0.0,0.0,0.0,0.0,0.0,0.0,0.0,0.0,0.0,0.0,0.0,0.0,0.0,0.0,0.0,0.0,0.0,0.0,0.0,0.0,0.0,0.0,0.0,0.0,0.0,0.0,0.0,0.0,0.0,0.0,0.0,0.0,0.0,0.0,0.0,0.0,0.0,0.0,0.0,0.0,0.0,0.0,0.0,0.0,0.0,0.0,0.0,0.0,0.0,0.0,0.0,0.0,0.0,0.0,0.0,0.0,0.0,0.0,0.0,0.0,0.0,0.0,0.0,0.0,0.0,0.0,0.0,0.0,0.0,0.0,0.0,0.0,0.0,0.0,0.0,0.0,0.0,0.0,0.0,0.0,0.0,0.0,0.0,0.0,0.0,0.0,0.0,0.0,0.0,0.0,0.0,0.0,0.0,0.0,0.0,0.0,0.0,0.0,0.0,0.0,0.0,0.0,0.0,0.0,0.0,0.0,0.0,0.0,0.0,0.0,0.0,0.0,0.0,0.0,0.0,0.0,0.0,0.0,0.0,0.0,0.0,0.0,0.0,0.0,0.0,0.0,0.0,0.0,0.0,0.0,0.0,0.0,0.0,0.0,0.0,0.0,0.0,0.0,0.0,0.0,0.0,0.0,0.0,0.0,0.0,0.0,0.0,0.0,0.0,0.0,0.0,0.0,0.0,0.0,0.0,0.0,0.0,0.0,0.0,0.0,0.0,0.0,0.0,0.0,0.0,0.0,0.0,0.0,0.0,0.0,0.0,0.0,0.0,0.0,0.0,0.0,0.0,0.0,0.0,0.0,0.0,0.0,0.0,0.0,0.0,0.0,0.0,0.0,0.0,0.0,0.0,0.0,0.0,0.0,0.0,0.0,0.0,0.0,0.0,0.0,0.0,0.0,0.0,0.0,0.0,0.0,0.0,0.0,0.0,0.0,0.0,0.0,0.0,0.0,0.0,0.0,0.0,0.0,0.0,0.0,0.0,0.0,0.0,0.0,0.0,0.0,0.0,0.0,0.0,0.0,0.0,0.0,0.0,0.0,0.0,0.0,0.0,0.0,0.0,0.0,0.0,0.0,0.0,0.0,0.0,0.0,0.0,0.0,0.0,0.0,0.0,0.0,0.0,0.0,0.0,0.0,0.0,0.0,0.0,0.0,0.0,0.0,0.0,0.0,0.0,0.0,0.0,0.0,0.0,0.0,0.0,0.0,0.0,0.0,0.0,0.0,0.0,0.0,0.0,0.0,0.0,0.0,0.0,0.0,0.0,0.0,0.0,0.0,0.0,0.0,0.0,0.0,0.0,0.0,0.0,0.0,0.0,0.0,0.0,0.0,0.0,0.0,0.0,0.0,0.0,0.0,0.0,0.0,0.0,0.0,0.0,0.0,0.0,0.0,0.0,0.0,0.0,0.0,0.0,0.0,0.0,0.0,0.0,0.0,0.0,0.0,0.0,0.0,0.0,0.0,0.0,0.0,0.0,0.0,0.0,0.0,0.0,0.0,0.0,0.0,0.0,0.0,0.0,0.0,0.0,0.0,0.0,0.0,0.0,0.0,0.0,0.0,0.0,0.0,0.0,0.0,0.0,0.0,0.0,0.0,0.0,0.0,0.0,0.0,0.0,0.0,0.0,0.0,0.0,0.0,0.0,0.0,0.0,0.0,0.0,0.0,0.0,0.0,0.0,0.0,0.0,0.0,0.0,0.0,0.0,0.0,0.0,0.0,0.0,0.0,0.0,0.0,0.0,0.0,0.0,0.0,0.0,0.0,0.0,0.0,0.0,0.0,0.0,0.0,0.0,0.0,0.0,0.0,0.0,0.0,0.0,0.0,0.0,0.0,0.0,0.0,0.0,0.0,0.0,0.0,0.0,0.0,0.0,0.0,0.0,0.0,0.0,0.0,0.0,0.0,0.0,0.0,0.0,0.0,0.0,0.0,0.0,0.0,0.0,0.0,0.0,0.0,0.0,0.0,0.0,0.0,0.0,0.0,0.0,0.0,0.0,0.0,0.0,0.0,0.0,0.0,0.0,0.0,0.0,0.0,0.0,0.0,0.0,0.0,0.0,0.0,0.0,0.0,0.0,0.0,0.0,0.0,0.0,0.0,0.0,0.0,0.0,0.0,0.0,0.0,0.0,0.0,0.0,0.0,0.0,0.0,0.0,0.0,0.0,0.0,0.0,0.0,0.0,0.0,0.0,0.0,0.0,0.0,0.0,0.0,0.0,0.0,0.0,0.0,0.0,0.0,0.0,0.0,0.0,0.0,0.0,0.0,0.0,0.0,0.0,0.0,0.0,0.0,0.0,0.0,0.0,0.0,0.0,0.0,0.0,0.0,0.0,0.0,0.0,0.0,0.0,0.0,0.0,0.0,0.0,0.0,0.0,0.7219,0.0,0.0,0.0,0.0,0.0,0.0,0.0,0.0,0.0,0.0,0.0,0.0,0.0,0.0,0.0,0.0,0.0,0.0,0.0,0.0,0.0,0.0,0.0,0.0,0.0,0.0,0.0,0.0,0.0,0.0,0.0,0.0,0.0,0.0,0.0,0.0,0.0,0.0,0.0,0.0,0.0,0.0,0.0,0.0,0.0,0.0,0.0,0.0,0.0,0.0,0.0,0.0,0.0,0.0,0.0,0.0,0.0,0.0,0.0,0.0,0.0,0.0,0.0,0.0,0.0,0.0,0.0,0.0,0.0,0.0,0.0,0.0,0.0,0.0,0.0,0.0,0.0,0.0,0.0,0.0,0.0,0.0,0.0,0.0,0.0,0.0,0.0,0.0,0.0,0.0,0.0,0.0,0.0,0.0,0.0,0.0,0.0,0.0,0.0,0.0,0.0,0.0,0.0,0.0,0.0,0.0,0.0,0.0,0.0,0.0,0.6183,0.6379,0.6535,0.6778,0.7123,0.0,0.0,0.0,0.0,0.0,0.0,0.0,0.0,0.0,0.0,0.0,0.0,0.0,0.0,0.0,0.0,0.0,0.0,0.0,0.0,0.0,0.0,0.0,0.0,0.0,0.0,0.0,0.0,0.0,0.0,0.0,0.0,0.0,0.0,0.0,0.0,0.0,0.0,0.0,0.0,0.0,0.0,0.0,0.0,0.0,0.0,0.0,0.0,0.0,0.0,0.0,0.0,0.0,0.0,0.0,0.0,0.0,0.0,0.0,0.0,0.0,0.0,0.0,0.0,0.0,0.0,0.0,0.0,0.0,0.0,0.0,0.0,0.0,0.0,0.0,0.0,0.0,0.0,0.0,0.0,0.0,0.0,0.0,0.0,0.0,0.0,0.0,0.0,0.0,0.0,0.0,0.0,0.0,0.0,0.0,0.0,0.0,0.0,0.0,0.0,0.0,0.0,0.0,0.0,0.0,0.0,0.0,0.0,0.0,0.0,0.0,0.0,0.6619,0.6876,0.7243,0.0,0.0,0.0,0.0,0.0,0.0,0.0,0.0,0.0,0.0,0.0,0.0,0.0,0.0,0.0,0.0,0.0,0.0,0.0,0.0,0.0,0.0,0.0,0.0,0.0,0.0,0.0,0.0,0.0,0.0,0.0,0.0,0.0,0.0,0.0,0.0,0.0,0.0,0.0,0.0,0.0,0.0,0.0,0.0,0.0,0.0,0.0,0.0,0.0,0.0,0.0,0.0,0.0,0.0,0.0,0.0,0.0,0.0,0.0,0.0,0.0,0.0,0.0,0.0,0.0,0.0,0.0,0.0,0.0,0.0,0.0,0.0,0.0,0.0,0.0,0.0,0.0,0.0,0.0,0.0,0.0,0.0,0.0,0.0,0.0,0.0,0.0,0.0,0.0,0.0,0.0,0.0,0.0,0.0,0.0,0.0,0.0,0.0,0.0,0.0,0.0,0.0,0.0,0.0,0.0,0.0,0.0,0.0,0.0,0.0,0.6056,0.6727,0.6779,0.0,0.7627,0.0,0.0,0.0,0.0,0.0,0.0,0.0,0.0,0.0,0.0,0.0,0.0,0.0,0.0,0.0,0.0,0.0,0.0,0.0,0.0,0.0,0.0,0.0,0.0,0.0,0.0,0.0,0.0,0.0,0.0,0.0,0.0,0.0,0.0,0.0,0.0,0.0,0.0,0.0,0.0,0.0,0.0,0.0,0.0,0.0,0.0,0.0,0.0,0.0,0.0,0.0,0.0,0.0,0.0,0.0,0.0,0.0,0.0,0.0,0.0,0.0,0.0,0.0,0.0,0.0,0.0,0.0,0.0,0.0,0.0,0.0,0.0,0.0,0.0,0.0,0.0,0.0,0.0,0.0,0.0,0.0,0.0,0.0,0.0,0.0,0.0,0.0,0.0,0.0,0.0,0.0,0.0,0.0,0.0,0.0,0.0,0.0,0.0,0.0,0.0,0.0,0.0,0.0,0.0,0.0,0.0,0.0,0.0,0.0,0.0,0.0,0.6799,0.7071,0.7381,0.0,0.0,0.0,0.0,0.0,0.0,0.0,0.0,0.0,0.0,0.0,0.0,0.0,0.0,0.0,0.0,0.0,0.0,0.0,0.0,0.0,0.0,0.0,0.0,0.0,0.0,0.0,0.0,0.0,0.0,0.0,0.0,0.0,0.0,0.0,0.0,0.0,0.0,0.0,0.0,0.0,0.0,0.0,0.0,0.0,0.0,0.0,0.0,0.0,0.0,0.0,0.0,0.0,0.0,0.0,0.0,0.0,0.0,0.0,0.0,0.0,0.0,0.0,0.0,0.0,0.0,0.0,0.0,0.0,0.0,0.0,0.0,0.0,0.0,0.0,0.0,0.0,0.0,0.0,0.0,0.0,0.0,0.0,0.0,0.0,0.0,0.0,0.0,0.0,0.0,0.0,0.0,0.0,0.0,0.0,0.0,0.0,0.0,0.0,0.0,0.0,0.0,0.0,0.0,0.0,0.0,0.0,0.0,0.0,0.0,0.6263,0.0,0.6897,0.7364,0.7629,0.7662,0.0,0.0,0.0,0.0,0.0,0.0,0.0,0.0,0.0,0.0,0.0,0.0,0.0,0.0,0.0,0.0,0.0,0.0,0.0,0.0,0.0,0.0,0.0,0.0,0.0,0.0,0.0,0.0,0.0,0.0,0.0,0.0,0.0,0.0,0.0,0.0,0.0,0.0,0.0,0.0,0.0,0.0,0.0,0.0,0.0,0.0,0.0,0.0,0.0,0.0,0.0,0.0,0.0,0.0,0.0,0.0,0.0,0.0,0.0,0.0,0.0,0.0,0.0,0.0,0.0,0.0,0.0,0.0,0.0,0.0,0.0,0.0,0.0,0.0,0.0,0.0,0.0,0.0,0.0,0.0,0.0,0.0,0.0,0.0,0.0,0.0,0.0,0.0,0.0,0.0,0.0,0.0,0.0,0.0,0.0,0.0,0.0,0.0,0.0,0.0,0.0,0.0,0.0,0.0,0.0,0.0,0.0,0.0,0.0,0.6358,0.6587,0.7179,0.7618,0.7726,0.0,0.0,0.0,0.0,0.0,0.0,0.0,0.0,0.0,0.0,0.0,0.0,0.0,0.0,0.0,0.0,0.0,0.0,0.0,0.0,0.0,0.0,0.0,0.0,0.0,0.0,0.0,0.0,0.0,0.0,0.0,0.0,0.0,0.0,0.0,0.0,0.0,0.0,0.0,0.0,0.0,0.0,0.0,0.0,0.0,0.0,0.0,0.0,0.0,0.0,0.0,0.0,0.0,0.0,0.0,0.0,0.0,0.0,0.0,0.0,0.0,0.0,0.0,0.0,0.0,0.0,0.0,0.0,0.0,0.0,0.0,0.0,0.0,0.0,0.0,0.0,0.0,0.0,0.0,0.0,0.0,0.0,0.0,0.0,0.0,0.0,0.0,0.0,0.0,0.0,0.0,0.0,0.0,0.0,0.0,0.0,0.0,0.0,0.0,0.0,0.0,0.0,0.0,0.0,0.0,0.0,0.0,0.0,0.0,0.5786,0.6129,0.6826,0.7908,0.7558,0.7505,0.0,0.0,0.0,0.0,0.0,0.0,0.0,0.0,0.0,0.0,0.0,0.0,0.0,0.0,0.0,0.0,0.0,0.0,0.0,0.0,0.0,0.0,0.0,0.0,0.0,0.0,0.0,0.0,0.0,0.0,0.0,0.0,0.0,0.0,0.0,0.0,0.0,0.0,0.0,0.0,0.0,0.0,0.0,0.0,0.0,0.0,0.0,0.0,0.0,0.0,0.0,0.0,0.0,0.0,0.0,0.0,0.0,0.0,0.0,0.0,0.0,0.0,0.0,0.0,0.0,0.0,0.0,0.0,0.0,0.0,0.0,0.0,0.0,0.0,0.0,0.0,0.0,0.0,0.0,0.0,0.0,0.0,0.0,0.0,0.0,0.0,0.0,0.0,0.0,0.0,0.0,0.0,0.0,0.0,0.0,0.0,0.0,0.0,0.0,0.0,0.0,0.0,0.0,0.0,0.0,0.0,0.0,0.0,0.0,0.5889,0.0,0.7269,0.0,0.7526,0.7383,0.0,0.0,0.0,0.0,0.0,0.0,0.0,0.0,0.0,0.0,0.0,0.0,0.0,0.0,0.0,0.0,0.0,0.0,0.0,0.0,0.0,0.0,0.0,0.0,0.0,0.0,0.0,0.0,0.0,0.0,0.0,0.0,0.0,0.0,0.0,0.0,0.0,0.0,0.0,0.0,0.0,0.0,0.0,0.0,0.0,0.0,0.0,0.0,0.0,0.0,0.0,0.0,0.0,0.0,0.0,0.0,0.0,0.0,0.0,0.0,0.0,0.0,0.0,0.0,0.0,0.0,0.0,0.0,0.0,0.0,0.0,0.0,0.0,0.0,0.0,0.0,0.0,0.0,0.0,0.0,0.0,0.0,0.0,0.0,0.0,0.0,0.0,0.0,0.0,0.0,0.0,0.0,0.0,0.0,0.0,0.0,0.0,0.0,0.0,0.0,0.0,0.0,0.0,0.0,0.0,0.0,0.0,0.0,0.5693,0.6832,0.7642,0.7833,0.7451,0.7588,0.7262,0.0,0.0,0.0,0.0,0.0,0.0,0.0,0.0,0.0,0.0,0.0,0.0,0.0,0.0,0.0,0.0,0.0,0.0,0.0,0.0,0.0,0.0,0.0,0.0,0.0,0.0,0.0,0.0,0.0,0.0,0.0,0.0,0.0,0.0,0.0,0.0,0.0,0.0,0.0,0.0,0.0,0.0,0.0,0.0,0.0,0.0,0.0,0.0,0.0,0.0,0.0,0.0,0.0,0.0,0.0,0.0,0.0,0.0,0.0,0.0,0.0,0.0,0.0,0.0,0.0,0.0,0.0,0.0,0.0,0.0,0.0,0.0,0.0,0.0,0.0,0.0,0.0,0.0,0.0,0.0,0.0,0.0,0.0,0.0,0.0,0.0,0.0,0.0,0.0,0.0,0.0,0.0,0.0,0.0,0.0,0.0,0.0,0.0,0.0,0.0,0.0,0.0,0.0,0.0,0.0,0.0,0.0,0.0,0.0,0.6099,0.7039,0.7831,0.8375,0.7588,0.7412,0.0,0.0,0.0,0.0,0.0,0.0,0.0,0.0,0.0,0.0,0.0,0.0,0.0,0.0,0.0,0.0,0.0,0.0,0.0,0.0,0.0,0.0,0.0,0.0,0.0,0.0,0.0,0.0,0.0,0.0,0.0,0.0,0.0,0.0,0.0,0.0,0.0,0.0,0.0,0.0,0.0,0.0,0.0,0.0,0.0,0.0,0.0,0.0,0.0,0.0,0.0,0.0,0.0,0.0,0.0,0.0,0.0,0.0,0.0,0.0,0.0,0.0,0.0,0.0,0.0,0.0,0.0,0.0,0.0,0.0,0.0,0.0,0.0,0.0,0.0,0.0,0.0,0.0,0.0,0.0,0.0,0.0,0.0,0.0,0.0,0.0,0.0,0.0,0.0,0.0,0.0,0.0,0.0,0.0,0.0,0.0,0.0,0.0,0.0,0.0,0.0,0.0,0.0,0.0,0.0,0.0,0.0,0.0,0.0,0.6607,0.7582,0.838,0.8894,0.7944,0.7662,0.8103,0.0,0.0,0.0,0.0,0.0,0.0,0.0,0.0,0.0,0.0,0.0,0.0,0.0,0.0,0.0,0.0,0.0,0.0,0.0,0.0,0.0,0.0,0.0,0.0,0.0,0.0,0.0,0.0,0.0,0.0,0.0,0.0,0.0,0.0,0.0,0.0,0.0,0.0,0.0,0.0,0.0,0.0,0.0,0.0,0.0,0.0,0.0,0.0,0.0,0.0,0.0,0.0,0.0,0.0,0.0,0.0,0.0,0.0,0.0,0.0,0.0,0.0,0.0,0.0,0.0,0.0,0.0,0.0,0.0,0.0,0.0,0.0,0.0,0.0,0.0,0.0,0.0,0.0,0.0,0.0,0.0,0.0,0.0,0.0,0.0,0.0,0.0,0.0,0.0,0.0,0.0,0.0,0.0,0.0,0.0,0.0,0.0,0.0,0.0,0.0,0.0,0.0,0.0,0.0,0.0,0.0,0.0,0.0,0.8065,0.9044,0.9374,0.9063,0.8619,0.8028,0.0,0.0,0.0,0.0,0.0,0.0,0.0,0.0,0.0,0.0,0.0,0.0,0.0,0.0,0.0,0.0,0.0,0.0,0.0,0.0,0.0,0.0,0.0,0.0,0.0,0.0,0.0,0.0,0.0,0.0,0.0,0.0,0.0,0.0,0.0,0.0,0.0,0.0,0.0,0.0,0.0,0.0,0.0,0.0,0.0,0.0,0.0,0.0,0.0,0.0,0.0,0.0,0.0,0.0,0.0,0.0,0.0,0.0,0.0,0.0,0.0,0.0,0.0,0.0,0.0,0.0,0.0,0.0,0.0,0.0,0.0,0.0,0.0,0.0,0.0,0.0,0.0,0.0,0.0,0.0,0.0,0.0,0.0,0.0,0.0,0.0,0.0,0.0,0.0,0.0,0.0,0.0,0.0,0.0,0.0,0.0,0.0,0.0,0.0,0.0,0.0,0.0,0.0,0.0,0.0,0.0,0.0,0.0,0.0,0.8967,0.9805,1.0321,1.0408,0.9744,0.9214,0.0,0.0,0.0,0.0,0.0,0.0,0.0,0.0,0.0,0.0,0.0,0.0,0.0,0.0,0.0,0.0,0.0,0.0,0.0,0.0,0.0,0.0,0.0,0.0,0.0,0.0,0.0,0.0,0.0,0.0,0.0,0.0,0.0,0.0,0.0,0.0,0.0,0.0,0.0,0.0,0.0,0.0,0.0,0.0,0.0,0.0,0.0,0.0,0.0,0.0,0.0,0.0,0.0,0.0,0.0,0.0,0.0,0.0,0.0,0.0,0.0,0.0,0.0,0.0,0.0,0.0,0.0,0.0,0.0,0.0,0.0,0.0,0.0,0.0,0.0,0.0,0.0,0.0,0.0,0.0,0.0,0.0,0.0,0.0,0.0,0.0,0.0,0.0,0.0,0.0,0.0,0.0,0.0,0.0,0.0,0.0,0.0,0.0,0.0,0.0,0.0,0.0,0.0,0.0,0.0,0.0,0.0,0.0,0.8793,0.996,1.0974,1.1678,1.199,1.1049,1.0161,0.0,0.0,0.0,0.0,0.0,0.0,0.0,0.0,0.0,0.0,0.0,0.0,0.0,0.0,0.0,0.0,0.0,0.0,0.0,0.0,0.0,0.0,0.0,0.0,0.0,0.0,0.0,0.0,0.0,0.0,0.0,0.0,0.0,0.0,0.0,0.0,0.0,0.0,0.0,0.0,0.0,0.0,0.0,0.0,0.0,0.0,0.0,0.0,0.0,0.0,0.0,0.0,0.0,0.0,0.0,0.0,0.0,0.0,0.0,0.0,0.0,0.0,0.0,0.0,0.0,0.0,0.0,0.0,0.0,0.0,0.0,0.0,0.0,0.0,0.0,0.0,0.0,0.0,0.0,0.0,0.0,0.0,0.0,0.0,0.0,0.0,0.0,0.0,0.0,0.0,0.0,0.0,0.0,0.0,0.0,0.0,0.0,0.0,0.0,0.0,0.0,0.0,0.0,0.0,0.0,0.0,0.0,0.0,0.9555,1.1037,1.2307,1.3173,1.354,1.2435,1.1015,0.0,0.0,0.0,0.0,0.0,0.0,0.0,0.0,0.0,0.0,0.0,0.0,0.0,0.0,0.0,0.0,0.0,0.0,0.0,0.0,0.0,0.0,0.0,0.0,0.0,0.0,0.0,0.0,0.0,0.0,0.0,0.0,0.0,0.0,0.0,0.0,0.0,0.0,0.0,0.0,0.0,0.0,0.0,0.0,0.0,0.0,0.0,0.0,0.0,0.0,0.0,0.0,0.0,0.0,0.0,0.0,0.0,0.0,0.0,0.0,0.0,0.0,0.0,0.0,0.0,0.0,0.0,0.0,0.0,0.0,0.0,0.0,0.0,0.0,0.0,0.0,0.0,0.0,0.0,0.0,0.0,0.0,0.0,0.0,0.0,0.0,0.0,0.0,0.0,0.0,0.0,0.0,0.0,0.0,0.0,0.0,0.0,0.0,0.0,0.0,0.0,0.0,0.0,0.0,0.0,0.0,0.0,0.0,1.051,1.1986,1.2958,1.3825,1.4636,1.3447,1.2197,0.0,0.0,0.0,0.0,0.0,0.0,0.0,0.0,0.0,0.0,0.0,0.0,0.0,0.0,0.0,0.0,0.0,0.0,0.0,0.0,0.0,0.0,0.0,0.0,0.0,0.0,0.0,0.0,0.0,0.0,0.0,0.0,0.0,0.0,0.0,0.0,0.0,0.0,0.0,0.0,0.0,0.0,0.0,0.0,0.0,0.0,0.0,0.0,1.0678,0.0,0.0,0.0,0.0,0.0,0.0,0.0,0.0,0.0,0.0,0.0,0.0,0.0,0.0,0.0,0.0,0.0,0.0,0.0,0.0,0.0,0.0,0.0,0.0,0.0,0.0,0.0,0.0,0.0,0.0,0.0,0.0,0.0,0.0,0.0,0.0,0.0,0.0,0.0,0.0,0.0,0.0,0.0,0.0,0.0,0.0,0.0,0.0,0.0,0.0,0.0,0.0,0.0,0.0,0.0,0.0,0.0,0.0,0.0,1.0903,1.2586,1.3508,1.4432,1.5295,1.4432,1.3069,0.0,0.0,0.0,0.0,0.0,0.0,0.0,0.0,0.0,0.0,0.0,0.0,0.0,0.0,0.0,0.0,0.0,0.0,0.0,0.0,0.0,0.0,0.0,0.0,0.0,0.0,0.0,0.0,0.0,0.0,0.0,0.0,0.0,0.0,0.0,0.0,0.0,0.0,0.0,0.0,0.0,0.0,0.0,0.0,0.0,0.0,0.0,0.0,0.0,0.0,0.0,0.0,0.0,0.0,0.0,0.0,0.0,0.0,0.0,0.0,0.0,0.0,0.0,0.0,0.0,0.0,0.0,0.0,0.0,0.0,0.0,0.0,0.0,0.0,0.0,0.0,0.0,0.0,0.0,0.0,0.0,0.0,0.0,0.0,0.0,0.0,0.0,0.0,0.0,0.0,0.0,0.0,0.0,0.0,0.0,0.0,0.0,0.0,0.0,0.0,0.0,0.0,0.0,0.0,0.0,0.0,0.0,0.9553,1.1169,1.3032,1.4112,1.4998,1.5852,1.524,1.3729,1.1292,0.0,0.0,0.0,0.0,0.0,0.0,0.0,0.0,0.0,0.0,0.0,0.0,0.0,0.0,0.0,0.0,0.0,0.0,0.0,0.0,0.0,0.0,0.0,0.0,0.0,0.0,0.0,0.0,0.0,0.0,0.0,0.0,0.0,0.0,0.0,0.0,0.0,0.0,0.7229,0.8692,0.0,0.0,0.0,0.0,0.0,0.0,0.0,0.0,1.1612,0.0,0.0,0.0,0.0,0.0,0.0,0.0,0.0,0.0,0.0,0.0,0.0,0.0,0.0,0.0,0.0,0.0,0.0,0.0,0.0,0.0,0.0,0.0,0.0,0.0,0.0,0.0,0.0,0.0,0.0,0.0,0.0,0.0,0.0,0.0,0.0,0.0,0.0,0.0,0.0,0.0,0.0,0.0,0.0,0.0,0.0,0.0,0.0,0.0,0.0,0.0,0.0,0.0,0.0,0.0,0.0,0.8746,1.0089,1.17,1.3547,1.4865,1.5835,1.6343,1.5442,1.3988,1.2072,0.0,0.0,0.0,0.0,0.0,0.0,0.0,0.0,0.0,0.0,0.0,0.0,0.0,0.0,0.0,0.0,0.0,0.0,0.0,0.0,0.0,0.0,0.0,0.0,0.0,0.0,0.0,0.0,0.0,0.0,0.0,0.0,0.0,0.0,0.0,0.0,0.0,0.0,0.0,1.0311,1.1429,0.0,0.0,0.0,0.0,0.0,0.0,0.0,0.0,1.2197,0.0,0.0,0.0,0.0,0.0,0.0,0.0,0.0,0.0,0.0,0.0,0.0,0.0,0.0,0.0,0.0,0.0,0.0,0.0,0.0,0.0,0.0,0.0,0.0,0.0,0.0,0.0,0.0,0.0,0.0,0.0,0.0,0.0,0.0,0.0,0.0,0.0,0.0,0.0,0.0,0.0,0.0,0.0,0.0,0.0,0.0,0.0,0.0,0.0,0.0,0.0,0.0,0.0,0.0,0.0,0.8488,1.0312,1.2048,1.3639,1.4818,1.5756,1.6429,1.4902,1.3336,0.0,0.0,0.0,0.0,0.0,0.0,0.0,0.0,0.0,0.0,0.0,0.0,0.0,0.0,0.0,0.0,0.0,0.0,0.0,0.0,0.0,0.0,0.0,0.0,0.0,0.0,0.0,0.0,0.0,0.0,0.0,0.0,0.0,0.0,0.0,0.0,0.0,0.0,0.0,0.0,1.0864,1.1761,1.2764,0.0,0.0,0.0,0.0,0.0,0.0,1.2352,1.2408,0.0,0.0,0.0,0.0,0.0,0.0,0.0,0.0,0.0,0.0,0.0,0.0,0.0,0.0,0.0,0.0,0.0,0.0,0.0,0.0,0.0,0.0,0.0,0.0,0.0,0.0,0.0,0.0,0.0,0.0,0.0,0.0,0.0,0.0,0.0,0.0,0.0,0.0,0.0,0.0,0.0,0.0,0.0,0.0,0.0,0.0,0.0,0.0,0.0,0.0,0.0,0.0,0.0,0.0,0.0,0.816,1.0368,1.2283,1.3651,1.4693,1.5568,1.6278,1.4538,1.2904,0.0,0.0,0.0,0.0,0.0,0.0,0.0,0.0,0.0,0.0,0.0,0.0,0.0,0.0,0.0,0.0,0.0,0.0,0.0,0.0,0.0,0.0,0.0,0.0,0.0,0.0,0.0,0.0,0.0,0.0,0.0,0.0,0.0,0.0,0.0,0.0,0.0,0.0,0.0,0.0,0.0,1.2119,1.3436,1.3198,0.0,0.0,0.0,0.0,1.2927,1.2994,0.0,0.0,0.0,0.0,0.0,0.0,0.0,0.0,0.0,0.0,0.0,0.0,0.0,0.0,0.0,0.0,0.0,0.0,0.0,0.0,0.0,0.0,0.0,0.0,0.0,0.0,0.0,0.0,0.0,0.0,0.0,0.0,0.0,0.0,0.0,0.0,0.0,0.0,0.0,0.0,0.0,0.0,0.0,0.0,0.0,0.0,0.0,0.0,0.0,0.0,0.0,0.0,0.0,0.0,0.0,0.0,0.8148,1.0342,1.2217,1.3674,1.4979,1.567,1.5781,1.5065,1.3507,0.0,0.0,0.0,0.0,0.0,0.0,0.0,0.0,0.0,0.0,0.0,0.0,0.0,0.0,0.0,0.0,0.0,0.0,0.0,0.0,0.0,0.0,0.0,0.0,0.0,0.0,0.0,0.0,0.0,0.0,0.0,0.0,0.0,0.0,0.0,0.0,0.0,0.0,0.0,0.0,0.0,1.3356,1.2221,1.3075,1.3682,0.0,0.0,1.3599,1.3982,1.4558,0.0,0.0,0.0,0.0,0.0,0.0,0.0,0.0,0.0,0.0,0.0,0.0,0.0,0.0,0.0,0.0,0.0,0.0,0.0,0.0,0.0,0.0,0.0,0.0,0.0,0.0,0.0,0.0,0.0,0.0,0.0,0.0,0.0,0.0,0.0,0.0,0.0,0.0,0.0,0.0,0.0,0.0,0.0,0.0,0.0,0.0,0.0,0.0,0.0,0.0,0.0,0.0,0.0,0.0,0.0,0.7827,0.8132,1.0606,1.2476,1.3668,1.4535,1.5186,1.5693,1.4551,1.2839,0.0,0.0,0.0,0.0,0.0,0.0,0.0,0.0,0.0,0.0,0.0,0.0,0.0,0.0,0.0,0.0,0.0,0.0,0.0,0.0,0.0,0.0,0.0,0.0,0.0,0.0,0.0,0.0,0.0,0.0,0.0,0.0,0.0,0.0,0.0,0.0,0.0,0.0,0.0,0.0,0.0,0.0,1.3657,1.4023,0.0,0.0,0.0,1.4083,1.4882,0.0,0.0,0.0,0.0,0.0,0.0,0.0,0.0,0.0,0.0,0.0,0.0,0.0,0.0,0.0,0.0,0.0,0.0,0.0,0.0,0.0,0.0,0.0,0.0,0.0,0.0,0.0,0.0,0.0,0.0,0.0,0.0,0.0,0.0,0.0,0.0,0.0,0.0,0.0,0.0,0.0,0.0,0.0,0.0,0.0,0.0,0.0,0.0,0.0,0.0,0.0,0.0,0.0,0.0,0.0,0.0,0.0,0.8045,1.0761,1.2665,1.368,1.4123,1.4694,1.5454,1.4149,0.0,0.0,0.0,0.0,0.0,0.0,0.0,0.0,0.0,0.0,0.0,0.0,0.0,0.0,0.0,0.0,0.0,0.0,0.0,0.0,0.0,0.0,0.0,0.0,0.0,0.0,0.0,0.6141,0.0,0.0,0.0,0.0,0.0,0.0,0.0,0.0,0.0,0.0,0.0,0.0,0.0,0.0,1.4118,1.5094,1.4994,1.4976,0.0,0.0,1.4706,1.5345,1.5751,1.565,0.0,0.0,0.0,0.0,0.0,0.0,0.0,0.0,0.0,0.0,0.0,0.0,0.0,0.0,0.0,0.0,0.0,0.0,0.0,0.0,0.0,0.0,0.0,0.0,0.0,0.0,0.0,0.0,0.0,0.0,0.0,0.0,0.0,0.0,0.0,0.0,0.0,0.0,0.0,0.0,0.0,0.0,0.0,0.0,0.0,0.0,0.0,0.0,0.0,0.0,0.0,0.0,0.0,0.0,0.0,0.8094,1.0709,1.2643,1.3645,1.3972,1.44,1.4941,1.4362,1.2564,0.0,0.0,0.0,0.0,0.0,0.0,0.0,0.0,0.0,0.0,0.0,0.0,0.0,0.0,0.0,0.0,0.0,0.0,0.0,0.0,0.0,0.0,0.0,0.0,0.0,0.0,0.0,0.0,0.0,0.0,0.0,0.0,0.0,0.0,0.0,0.0,0.0,0.0,0.0,0.0,0.0,1.4999,1.5505,1.5702,1.5937,0.0,0.0,1.5825,1.5254,1.6141,1.5946,1.3154,0.0,0.0,0.0,0.0,0.0,0.0,0.0,0.0,0.0,0.0,0.0,0.0,0.0,0.0,0.0,0.0,0.0,0.0,0.0,0.0,0.0,0.0,0.0,0.0,0.0,0.0,0.0,0.0,0.0,0.0,0.0,0.0,0.0,0.0,0.0,0.0,0.0,0.0,0.0,0.0,0.0,0.0,0.0,0.0,0.0,0.0,0.0,0.0,0.0,0.0,0.0,0.0,0.0,0.8223,0.8025,1.071,1.2635,1.3686,1.4033,1.4434,1.4864,1.4702,1.3141,0.0,0.0,0.0,0.0,0.0,0.0,0.0,0.0,0.0,0.0,0.0,0.0,0.0,0.0,0.0,0.0,0.0,0.0,0.0,0.0,0.0,0.0,0.0,0.0,0.0,0.0,0.0,0.0,0.5808,0.576,0.5778,0.0,0.0,0.0,0.0,0.0,0.0,0.0,0.0,0.0,0.0,1.536,1.5586,1.5979,0.0,0.0,1.5903,1.5871,1.6336,1.615,1.5512,1.4191,1.3472,0.0,0.0,0.0,0.0,0.0,0.0,0.0,0.0,0.0,0.0,0.0,0.0,0.0,0.0,0.0,0.0,0.0,0.0,0.0,0.0,0.0,0.0,0.0,0.0,0.0,0.0,0.0,0.0,0.0,0.0,0.0,0.0,0.0,0.0,0.0,0.0,0.0,0.0,0.0,0.0,0.0,0.0,0.0,0.0,0.0,0.0,0.0,0.0,0.0,0.0,0.0,0.0,0.8514,0.8373,1.0956,1.2796,1.3853,1.4118,1.4487,1.4864,1.4752,1.3413,0.0,0.0,0.0,0.0,0.0,0.0,0.0,0.0,0.0,0.0,0.0,0.0,0.0,0.0,0.0,0.0,0.0,0.0,0.0,0.0,0.0,0.0,0.0,0.0,0.0,0.0,0.0,0.0,0.574,0.5776,0.5796,0.0,0.0,0.0,0.0,0.0,0.0,0.0,0.0,0.0,0.0,1.6094,1.6297,1.6558,1.6598,1.6248,1.5861,1.5823,1.6539,1.606,1.5423,1.4893,0.0,0.0,0.0,0.0,0.0,0.0,0.0,0.0,0.0,0.0,0.0,0.0,0.0,0.0,0.0,0.0,0.0,0.0,0.0,0.0,0.0,0.0,0.0,0.0,0.0,0.0,0.0,0.0,0.0,0.0,0.3506,0.0,0.0,0.0,0.0,0.0,0.0,0.0,0.0,0.0,0.0,0.0,0.0,0.0,0.0,0.0,0.0,0.0,0.0,0.0,0.0,0.0,0.0,0.8789,0.9195,1.1518,1.3198,1.4249,1.4261,1.4472,1.4864,1.4387,1.3213,1.1222,0.0,0.0,0.0,0.0,0.0,0.0,0.0,0.0,0.0,0.0,0.0,0.0,0.0,0.0,0.0,0.0,0.0,0.0,0.0,0.0,0.0,0.0,0.0,0.0,0.0,0.0,0.5627,0.5837,0.599,0.0,0.0,0.0,0.0,0.0,0.0,0.0,0.0,0.0,0.0,1.6241,1.7353,1.7851,1.7572,1.7107,1.6714,1.6256,1.5893,1.5553,1.5843,1.5802,0.0,0.0,0.0,0.0,0.0,0.0,0.0,0.0,0.0,0.0,0.0,0.0,0.0,0.0,0.0,0.0,0.0,0.0,0.0,0.0,0.0,0.0,0.0,0.0,0.0,0.0,0.0,0.4934,0.4743,0.0,0.0,0.0,0.0,0.0,0.0,0.0,0.0,0.0,0.0,0.0,1.0167,1.1138,0.0,0.0,0.0,0.0,0.0,0.0,0.0,0.0,0.0,0.0,0.0,0.0,0.8992,0.984,1.2081,1.3748,1.4788,1.5094,1.5094,1.489,1.4727,1.3563,1.1265,0.0,0.0,0.0,0.0,0.0,0.0,0.0,0.0,0.0,0.0,0.0,0.0,0.0,0.0,0.0,0.0,0.0,0.0,0.0,0.0,0.0,0.0,0.0,0.0,0.0,0.6202,0.0,0.0,0.0,0.0,0.0,0.0,0.0,0.0,0.0,0.0,0.0,1.3873,1.5647,1.6534,1.7138,1.7436,1.7047,1.6625,0.0,0.0,0.0,0.0,0.0,0.0,0.0,0.0,0.0,0.0,0.0,0.0,0.0,0.0,1.9924,1.6902,1.5937,1.5629,1.5806,0.0,0.0,0.0,0.0,0.0,0.0,0.0,0.0,0.0,0.0,0.0,0.0,0.0,0.0,0.6315,0.0,0.605,0.0,0.0,0.0,0.0,0.0,0.0,0.0,0.0,1.018,1.1291,1.1745,1.2651,1.2819,0.0,1.1759,1.0877,0.0,0.0,0.0,0.0,0.0,0.0,0.0,0.0,0.9668,1.1012,1.2792,1.4271,1.5249,1.5566,1.5554,1.5178,1.4815,1.3686,1.1703,1.066,0.9615,0.0,0.0,0.0,0.0,0.0,0.0,0.0,0.0,0.0,0.0,0.0,0.0,0.0,0.0,0.0,0.0,0.0,0.0,0.0,0.0,0.0,0.0,0.0,0.6726,0.0,0.0,0.0,0.0,0.0,0.0,0.0,0.0,0.0,1.2908,1.3754,1.4855,1.6449,1.6901,1.7116,1.7133,0.0,0.0,0.0,0.0,0.0,0.0,0.0,1.6273,1.6996,1.6905,1.6886,1.7378,1.8877,2.0035,2.012,0.0,0.0,1.8466,1.7543,1.7292,1.7526,1.7985,1.8444,1.891,1.9864,2.0511,0.0,0.0,0.0,0.0,0.0,0.0,0.0,0.0,0.7662,0.7564,0.0,0.7306,0.0,0.0,0.0,0.0,0.0,0.8065,0.0,0.0,1.1834,1.2822,1.2942,1.3215,1.3668,1.4241,1.3979,1.3557,1.2934,0.9937,0.0,0.0,0.0,0.0,0.0,0.0,1.0806,1.2685,1.3744,1.474,1.5677,1.5783,1.5795,1.568,1.4689,1.3619,1.2517,1.1708,1.0878,0.9967,0.8298,0.0,0.0,0.0,0.0,0.0,0.0,0.0,0.0,0.0,0.0,0.0,0.0,0.0,0.0,0.0,0.0,0.0,0.0,0.0,0.0,0.724,0.0,0.0,0.0,0.0,0.0,0.0,0.0,0.0,0.0,0.0,1.39,1.4621,1.5658,1.7077,0.0,0.0,0.0,0.0,1.6151,1.5748,1.5703,1.5748,1.5836,1.674,1.7463,1.749,0.0,0.0,1.9198,2.0059,2.0639,2.0156,2.1105,2.2056,2.2203,2.1037,2.0448,2.1037,2.0264,1.9746,2.0397,2.0898,2.1131,0.9548,0.0,0.0,0.0,0.0,0.8082,0.8696,0.9821,0.9537,0.9324,0.9238,0.9142,0.0,0.0,0.0,0.0,0.0,0.0,0.9818,1.1172,1.189,1.2807,1.3846,1.3936,1.4082,1.4216,1.3884,1.3792,1.3935,1.2321,1.0585,0.8847,0.0,0.0,0.0,0.0,1.2191,1.3798,1.4762,1.5608,1.6283,1.6293,1.6118,1.5706,1.5054,1.4349,1.3644,1.32,1.2342,1.0949,1.0045,0.0,0.0,0.0,0.0,0.0,0.0,0.0,0.0,0.0,0.0,0.0,0.0,0.0,0.0,0.0,0.0,0.0,0.0,0.0,0.6924,0.7101,0.7681,0.0,0.0,0.0,0.0,0.0,0.0,0.0,0.0,0.0,1.4444,1.5414,1.6268,0.0,0.0,1.6782,1.6416,1.6008,1.5736,1.5715,1.5703,0.0,0.0,1.6637,1.7034,1.7827,1.8855,1.9621,1.9844,2.042,2.0829,2.0877,2.1393,2.1827,2.1869,2.201,2.1969,2.2061,2.1867,2.1823,2.2139,2.229,2.2387,1.1571,1.053,0.93,0.9084,0.951,0.9349,0.9902,1.0882,1.0749,1.0556,1.0312,1.023,0.9735,0.8961,0.8198,0.0,0.0,0.0,1.0226,1.1666,1.2015,1.2758,1.3779,1.3836,1.3978,1.4165,1.3701,1.3768,1.4415,1.3549,1.2254,1.057,0.0,0.0,1.0865,1.1963,1.3253,1.4719,1.5396,1.5957,1.6509,1.6534,1.6258,1.5706,1.5367,1.4878,1.4123,1.3935,1.32,1.1783,1.1137,1.0096,0.0,0.0,0.0,0.0,0.0,0.0,0.0,0.0,0.0,0.0,0.0,0.6515,0.0,0.0,0.0,0.0,0.6945,0.7508,0.8442,0.8905,0.0,0.0,0.0,0.0,0.0,0.0,0.0,1.2381,1.3743,1.4761,1.51,1.5689,1.6262,1.6802,1.657,1.6293,1.6095,0.0,1.5513,1.5537,1.557,1.5792,1.6262,1.6423,1.6866,1.7933,1.8703,1.9369,1.9788,2.0189,2.0545,2.0942,2.134,2.1603,2.1526,2.2015,2.2426,2.2405,2.2569,2.2738,2.2876,2.2902,2.2927,1.3405,1.315,1.0704,1.012,1.0797,1.0757,1.1011,1.1378,1.1443,1.1317,1.1021,1.082,1.0798,1.0839,0.8502,0.0,0.9003,0.9691,1.0557,1.1551,1.2116,1.2608,1.3074,1.3064,1.3399,1.4035,1.3457,1.3579,1.4354,1.3841,1.3292,1.2637,1.2524,1.2677,1.3138,1.3312,1.4069,1.5467,1.5686,1.6007,1.6509,1.6534,1.6271,1.5781,1.5718,1.523,1.4211,1.4147,1.3629,1.2497,1.1802,1.0919,0.9792,0.0,0.0,0.0,0.0,0.0,0.0,0.0,0.0,0.0,0.0,0.0,0.0,0.0,0.0,0.0,0.9511,0.0,1.0795,1.1749,0.0,0.0,0.0,1.2099,1.2294,1.3635,1.432,1.3784,0.0,0.0,1.5635,1.5579,1.5932,1.6782,1.625,1.5836,1.5913,1.5635,1.5435,1.5357,1.539,1.5537,1.5811,1.6323,1.7042,1.8126,1.8588,1.9061,1.9465,1.9713,2.0056,2.0447,2.0991,2.1341,2.131,2.168,2.2044,2.2321,2.2494,2.2659,2.2721,2.2756,2.2825,1.4026,1.3681,1.2788,1.2492,1.2573,1.2077,1.1967,1.2044,1.1535,1.1412,1.1438,1.1035,1.0791,1.0648,0.9964,0.9883,1.031,1.0306,1.0537,1.0973,1.1032,1.1334,1.1909,1.195,1.2304,1.2852,1.2861,1.3142,1.3789,1.3647,1.3684,1.3865,1.3861,1.3433,1.2726,1.3723,1.4653,1.5433,1.5979,1.6298,1.6522,1.6534,1.6459,1.6333,1.5919,1.5419,1.4727,1.4593,1.404,1.3057,1.2896,1.232,1.1169,0.9451,0.0,0.0,0.0,0.0,0.0,0.0,0.0,0.0,0.0,0.8252,0.6583,0.0,0.9658,0.0,1.0752,1.1401,1.0997,1.1645,0.0,0.0,1.2939,1.2862,1.4952,1.4378,1.4068,1.4676,1.5342,1.568,1.5579,1.5579,1.568,1.5932,1.5768,1.5558,1.5322,1.5244,1.521,1.5335,1.5347,1.5542,1.6055,1.6914,1.7911,1.8997,1.933,1.9614,2.0026,2.0129,2.0169,2.0142,2.0465,2.0886,2.1337,2.1472,2.174,2.2116,2.2148,2.2032,2.2044,2.2198,2.2364,1.4378,1.4139,1.3624,1.3363,1.3336,1.2638,1.215,1.188,1.1487,1.1115,1.0853,1.0651,1.0387,1.0201,1.0147,1.0193,1.0286,1.0514,1.0705,1.0845,1.1158,1.1451,1.1769,1.1909,1.2166,1.2529,1.2686,1.2968,1.3296,1.3478,1.3752,1.3978,1.4212,1.3987,1.3355,1.4149,1.4697,1.5005,1.5688,1.6051,1.6107,1.638,1.6311,1.5837,1.572,1.5224,1.4221,1.4297,1.3801,1.2645,1.2627,1.2241,1.1363,1.0119,0.9324,0.0,0.0,0.0,0.0,0.0,0.0,0.0,0.0,0.0,0.0,0.0,1.1439,1.3011,1.2944,1.2782,1.2685,1.3426,1.4485,1.5734,1.4773,1.4678,1.6046,1.533,1.4831,1.5073,1.5412,1.5579,1.5591,1.5668,1.5821,1.5946,1.6009,1.5881,1.5579,1.5636,1.5785,1.5903,1.5891,1.602,1.6429,1.7207,1.8012,1.8549,1.8963,1.9324,1.9768,2.0016,2.0226,2.0398,2.0847,2.1332,2.174,2.1944,2.2127,2.2245,2.2271,2.2037,2.1732,2.1895,2.2124,1.4267,1.4198,1.364,1.339,1.327,1.2505,1.1955,1.1508,1.1279,1.0762,1.0,1.0007,0.9914,0.9686,0.9686,0.9737,0.9891,1.0549,1.0902,1.1048,1.1653,1.2,1.209,1.2252,1.2382,1.2471,1.2725,1.2881,1.2929,1.3296,1.3525,1.3525,1.3894,1.4118,1.4118,1.4236,1.4422,1.4732,1.5276,1.5543,1.5588,1.6107,1.5973,1.5157,1.5397,1.4931,1.36,1.389,1.3465,1.2092,1.2046,1.1853,1.1323,1.081,1.0582,0.0,0.9933,0.0,0.0,0.0,0.0,0.0,0.0,0.0,0.0,1.0727,1.2633,1.681,1.5377,1.4407,1.4903,1.5839,1.6649,1.6995,1.6765,1.6423,1.6057,1.6013,1.5772,1.52,1.5427,1.5619,1.5704,1.5858,1.6028,1.6231,1.642,1.6371,1.6124,1.6272,1.6543,1.6623,1.6681,1.6731,1.69,1.7383,1.7849,1.7958,1.8478,1.8823,1.9354,1.9833,2.03,2.0849,2.1386,2.1918,2.2217,2.249,2.2645,2.2658,2.2618,2.233,2.1891,2.2024,2.222,1.2887,1.2887,1.2757,1.2704,1.2626,1.1951,1.1608,1.1485,1.0946,1.0499,1.0107,1.0033,0.9907,0.9693,0.9686,1.002,1.0508,1.0676,1.0984,1.1471,1.1288,1.145,1.1913,1.1668,1.1877,1.248,1.252,1.2686,1.2891,1.2968,1.3017,1.3017,1.3113,1.3152,1.3152,0.0,0.0,0.0,1.5534,1.5421,1.5599,1.572,1.5684,1.5465,1.5184,0.0,1.4599,1.4287,1.3747,1.3029,1.3498,0.0,0.0,0.0,0.0,0.0,0.0,0.0,0.0,0.0,0.0,0.0,1.2389,1.1757,1.1307,1.2824,1.4734,1.6689,1.6596,1.6226,1.5822,1.6376,1.665,1.633,1.602,1.5635,1.522,1.4926,1.4888,1.5387,1.5479,1.5686,1.6,1.6092,1.6098,1.5947,1.6232,1.6486,1.642,1.6537,1.6596,1.6646,1.6991,1.722,1.7295,1.7816,1.8382,1.8842,1.9383,1.9682,1.9811,2.0292,2.0536,2.0412,2.0781,2.1536,2.217,2.2233,2.2424,2.3048,2.2763,2.2375,2.2368,2.2735,2.3044,1.1928,0.0,1.2143,1.2027,0.0,1.1365,1.1052,1.1059,1.0751,1.0474,1.0341,1.0327,1.0431,1.059,1.059,1.0936,1.1626,1.1705,1.1971,1.224,1.2159,1.2269,1.2592,1.2492,1.2553,1.2783,1.2934,1.2987,1.2939,1.3113,1.3248,1.3258,1.3478,1.3573,1.3573,1.3573,1.4071,1.5017,1.5254,1.5421,1.5588,1.5908,1.5787,1.5336,0.0,0.0,0.0,0.0,0.0,0.0,0.0,0.0,0.0,0.0,0.0,1.3091,1.2435,1.2295,1.2775,1.2789,1.3227,1.4262,1.4287,1.3692,1.2481,1.3955,1.5437,1.6569,1.671,1.6566,1.6132,1.6333,1.6312,1.582,1.5478,1.5222,1.5232,1.496,1.4967,1.5483,1.5582,1.5703,1.5935,1.6188,1.6258,1.6134,1.6579,1.6874,1.6852,1.7011,1.7172,1.7329,1.7553,1.7748,1.7771,1.8212,1.8583,1.8762,1.9423,1.9927,2.0021,2.0663,2.1088,2.1074,2.1554,2.2048,2.2353,2.2549,2.2851,2.3345,2.3275,2.3127,2.3335,2.3227,2.3067,1.1279,1.2166,1.163,1.1365,1.1303,1.0807,1.0618,1.0618,0.0,0.0,0.0,1.0688,1.0989,1.1365,1.1608,1.2035,1.2496,1.2898,1.3057,1.3223,1.3347,1.3396,1.3396,1.3523,1.3478,1.3209,1.334,1.328,1.2998,1.3337,1.3478,1.3525,1.3847,1.4025,1.4082,1.4118,1.4061,1.3862,1.4698,1.5254,1.5454,1.5932,1.5844,1.5097,1.5472,1.5306,1.4425,1.4794,1.4424,1.3203,1.3557,1.3593,1.3143,1.357,1.4174,1.4827,1.4903,1.4966,1.5041,1.5054,1.5065,1.5193,1.558,1.5299,1.4013,1.4866,1.5735,1.6447,1.6405,1.6275,1.6149,1.6086,1.59,1.551,1.521,1.5157,1.5441,1.5274,1.5211,1.5672,1.578,1.5823,1.5942,1.6309,1.6537,1.6537,1.6774,1.7155,1.72,1.7424,1.7786,1.8101,1.8221,1.8278,1.8356,1.8614,1.8744,1.856,1.9384,2.0042,2.0295,2.0908,2.1616,2.1899,2.2374,2.2575,2.2694,2.2906,2.3304,2.3754,2.3797,2.3882,2.4112,2.3686,2.3232,1.0817,1.1163,1.0853,1.0744,1.0744,1.0624,1.0618,1.0618,1.0624,1.0618,1.0618,1.1122,1.1115,1.0807,1.2035,1.2573,1.2565,1.3262,1.3802,0.0,1.3935,1.38,1.3782,1.3507,1.3377,1.3392,1.3275,1.317,1.3237,1.3106,1.2978,1.3027,1.3065,1.3113,1.3113,1.3478,1.3742,1.3826,1.3931,1.4305,1.4835,1.5028,1.5264,1.5513,1.5627,1.5615,1.5499,1.5527,1.5279,1.4638,1.4933,1.497,1.465,1.4929,1.5069,1.4916,1.4916,1.5078,1.553,1.558,1.5781,1.6233,1.6358,1.6266,1.6103,1.622,1.6376,1.6476,1.6064,1.5903,1.6344,1.608,1.5782,1.5637,1.5585,1.5477,1.5194,1.5112,1.5279,1.5935,1.6063,1.6223,1.6522,1.6682,1.6613,1.6497,1.6528,1.6648,1.692,1.7368,1.7986,1.853,1.8691,1.8839,1.9052,1.9263,1.9263,1.9275,1.9811,2.0372,2.0372,2.1118,2.1759,2.1855,2.2123,2.2402,2.2603,2.274,2.3068,2.3566,2.3696,2.3867,2.4177,2.4081,2.4079,1.1223,1.1216,1.1082,1.1029,1.1029,1.1168,1.1138,1.1125,1.1118,1.0951,1.0751,1.1115,1.1483,1.1903,1.252,1.3122,1.3734,1.4001,1.4258,1.4497,1.4313,1.4222,1.4203,1.4077,1.3988,1.3839,1.3808,1.3654,1.3532,1.3275,1.3113,1.3103,1.3223,1.343,1.3742,1.3705,1.38,1.392,1.4154,1.4444,1.4801,1.496,1.513,1.5344,1.5591,1.574,1.5752,1.6006,1.5894,1.5341,1.5765,1.5815,1.5367,1.5749,1.5913,1.5768,1.5768,1.5881,1.6132,1.6145,1.6245,1.6497,1.6534,1.6534,1.6534,1.6534,1.6534,1.6504,1.619,1.5985,1.5997,1.5819,1.5653,1.5371,1.5299,1.5363,1.5371,1.537,1.561,1.6126,1.6276,1.6371,1.657,1.6591,1.6545,1.6431,1.6374,1.6534,1.692,1.7256,1.7689,1.8398,1.8893,1.9158,1.9368,1.9604,1.9604,1.9473,2.0131,2.0623,2.066,2.1299,2.1793,2.1996,2.2137,2.2217,2.2434,2.2449,2.2663,2.3068,2.3392,2.3625,2.3925,2.4177,2.4508,1.1606,1.1523,1.145,1.143,1.143,1.1635,1.1701,1.156,1.1619,1.1486,1.1205,1.1255,1.1894,1.2878,1.305,1.3657,1.4588,1.4653,1.4625,1.4565,1.4506,1.4515,1.4515,1.4725,1.4664,1.443,1.4553,1.4499,1.4223,1.3962,1.3789,1.37,1.379,1.4071,1.4514,1.4165,1.4082,1.4154,1.4525,1.4755,1.472,1.4869,1.5017,1.5108,1.5445,1.5668,1.5668,1.5988,1.6022,1.5765,1.6113,1.6181,1.5932,1.6283,1.6534,1.6534,1.6534,1.6534,1.6534,1.6534,1.6479,1.6479,1.6479,1.6479,1.6436,1.6479,1.6498,1.6497,1.6433,1.6215,1.5841,1.5705,1.5595,1.534,1.5308,1.5484,1.5784,1.5835,1.597,1.6312,1.6374,1.6363,1.6374,1.6374,1.6431,1.6488,1.6488,1.6705,1.7088,1.7301,1.7733,1.8224,1.8934,1.9473,1.9629,1.9965,2.0016,1.972,2.0472,2.0921,2.1055,2.1444,2.1888,2.2137,2.217,2.2217,2.217,2.2217,2.2356,2.2709,2.3068,2.3451,2.3882,2.4245,2.4679,1.1746,1.1784,1.1557,1.143,1.145,1.1792,1.1908,1.173,1.2077,1.2205,1.209,1.2,1.2233,1.2814,1.3648,1.423,1.4612,1.4823,1.4843,1.4656,1.4565,1.4515,1.4634,1.5059,1.5342,1.5351,1.5578,1.5714,1.5762,1.5541,1.5308,1.4953,1.4617,1.4468,1.4514,1.4606,1.4617,1.4663,1.4812,1.4674,1.4316,1.4362,1.4697,1.5119,1.5153,1.5153,1.5232,1.5198,1.5389,1.5772,1.5852,1.6039,1.6361,1.6497,1.6534,1.6534,1.6534,1.6534,1.6534,1.6534,1.6479,1.6405,1.6392,1.6349,1.6231,1.6405,1.6529,1.6508,1.6492,1.6382,1.6326,1.5956,1.5818,1.6084,1.6167,1.6327,1.627,1.6312,1.6332,1.6353,1.6374,1.6374,1.6374,1.6431,1.6488,1.6705,1.6761,1.6906,1.7333,1.7756,1.8242,1.8457,1.897,1.9718,2.0258,2.0599,2.0536,2.0536,2.0934,2.1229,2.1313,2.1636,2.217,2.217,2.217,2.217,2.2263,2.2217,2.2356,2.2709,2.3113,2.3494,2.4094,2.4492,2.4942,1.2124,1.2111,1.1991,1.2087,1.2308,1.2451,1.2487,1.2465,1.2673,1.264,1.2444,1.2299,1.2591,1.3142,1.3314,1.3609,1.4079,1.4291,1.4369,1.4359,1.4951,1.5303,1.5362,1.5911,1.6187,1.6187,1.6329,1.6411,1.6392,1.6213,1.5866,1.5623,1.5472,1.5464,1.5468,1.5311,1.5254,1.5344,1.513,1.4915,1.4777,1.4789,1.4926,1.5108,1.5355,1.5534,1.549,1.5534,1.5623,1.5788,1.5788,1.5888,1.6064,1.6337,1.6534,1.6534,1.6534,1.6534,1.6534,1.6534,1.6491,1.6392,1.6392,1.6362,1.6212,1.6256,1.6474,1.6716,1.645,1.6321,1.674,1.6284,1.6043,1.6208,1.6306,1.6374,1.6374,1.6374,1.6374,1.6374,1.6374,1.6374,1.6431,1.6545,1.6648,1.6818,1.6931,1.7264,1.7833,1.8239,1.8701,1.9326,1.9734,1.9981,2.0335,2.0536,2.0662,2.0712,2.0848,2.0983,2.118,2.1277,2.1602,2.2156,2.2123,2.2263,2.2814,2.2618,2.2618,2.2979,2.3334,2.3754,2.4219,2.441,2.4759,1.2305,1.2305,1.2372,1.2606,1.282,1.2973,1.3064,1.3084,1.314,1.3001,1.2797,1.2789,1.3317,1.3894,1.3437,1.3379,1.3819,1.4342,1.4469,1.446,1.5565,1.614,1.6197,1.6698,1.6968,1.7034,1.7191,1.7235,1.7247,1.6968,1.6741,1.6543,1.6515,1.6465,1.6382,1.6142,1.5957,1.5768,1.5445,1.5232,1.5142,1.5244,1.5232,1.5153,1.5445,1.5623,1.5623,1.5623,1.5656,1.5788,1.5788,1.592,1.6182,1.6509,1.6693,1.6693,1.668,1.665,1.6522,1.6534,1.6448,1.6362,1.6362,1.6268,1.6106,1.609,1.6371,1.6827,1.6242,1.611,1.6983,1.6706,1.6332,1.6239,1.641,1.6591,1.6431,1.6374,1.6374,1.6374,1.6374,1.6374,1.6441,1.6649,1.6869,1.7041,1.7377,1.784,1.8483,1.8768,1.9183,1.9995,2.0204,2.0294,2.0295,2.0706,2.0875,2.0796,2.0873,2.1109,2.105,2.1046,2.118,2.1779,2.1841,2.2109,2.2618,2.2709,2.2965,2.3348,2.3625,2.3952,2.441,2.4451,2.4759,1.2305,1.2378,1.2673,1.2746,1.2673,1.32,1.3339,1.3215,1.3382,1.3448,1.3404,1.3411,1.4252,1.5419,1.4425,1.4021,1.4266,1.5359,1.5565,1.5235,1.6213,1.6687,1.6733,1.7313,1.7667,1.771,1.8159,1.8494,1.8685,1.8275,1.813,1.8111,1.7763,1.7326,1.7082,1.7066,1.6671,1.5957,1.5784,1.5558,1.5198,1.5546,1.549,1.5153,1.5142,1.5232,1.5198,1.5142,1.5367,1.5788,1.5788,1.6182,1.6976,1.7115,1.7157,1.7157,1.7157,1.6989,1.6607,1.6522,1.6461,1.63,1.6262,1.6138,1.6044,1.5909,1.6119,1.6735,1.5974,1.5948,1.6922,1.6866,1.6627,1.642,1.6786,1.6853,1.642,1.6374,1.6374,1.6374,1.6374,1.6405,1.6415,1.6757,1.7179,1.7552,1.8138,1.8709,1.9041,1.9395,1.97,1.9876,2.017,2.0435,2.0807,2.1117,2.117,2.1166,2.1303,2.1584,2.1349,2.1166,2.1367,2.1582,2.1971,2.2255,2.2463,2.2799,2.3334,2.3668,2.3797,2.4094,2.4614,2.4799,2.5082,1.2378,1.2526,1.2826,1.29,1.3046,1.32,1.3346,1.3426,1.3499,1.3492,1.3492,1.3492,1.4198,1.5411,1.538,1.5441,1.5698,1.6097,1.611,1.6032,1.7069,1.7589,1.7633,1.8201,1.8548,1.8548,1.8762,1.9254,1.9825,1.9214,1.9358,1.9913,1.8986,1.8392,1.8384,1.7675,1.705,1.6739,1.615,1.5707,1.5556,1.5406,1.5277,1.5153,1.568,1.5988,1.5988,1.5712,1.5623,1.5788,1.5788,1.5964,1.6324,1.6892,1.7212,1.7212,1.7212,1.724,1.7256,1.6808,1.6716,1.7118,1.6602,1.6407,1.6607,1.653,1.631,1.6063,1.5811,1.6038,1.656,1.6524,1.6249,1.6144,1.642,1.6637,1.6477,1.6374,1.6374,1.6374,1.6374,1.6477,1.6825,1.7071,1.7567,1.8143,1.8649,1.9242,1.9814,2.0087,2.0289,2.06,2.0804,2.0915,2.1038,2.135,2.1576,2.1584,2.1701,2.1734,2.1627,2.1784,2.198,2.1767,2.2125,2.272,2.2987,2.3511,2.3947,2.4122,2.4249,2.4553,2.4799,2.5132,2.542,1.2372,1.268,1.2893,1.3039,1.32,1.3266,1.3346,1.3492,1.3492,1.3637,1.384,1.4106,1.499,1.6282,1.6882,1.752,1.8038,1.7488,1.6973,1.6711,1.7852,1.8375,1.8483,1.8827,1.8987,1.904,1.9331,1.9978,2.0908,2.0419,2.0695,2.1565,2.0462,1.9819,1.9533,1.8682,1.8005,1.7388,1.668,1.6276,1.6097,1.5963,1.5765,1.5695,1.6194,1.6455,1.6262,1.5964,1.5888,1.6008,1.602,1.6095,1.6312,1.6964,1.7323,1.7253,1.7212,1.7227,1.7337,1.7016,1.7036,1.7511,1.7146,1.6955,1.7211,1.6967,1.6556,1.6158,1.5761,1.5944,1.6265,1.6134,1.6029,1.6077,1.642,1.6591,1.6431,1.6374,1.6456,1.6638,1.6901,1.7042,1.7241,1.7811,1.8348,1.8884,1.931,2.0041,2.0673,2.1073,2.1205,2.1557,2.1631,2.1658,2.1858,2.2142,2.197,2.1889,2.2279,2.2226,2.21,2.235,2.2339,2.2105,2.2399,2.3068,2.3661,2.4205,2.4551,2.4729,2.5047,2.5392,2.5544,2.5624,2.6075,1.2372,1.2826,1.3119,1.3266,1.3331,1.3484,1.3564,1.363,1.363,1.4049,1.4673,1.5271,1.6615,1.8497,1.8753,1.9817,2.0665,1.9668,1.8464,1.7601,1.8499,1.9006,1.9018,1.9105,1.9239,1.9331,1.9953,2.0922,2.1927,2.1881,2.2009,2.2314,2.2226,2.1384,2.0292,2.006,1.9193,1.7934,1.7423,1.7144,1.6814,1.7049,1.6953,1.6576,1.6587,1.6399,1.5905,1.5856,1.5976,1.6349,1.6423,1.6735,1.7018,1.7475,1.7598,1.7293,1.7238,1.7002,1.6832,1.7163,1.7267,1.7589,1.7622,1.7605,1.7591,1.7092,1.6818,1.6862,1.6244,1.5853,1.5941,1.6066,1.6239,1.6431,1.674,1.6786,1.6534,1.6394,1.657,1.6992,1.7509,1.7938,1.8025,1.8539,1.916,1.9397,2.0113,2.0865,2.1487,2.187,2.2372,2.2518,2.2359,2.2237,2.2616,2.293,2.2499,2.2284,2.2795,2.3054,2.2688,2.2675,2.2651,2.2459,2.2647,2.3348,2.433,2.4807,2.5256,2.5555,2.5905,2.6302,2.6586,2.6782,2.7076,1.2305,1.2526,1.3127,1.3695,1.4114,1.425,1.4545,1.4974,1.5037,1.518,1.5384,1.5579,1.6936,1.8655,1.9036,2.0313,2.2241,2.1794,2.0888,1.9776,1.9574,1.957,1.9606,1.9793,2.0231,2.0828,2.126,2.202,2.2849,2.2597,2.3054,2.4092,2.3199,2.239,2.1815,2.0874,1.9695,1.8612,1.7804,1.735,1.715,1.705,1.6886,1.6703,1.665,1.6575,1.6365,1.5981,1.5901,1.6032,1.6337,1.6565,1.6778,1.7144,1.7508,1.7695,1.7395,1.7731,1.835,1.776,1.7785,1.8481,1.8228,1.8217,1.8598,1.7653,1.7268,1.7678,1.707,1.6539,1.6631,1.6765,1.6662,1.6239,1.6467,1.6591,1.6503,1.6663,1.7026,1.7409,1.7695,1.7894,1.8249,1.8987,1.9454,1.9673,2.0448,2.1187,2.1565,2.2063,2.2237,2.2531,2.2543,2.2725,2.298,2.3185,2.3094,2.293,2.3322,2.3563,2.3237,2.3093,2.2975,2.3095,2.3298,2.3891,2.4834,2.5446,2.591,2.6421,2.6792,2.7248,2.7778,2.802,2.8101,1.2579,1.2938,1.3897,1.4545,1.5029,1.5296,1.5641,1.614,1.6401,1.6678,1.7005,1.7678,1.8781,2.0231,2.1031,2.2211,2.3758,2.3774,2.328,2.2265,2.1278,2.0909,2.0859,2.0806,2.152,2.2437,2.2529,2.3083,2.4138,2.3842,2.4246,2.5114,2.4368,2.343,2.2804,2.1899,2.0784,1.962,1.9118,1.8958,1.8896,1.8672,1.84,1.8142,1.7675,1.725,1.6907,1.6573,1.6339,1.6206,1.6528,1.6769,1.6829,1.7153,1.7437,1.7591,1.7372,1.751,1.8675,1.8096,1.8041,1.9014,1.8807,1.873,1.9287,1.837,1.817,1.8259,1.8228,1.782,1.7435,1.7424,1.7211,1.656,1.6273,1.6236,1.6379,1.6907,1.7471,1.7895,1.8218,1.8385,1.8689,1.9212,1.981,2.0182,2.0613,2.1502,2.1877,2.2396,2.2689,2.298,2.3233,2.3352,2.3233,2.3437,2.3641,2.3708,2.3787,2.3819,2.3655,2.3707,2.3681,2.4012,2.4229,2.5095,2.6007,2.6268,2.6658,2.7154,2.7783,2.8324,2.8793,2.8657,2.8738,1.3025,1.373,1.5021,1.5587,1.5799,1.6531,1.7005,1.7142,1.7658,1.8388,1.9293,2.0419,2.1776,2.2921,2.3958,2.4873,2.5465,2.549,2.561,2.5131,2.4112,2.3279,2.2846,2.2269,2.2858,2.4075,2.3759,2.4127,2.5192,2.5153,2.5464,2.5621,2.5594,2.4831,2.3471,2.3126,2.2098,2.0703,2.093,2.1131,2.1261,2.1389,2.1193,2.0576,1.9528,1.8685,1.8154,1.7812,1.7314,1.6774,1.7122,1.7382,1.7422,1.7426,1.7496,1.7642,1.6974,1.742,1.81,1.8304,1.8505,1.9083,1.9357,1.9656,1.9617,1.9352,1.9035,1.8881,1.9269,1.9125,1.8259,1.7954,1.7655,1.6999,1.6306,1.6178,1.6487,1.7277,1.7874,1.8426,1.8945,1.9318,1.9083,1.9651,2.0193,2.0537,2.0794,2.1616,2.2433,2.2823,2.3437,2.3688,2.3734,2.3734,2.3556,2.3675,2.3878,2.3878,2.4054,2.4092,2.4231,2.4368,2.4536,2.486,2.5278,2.6199,2.6763,2.6968,2.7535,2.8288,2.8873,2.9464,2.9664,2.956,2.9755,1.1694,1.2112,1.4129,1.5371,1.607,1.7649,1.8696,1.9201,1.9388,2.0094,2.0905,2.1369,2.2795,2.4321,2.4833,2.583,2.7101,2.7478,2.8057,2.8481,2.7857,2.6303,2.4875,2.4007,2.4401,2.5581,2.5161,2.5176,2.5868,2.5811,2.5921,2.6173,2.6262,2.5809,2.468,2.3866,2.2878,2.1597,2.0837,2.1094,2.16,2.1694,2.1899,2.2345,2.1917,2.138,2.0706,1.9655,1.8668,1.784,1.7842,1.7952,1.8016,1.799,1.8129,1.8355,1.8031,1.8204,1.8945,1.8871,1.8946,1.9471,1.9505,1.9565,1.9747,1.954,1.9436,1.9488,1.9716,1.9491,1.8792,1.8282,1.7397,1.623,1.6292,1.6825,1.7541,1.8059,1.8382,1.884,1.912,1.9128,1.9333,1.9584,2.0042,2.0031,2.0537,2.1302,2.2187,2.2689,2.3017,2.3628,2.3819,2.3878,2.3936,2.3995,2.4054,2.4054,2.4229,2.4434,2.4768,2.5175,2.5356,2.559,2.6026,2.6791,2.714,2.7384,2.8292,2.9284,2.9832,3.0309,3.0601,3.0701,3.1042,1.1165,1.1845,1.3725,1.5275,1.6578,1.8071,1.9401,2.0655,2.1444,2.1993,2.2623,2.3725,2.4847,2.6049,2.6802,2.7745,2.8896,2.908,2.9396,2.9762,2.9515,2.8474,2.7083,2.6252,2.6376,2.6967,2.6428,2.6163,2.6206,2.6173,2.6279,2.6383,2.6624,2.625,2.5248,2.4824,2.3952,2.3035,2.2421,2.2584,2.2922,2.2922,2.314,2.3498,2.3355,2.2832,2.225,2.1066,1.9959,1.9279,1.8803,1.8549,1.8532,1.8555,1.8694,1.8945,1.8312,1.8339,1.9345,1.8993,1.8867,1.9312,1.946,1.95,1.95,1.9463,1.9643,1.975,1.9815,1.9478,1.8765,1.8013,1.7235,1.6648,1.659,1.7181,1.8114,1.8267,1.8754,1.9246,1.933,1.9253,1.9528,1.9715,1.9781,2.0031,2.0613,2.1175,2.1741,2.2137,2.2763,2.3556,2.4157,2.4319,2.4593,2.4765,2.4765,2.4721,2.509,2.5189,2.5425,2.5972,2.6385,2.6634,2.6946,2.7303,2.7788,2.837,2.9223,3.0038,3.0601,3.0965,3.1201,3.1531,3.1951,1.0678,1.1827,1.3309,1.525,1.7312,1.8324,2.0112,2.2017,2.3462,2.4147,2.4664,2.6754,2.767,2.817,2.9459,3.0406,3.0526,3.0683,3.0503,3.0593,3.0456,2.9947,2.9367,2.833,2.8171,2.8296,2.769,2.7119,2.6842,2.6657,2.6539,2.6708,2.6873,2.6539,2.5995,2.5789,2.5183,2.4383,2.4271,2.4373,2.4411,2.4443,2.4523,2.4642,2.4153,2.3751,2.3281,2.2392,2.1541,2.0959,1.9737,1.9166,1.9096,1.9108,1.9071,1.9046,1.8462,1.8548,1.951,1.9157,1.8714,1.9337,1.9695,1.9552,1.9356,1.9589,1.9793,1.9821,1.9419,1.8515,1.8335,1.7468,1.7129,1.7052,1.6906,1.736,1.7879,1.8278,1.8931,2.0161,1.966,1.9846,2.0042,1.9977,1.9781,2.0549,2.1049,2.1491,2.1928,2.2433,2.31,2.3884,2.4408,2.4865,2.5189,2.5522,2.5522,2.5522,2.6162,2.64,2.6381,2.685,2.7475,2.7788,2.7705,2.8194,2.9057,2.9673,3.014,3.0543,3.0931,3.1283,3.1605,3.2039,3.2482,0.7507,0.8196,1.1893,1.5282,1.8121,1.9916,2.2243,2.4819,2.5354,2.606,2.6926,2.825,2.9466,3.054,3.1629,3.2492,3.2647,3.2693,3.2692,3.219,3.1917,3.1792,3.1248,3.0048,2.9448,2.9357,2.842,2.7964,2.7923,2.7442,2.721,2.7382,2.7382,2.7487,2.7326,2.6568,2.5965,2.5346,2.4764,2.465,2.4916,2.4948,2.5227,2.5631,2.5449,2.5357,2.5134,2.4331,2.3732,2.2992,2.1206,1.98,1.9737,1.9636,1.9585,1.9496,1.9395,1.9699,2.0489,1.9927,1.9763,2.0167,1.9567,1.9291,1.9668,1.9673,1.979,1.9162,1.6986,1.6208,1.7175,1.7709,1.7194,1.6822,1.7562,1.8598,1.9065,1.9083,1.9562,2.0226,2.0624,2.0869,2.1376,2.0933,2.0869,2.1123,2.1491,2.1928,2.2298,2.2677,2.3399,2.4118,2.435,2.4751,2.5412,2.5783,2.6147,2.6347,2.7027,2.75,2.7475,2.7629,2.8196,2.8338,2.8225,2.895,2.9821,3.0038,3.0351,3.0771,3.1287,3.1754,3.2195,3.2595,3.301,0.6569,0.743,1.0634,1.3585,1.6376,1.8903,2.1774,2.4685,2.6814,2.8091,2.9161,3.0318,3.1373,3.2126,3.2969,3.3523,3.369,3.3773,3.362,3.3296,3.3104,3.3039,3.2956,3.2038,3.1363,3.0733,2.9971,2.9375,2.8662,2.836,2.8035,2.7719,2.7789,2.7836,2.8014,2.7442,2.7068,2.6717,2.6066,2.5713,2.5701,2.5697,2.5709,2.6115,2.6132,2.6079,2.5937,2.5041,2.4563,2.3989,2.2433,2.097,2.0481,2.0067,1.985,1.9798,1.954,1.9631,1.9851,1.953,1.9008,1.9455,1.8809,1.8673,1.8928,1.9227,1.9599,1.8802,1.6834,1.5262,1.6345,1.7004,1.6747,1.6363,1.6991,1.7978,1.8572,1.9257,2.0322,2.1101,2.1376,2.169,2.1827,2.169,2.169,2.1815,2.2101,2.247,2.2421,2.2847,2.3518,2.4118,2.4247,2.4637,2.5412,2.5986,2.6649,2.71,2.7769,2.8176,2.8401,2.8607,2.8856,2.8979,2.9178,2.9585,3.0326,3.0452,3.069,3.1227,3.1771,3.2297,3.2782,3.3234,3.3658,0.5699,0.7085,0.9022,1.1506,1.4423,1.7785,2.1045,2.4172,2.8046,3.0248,3.1085,3.2538,3.2927,3.3255,3.377,3.4047,3.4113,3.3994,3.3951,3.4037,3.3913,3.3848,3.3792,3.3571,3.3037,3.1762,3.1446,3.0642,2.9769,2.92,2.8887,2.8238,2.7968,2.8099,2.8109,2.8126,2.7858,2.7482,2.7374,2.7095,2.6707,2.6607,2.6435,2.6222,2.6168,2.6168,2.6026,2.5449,2.4909,2.4776,2.3766,2.2716,2.168,2.0654,1.9901,1.9862,1.9448,1.9527,1.9658,1.898,1.8298,1.772,1.7754,1.7972,1.815,1.853,1.8759,1.8363,1.7032,1.5952,1.6026,1.6728,1.6611,1.6175,1.6202,1.706,1.791,1.9553,2.1381,2.2039,2.2051,2.2261,2.2445,2.2457,2.2445,2.2433,2.2725,2.2955,2.2955,2.3088,2.38,2.4073,2.4203,2.4492,2.5203,2.7128,2.7644,2.7777,2.845,2.9085,2.9476,2.9923,3.0186,3.0168,3.0385,3.0666,3.0908,3.1128,3.1456,3.1825,3.2296,3.2852,3.3368,3.3887,3.4282,0.1518,0.4281,0.6179,1.0159,1.561,1.966,2.2888,2.6497,3.0043,3.2284,3.2575,3.335,3.3624,3.3867,3.4427,3.4839,3.4791,3.4559,3.4457,3.4603,3.4496,3.4375,3.441,3.4451,3.413,3.373,3.3116,3.2302,3.1483,3.0643,2.9981,2.9471,2.8748,2.8398,2.8488,2.8291,2.8134,2.7941,2.7813,2.7522,2.7164,2.6825,2.6572,2.6258,2.6239,2.6203,2.6203,2.6026,2.5937,2.5811,2.487,2.3891,2.279,2.1661,2.0729,1.9991,1.9695,1.9773,2.0143,1.9503,1.9633,1.9788,1.865,1.8236,1.8518,1.8087,1.8036,1.8202,1.7722,1.6898,1.6778,1.7245,1.6975,1.6871,1.8035,1.9553,1.9608,2.0778,2.1954,2.1954,2.2286,2.275,2.2884,2.3078,2.3078,2.3125,2.3305,2.3682,2.3833,2.3917,2.4163,2.4203,2.4112,2.4505,2.4935,2.7435,2.8946,2.8683,2.9243,3.0286,3.0757,3.1312,3.1534,3.1391,3.124,3.1274,3.1517,3.1771,3.2092,3.2446,3.2925,3.3433,3.3942,3.4402,3.4737,-0.1176,0.1323,0.5056,0.836,1.1914,1.6907,2.1455,2.5345,2.8416,3.1229,3.2895,3.3356,3.3446,3.3803,3.409,3.456,3.487,3.4861,3.4834,3.5013,3.4993,3.5009,3.5091,3.5146,3.5233,3.5055,3.4539,3.3646,3.2842,3.2126,3.1336,3.0669,2.9728,2.9365,2.9376,2.882,2.8576,2.8433,2.8216,2.7842,2.7448,2.7006,2.6607,2.6486,2.6258,2.6203,2.6203,2.6203,2.6168,2.6063,2.5631,2.4563,2.3471,2.2521,2.1479,2.0258,1.9862,1.9837,2.0105,1.9344,1.9206,1.9186,1.8204,1.7944,1.8282,1.7937,1.7749,1.8287,1.8272,1.76,1.7186,1.7742,1.7764,1.7716,1.9017,1.9727,2.018,2.1483,2.1806,2.188,2.2579,2.3173,2.3378,2.3509,2.3641,2.376,2.3923,2.435,2.4754,2.4854,2.5009,2.5438,2.5534,2.5791,2.6294,2.8122,2.9756,2.9589,3.0079,3.1155,3.1741,3.216,3.2393,3.2453,3.229,3.2037,3.1987,3.2228,3.2638,3.3063,3.3563,3.4054,3.451,3.4909,3.5177,-0.4056,-0.2758,0.3543,0.6125,0.7271,1.3865,1.9073,2.2796,2.6107,2.9491,3.2605,3.2618,3.2727,3.3204,3.3505,3.3876,3.4553,3.4622,3.4928,3.515,3.5271,3.5474,3.5678,3.5877,3.5864,3.5758,3.5619,3.4933,3.3887,3.3272,3.2807,3.2071,3.1005,3.0577,3.0686,2.9787,2.9512,2.9303,2.9048,2.8486,2.7922,2.7373,2.691,2.6742,2.6434,2.6239,2.6329,2.6239,2.6203,2.6165,2.5909,2.5185,2.3586,2.3069,2.2128,2.0589,2.0041,1.9617,1.9368,1.9274,1.9088,1.8869,1.8289,1.8105,1.8184,1.8488,1.8542,1.8933,1.8791,1.8273,1.7813,1.8037,1.8345,1.8639,1.8885,1.9467,2.049,2.1534,2.2445,2.2701,2.3267,2.3636,2.3897,2.4297,2.4526,2.4883,2.5051,2.5548,2.5898,2.5952,2.6242,2.6944,2.7315,2.7482,2.8092,2.9099,3.0121,3.0194,3.0993,3.2126,3.2527,3.2796,3.3033,3.3267,3.3168,3.2933,3.2805,3.2786,3.3257,3.3746,3.4226,3.4566,3.4898,3.5181,3.5456,-0.8336,-0.9314,-0.0723,0.2866,0.4321,1.345,1.8327,1.9939,2.549,2.8662,2.9536,3.09,3.157,3.2071,3.2596,3.2993,3.3469,3.4014,3.4461,3.4743,3.5087,3.5317,3.5524,3.5745,3.5859,3.5929,3.5913,3.5752,3.4991,3.4243,3.3851,3.3355,3.2389,3.1786,3.1909,3.0876,3.0685,3.0648,3.0342,2.9686,2.8903,2.8407,2.7885,2.7263,2.6758,2.6528,2.6736,2.6628,2.6402,2.63,2.6243,2.525,2.3706,2.2843,2.218,2.1208,2.0475,1.9888,1.9843,1.9834,1.9768,1.9389,1.9007,1.8914,1.8934,1.8981,1.9041,1.9028,1.8979,1.8742,1.8297,1.8269,1.8499,1.9048,1.9684,2.0512,2.1471,2.2685,2.3428,2.3884,2.4573,2.4399,2.4439,2.4939,2.5384,2.5791,2.6203,2.6696,2.721,2.7429,2.7707,2.8497,2.8981,2.9143,2.9405,3.0463,3.084,3.0899,3.1725,3.2867,3.3268,3.3508,3.3762,3.3926,3.3873,3.3938,3.3883,3.3934,3.4139,3.4372,3.4732,3.4937,3.5143,3.5427,3.5656,-1.5325,-1.3616,-0.6257,-0.1852,0.0967,0.8727,1.4695,1.8585,2.1108,2.4079,2.6574,2.7195,2.843,3.0095,3.1282,3.1878,3.2188,3.291,3.3487,3.3972,3.4478,3.4956,3.5272,3.5502,3.5701,3.5815,3.5859,3.5893,3.5563,3.5263,3.4855,3.461,3.3597,3.3125,3.3123,3.1829,3.1528,3.1391,3.0992,3.0273,2.9827,2.9443,2.9047,2.8506,2.7944,2.7715,2.7587,2.7578,2.7181,2.6961,2.6841,2.5679,2.4128,2.3347,2.2946,2.1407,2.1326,2.1153,2.0923,2.0784,2.066,2.0437,1.9978,1.956,1.943,1.9254,1.9167,1.9117,1.9079,1.8931,1.8798,1.8741,1.91,1.9661,2.0417,2.1295,2.2396,2.3948,2.4898,2.5329,2.5751,2.5711,2.5765,2.6256,2.6645,2.6748,2.721,2.7722,2.8651,2.9572,2.9845,3.0212,3.0576,3.0791,3.0946,3.1522,3.189,3.1986,3.2084,3.3136,3.3889,3.4241,3.4391,3.466,3.4818,3.4868,3.4904,3.4827,3.4757,3.4943,3.5212,3.5286,3.5346,3.5425,3.5537,-2.1421,-1.7691,-1.0521,-0.6208,-0.3708,0.2771,0.9446,1.5289,1.5785,1.8715,2.2686,2.4079,2.5928,2.8218,2.9798,3.0583,3.0678,3.1618,3.2168,3.2773,3.3494,3.4166,3.4582,3.495,3.5457,3.5708,3.5757,3.5857,3.5908,3.5763,3.5587,3.5645,3.4631,3.4414,3.4235,3.3191,3.2298,3.2365,3.169,3.1148,3.0759,3.0441,3.0109,2.9674,2.923,2.8817,2.8682,2.84,2.7997,2.7711,2.7038,2.5966,2.4844,2.3849,2.3439,2.2456,2.247,2.1893,2.1625,2.144,2.1589,2.1211,2.0661,1.9819,1.9228,1.9131,1.9131,1.911,1.9121,1.9131,1.9065,1.9065,1.9441,2.0139,2.0962,2.1892,2.2905,2.4477,2.5534,2.5791,2.6347,2.7455,2.7603,2.7911,2.7992,2.7832,2.8185,2.8803,2.9828,3.1074,3.1339,3.147,3.1809,3.2092,3.2402,3.2606,3.293,3.3066,3.3159,3.3487,3.4317,3.468,3.4802,3.5136,3.5422,3.5376,3.513,3.5236,3.5302,3.525,3.5236,3.5428,3.5532,3.551,3.5219,-2.5031,-2.2262,-1.2044,-0.9272,-1.0697,-0.2153,0.4002,0.8997,1.0862,1.4107,1.8779,2.1856,2.4696,2.6557,2.8202,2.9143,2.9263,3.0578,3.1113,3.1603,3.2286,3.3146,3.3743,3.4461,3.5152,3.5574,3.5675,3.5801,3.5956,3.595,3.5921,3.5851,3.5321,3.5433,3.5118,3.4165,3.3185,3.3049,3.2504,3.2148,3.1698,3.131,3.0921,3.036,2.9592,2.9051,2.935,2.8938,2.8506,2.8323,2.7485,2.6716,2.5928,2.444,2.3695,2.3837,2.2867,2.2143,2.1512,2.1938,2.211,2.1524,2.0834,2.0094,1.9191,1.9121,1.9131,1.9131,1.9208,1.9131,1.9131,1.9198,1.9639,2.0204,2.1141,2.2164,2.3318,2.4942,2.5884,2.6136,2.7039,2.8357,2.89,2.9143,2.9291,2.9125,2.9887,3.0553,3.0993,3.1969,3.221,3.2435,3.2883,3.325,3.3669,3.3877,3.3936,3.3998,3.4092,3.4399,3.4882,3.5082,3.4951,3.5112,3.5268,3.5331,3.5351,3.5213,3.5134,3.5175,3.522,3.5185,3.5069,3.4936,3.4553,-2.258,-2.1312,-1.5788,-1.2487,-1.0465,-0.4835,0.1196,0.6531,0.8218,1.202,1.756,2.0938,2.3238,2.4708,2.6393,2.7379,2.7659,2.9399,3.0005,3.0908,3.1791,3.2737,3.3444,3.4095,3.4977,3.5272,3.5465,3.5657,3.5809,3.5915,3.5995,3.5923,3.5749,3.5758,3.5433,3.4808,3.3989,3.3433,3.3087,3.2684,3.2581,3.2307,3.1921,3.122,3.1011,3.0411,3.0157,2.9899,2.9473,2.9006,2.8404,2.7881,2.7126,2.5371,2.4854,2.4651,2.3232,2.1789,2.1507,2.2176,2.2811,2.2201,2.1611,2.0864,1.9467,1.9125,1.9121,1.9208,1.9341,1.9407,1.9131,1.9452,1.9966,2.0398,2.1244,2.2372,2.378,2.5382,2.6733,2.724,2.8436,2.9756,3.0048,3.0208,3.0327,3.0501,3.1401,3.2196,3.2462,3.2737,3.2954,3.3258,3.3713,3.3996,3.4337,3.4592,3.4847,3.4866,3.4905,3.4972,3.508,3.4889,3.4822,3.499,3.5046,3.5002,3.4978,3.4943,3.4943,3.4983,3.4835,3.4644,3.4539,3.432,3.3807,-1.9636,-1.9865,-1.8095,-1.5222,-1.1483,-0.836,-0.2972,0.3115,0.4654,0.9845,1.7369,1.9586,2.1544,2.3288,2.4886,2.6126,2.674,2.8008,2.8837,2.988,3.1005,3.211,3.2922,3.3759,3.4679,3.4964,3.5199,3.5427,3.558,3.5806,3.5867,3.5859,3.5815,3.5868,3.568,3.4967,3.4167,3.3691,3.3205,3.2898,3.2898,3.2848,3.2684,3.2004,3.1721,3.1336,3.0858,3.0506,3.0145,2.9897,2.9543,2.9108,2.8072,2.7026,2.6243,2.5019,2.3223,2.1198,2.1175,2.1786,2.2396,2.1413,2.2176,2.1197,2.0136,1.9367,1.9121,1.9365,1.9594,1.9692,1.9417,1.9868,2.0042,2.0398,2.1969,2.3242,2.4428,2.5902,2.733,2.8498,2.9609,3.041,3.0707,3.0828,3.1172,3.1329,3.1844,3.2624,3.3148,3.3427,3.3701,3.4049,3.4435,3.4659,3.4867,3.5117,3.5314,3.5132,3.5109,3.4998,3.4986,3.4768,3.4681,3.4792,3.4793,3.4683,3.4511,3.4315,3.453,3.4817,3.447,3.4036,3.361,3.3319,3.2871,-1.7017,-1.8487,-1.7772,-1.684,-1.5204,-1.3353,-0.8546,-0.217,0.0742,0.7245,1.6016,1.7581,1.9652,2.2238,2.3703,2.4996,2.6037,2.6894,2.7735,2.867,3.0063,3.0929,3.1945,3.3065,3.4285,3.4864,3.509,3.5187,3.5308,3.5626,3.5729,3.5806,3.5859,3.5966,3.5893,3.4955,3.4206,3.3722,3.3265,3.3045,3.3001,3.2957,3.277,3.2488,3.2091,3.1694,3.1261,3.0845,3.0517,3.0328,3.0294,3.0054,2.9779,2.7472,2.6924,2.7413,2.3269,2.08,1.9776,2.0461,2.0419,2.0508,2.1572,2.151,2.0737,2.0009,1.9069,1.9128,1.9617,2.0031,2.0172,2.0281,2.0248,2.1083,2.2695,2.4246,2.5486,2.6601,2.8153,2.9294,2.9962,3.0593,3.1004,3.1376,3.1861,3.2179,3.2468,3.2973,3.3617,3.3998,3.4245,3.4649,3.5016,3.5084,3.526,3.5625,3.5741,3.5524,3.5235,3.4988,3.4784,3.4576,3.4537,3.4592,3.415,3.3695,3.3653,3.3629,3.3463,3.3198,3.3549,3.3259,3.2811,3.2237,3.1655,-1.5828,-1.6977,-1.5782,-1.4877,-1.4037,-1.2138,-0.8417,-0.3156,0.2692,0.8915,1.3986,1.5817,1.7407,1.9781,2.2311,2.3935,2.4996,2.6678,2.7393,2.814,2.9359,3.0352,3.1428,3.2583,3.3771,3.4501,3.4848,3.4996,3.5091,3.5465,3.5657,3.5763,3.5893,3.5994,3.5828,3.5271,3.4814,3.4563,3.3974,3.3433,3.3369,3.3112,3.2784,3.2588,3.2231,3.186,3.1414,3.0965,3.074,3.0551,3.0468,3.0468,3.0166,2.8093,2.6792,2.5701,2.1716,1.7816,1.631,1.6204,1.836,1.9652,2.0917,2.1151,2.0094,2.0939,1.9943,1.8923,1.9661,2.0151,2.039,2.0733,2.1112,2.2407,2.3905,2.5472,2.6804,2.7867,2.9037,2.9886,3.0609,3.0942,3.13,3.1789,3.2282,3.2645,3.2898,3.3314,3.3892,3.432,3.4653,3.5097,3.5443,3.548,3.5597,3.5611,3.5399,3.5018,3.4828,3.4669,3.4492,3.411,3.3855,3.3579,3.3086,3.2631,3.2393,3.2119,3.155,3.1376,3.1757,3.2049,3.1742,3.0972,3.0145,-1.5258,-1.593,-1.4824,-1.3985,-1.3331,-1.2171,-0.8788,-0.3229,0.3547,0.8802,1.2157,1.4174,1.633,1.8405,2.0504,2.3065,2.4266,2.5767,2.7188,2.7879,2.8883,3.0013,3.1126,3.2218,3.3405,3.4213,3.4676,3.4812,3.4848,3.5317,3.5626,3.5828,3.5915,3.5995,3.5835,3.5483,3.5137,3.4867,3.4337,3.3808,3.3642,3.3332,3.2973,3.2634,3.23,3.202,3.149,3.1162,3.0942,3.0634,3.0468,3.0468,2.9903,2.8837,2.7259,2.5173,2.2114,1.7708,1.4513,1.4553,1.677,1.8227,1.9929,2.0228,1.9835,2.0808,2.0526,1.9944,1.9944,2.0377,2.082,2.1169,2.1779,2.3005,2.4556,2.6121,2.7235,2.8248,2.9592,3.0435,3.0838,3.1201,3.166,3.2213,3.2699,3.3039,3.3356,3.3747,3.4162,3.4595,3.4988,3.5377,3.5561,3.5467,3.5346,3.5227,3.4948,3.4547,3.4282,3.409,3.3438,3.2958,3.2763,3.2499,3.1863,3.132,3.0865,3.0482,3.0092,2.9865,2.9955,3.0251,3.0459,2.9842,2.8898,-1.5205,-1.5604,-1.4895,-1.433,-1.3912,-1.3098,-0.9538,-0.383,0.1666,0.6364,1.007,1.2646,1.5267,1.8071,1.935,2.1481,2.4107,2.5287,2.6428,2.7449,2.8388,2.9613,3.0827,3.191,3.3034,3.3951,3.4502,3.4593,3.4591,3.5062,3.5523,3.586,3.5912,3.5976,3.5827,3.5617,3.5364,3.5194,3.4808,3.4263,3.3896,3.3673,3.3276,3.2898,3.2521,3.2127,3.1677,3.1355,3.0965,3.0658,3.0468,3.0468,3.0107,2.9399,2.8992,2.712,2.3606,1.7861,1.3961,1.4213,1.4703,1.6094,1.894,1.8971,1.9198,2.0081,2.0136,2.0322,2.0484,2.088,2.1285,2.1526,2.1753,2.3208,2.4736,2.6069,2.7186,2.8436,2.9946,3.0692,3.0902,3.13,3.1933,3.2502,3.3032,3.331,3.3637,3.4081,3.4497,3.493,3.5281,3.5487,3.5552,3.5334,3.5137,3.4782,3.4372,3.3885,3.3488,3.3201,3.2483,3.1881,3.1708,3.1349,3.0549,2.9922,2.9302,2.8978,2.8785,2.8605,2.842,2.8926,2.9303,2.8622,2.7844,-1.3497,-1.513,-1.3954,-1.3324,-1.2952,-1.0983,-0.7401,-0.288,0.1675,0.5333,0.8137,1.17,1.4427,1.6381,1.8609,2.0922,2.3077,2.4869,2.6054,2.7041,2.7819,2.9074,3.0256,3.1321,3.2514,3.3605,3.4269,3.4431,3.4569,3.4928,3.5336,3.5705,3.5806,3.5884,3.5898,3.5825,3.577,3.5607,3.5203,3.473,3.4226,3.3933,3.35,3.3064,3.2802,3.2351,3.1841,3.162,3.1184,3.0617,3.051,3.0468,3.0426,2.8669,2.676,2.1248,1.7566,1.4016,1.2698,1.2851,1.3404,1.4284,1.6878,1.8405,1.8492,1.9167,1.9898,2.018,2.1239,2.1951,2.2025,2.2075,2.2531,2.3658,2.5176,2.6462,2.7625,2.9005,3.0393,3.0838,3.1021,3.1585,3.2265,3.2781,3.3262,3.3561,3.3934,3.4395,3.4814,3.5223,3.5495,3.5698,3.5339,3.5058,3.4467,3.4049,3.3666,3.3277,3.2841,3.2353,3.1638,3.1127,3.0801,3.0186,2.9339,2.8451,2.753,2.7315,2.711,2.6996,2.6938,2.7564,2.7957,2.7445,2.6784,-1.1965,-1.3663,-1.2698,-1.2519,-1.2586,-1.0082,-0.7366,-0.4419,0.0838,0.4361,0.6194,1.0319,1.3519,1.5878,1.7915,2.0258,2.3166,2.4883,2.6122,2.6774,2.7306,2.8821,2.998,3.0882,3.2178,3.335,3.4148,3.4381,3.4505,3.4793,3.5207,3.5632,3.5688,3.5828,3.5935,3.5975,3.5995,3.5867,3.5617,3.5221,3.473,3.4226,3.3733,3.3284,3.3069,3.2519,3.202,3.1823,3.1338,3.0781,3.0658,3.0468,2.988,2.7745,2.4894,2.0132,1.7473,1.4684,1.2983,1.3331,1.3397,1.3807,1.5085,1.6945,1.9264,2.0734,2.0295,2.0073,2.1818,2.3125,2.2871,2.2811,2.3467,2.4173,2.5544,2.6965,2.8295,2.9636,3.036,3.0845,3.1376,3.195,3.2519,3.3086,3.3524,3.3802,3.418,3.4661,3.5076,3.547,3.5659,3.5815,3.5244,3.4666,3.4054,3.343,3.2958,3.2599,3.2172,3.1582,3.0835,3.0079,2.9502,2.8835,2.8168,2.728,2.64,2.5755,2.5453,2.5522,2.5851,2.6409,2.6902,2.6857,2.6065,-1.0484,-1.1931,-1.1218,-1.1675,-1.2652,-1.0082,-0.8713,-0.7765,0.0,0.3524,0.4746,0.898,1.3013,1.5783,1.735,1.9907,2.2708,2.484,2.5946,2.6669,2.7306,2.8529,2.9737,3.0802,3.1861,3.319,3.4055,3.4335,3.4398,3.466,3.5028,3.5534,3.5593,3.569,3.5908,3.5976,3.5996,3.5975,3.5884,3.5627,3.5156,3.4693,3.4225,3.3685,3.3237,3.2763,3.2335,3.1913,3.1528,3.1123,3.0781,3.051,2.8356,2.6992,2.3906,2.0807,1.7901,1.5463,1.3519,1.3404,1.415,1.4086,1.3879,1.5679,1.7932,1.8929,1.8088,2.0917,2.2969,2.3509,2.339,2.3258,2.3623,2.446,2.564,2.6755,2.7817,2.9323,3.0666,3.1123,3.1623,3.2196,3.2651,3.316,3.3616,3.3962,3.4429,3.4918,3.5249,3.5635,3.5604,3.5685,3.5049,3.4323,3.3649,3.3029,3.237,3.1917,3.1411,3.0439,2.941,2.873,2.81,2.7595,2.7128,2.6236,2.5425,2.4921,2.4694,2.5063,2.5342,2.5508,2.5728,2.5851,2.5384,-0.8481,-0.9991,-0.9777,-1.0002,-1.0077,-0.842,-0.7435,-0.6496,0.0153,0.3293,0.4439,0.8726,1.3013,1.5973,1.7129,1.9565,2.2602,2.4797,2.5714,2.639,2.7086,2.8161,2.9315,3.0392,3.148,3.2505,3.3451,3.4264,3.4321,3.451,3.4718,3.5067,3.5234,3.5519,3.5798,3.5879,3.5996,3.6016,3.5973,3.5767,3.5329,3.5046,3.4649,3.3998,3.3431,3.3021,3.2512,3.1949,3.1528,3.1123,3.0716,2.892,2.5959,2.5676,2.2457,1.8189,1.729,1.5099,1.3633,1.2924,1.3404,1.4411,1.4474,1.4812,1.5278,1.5208,1.7032,2.0963,2.3321,2.3522,2.3832,2.3747,2.3872,2.4813,2.5802,2.6667,2.7523,2.9214,3.0925,3.1452,3.1897,3.235,3.2795,3.3237,3.367,3.418,3.4722,3.5164,3.5325,3.5558,3.5182,3.5097,3.4693,3.4036,3.3357,3.2545,3.1847,3.107,3.0418,2.9331,2.8121,2.735,2.6791,2.6611,2.6122,2.5439,2.4892,2.4434,2.4363,2.4681,2.4724,2.4824,2.4654,2.4711,2.4297,-0.7057,-0.8415,-0.8628,-0.8694,-0.8472,-0.7194,-0.6036,-0.4232,0.0536,0.3526,0.514,0.9195,1.3064,1.6162,1.7245,1.9598,2.2712,2.4797,2.5563,2.6108,2.7004,2.7997,2.9035,3.0079,3.1173,3.2199,3.3479,3.4221,3.4288,3.4344,3.4536,3.4805,3.5051,3.535,3.5644,3.5859,3.6016,3.6016,3.6016,3.5823,3.5482,3.5277,3.4847,3.4207,3.3714,3.3278,3.2656,3.2074,3.1657,3.124,3.0821,3.0025,2.7311,2.5109,2.2211,1.8806,1.6474,1.4089,1.2889,1.2372,1.2645,1.4007,1.3999,1.3863,1.5919,1.6029,1.5608,1.9094,2.123,2.1749,2.3518,2.3936,2.4483,2.5287,2.6681,2.7904,2.9215,3.0769,3.1679,3.195,3.235,3.2709,3.3148,3.3514,3.4,3.4598,3.5118,3.5395,3.5539,3.5519,3.5093,3.4666,3.4342,3.3913,3.3309,3.2325,3.1244,3.041,2.9532,2.8545,2.7545,2.6304,2.5495,2.5646,2.5481,2.5005,2.4447,2.4054,2.4086,2.4394,2.4266,2.4092,2.3859,2.3551,2.3182,-0.6002,-0.6977,-0.7171,-0.7311,-0.7159,-0.6113,-0.4635,-0.2532,0.0919,0.3917,0.6242,0.9401,1.3222,1.5972,1.7456,2.0292,2.2795,2.4784,2.5508,2.6,2.7019,2.7765,2.8732,2.9854,3.117,3.2396,3.3588,3.4037,3.424,3.4274,3.4427,3.4679,3.4995,3.533,3.558,3.584,3.6016,3.6016,3.6015,3.6015,3.5796,3.5527,3.5005,3.4486,3.4003,3.3493,3.2875,3.2266,3.1804,3.1376,3.0851,2.9707,2.8123,2.5183,2.226,1.9269,1.6138,1.4033,1.2498,1.2305,1.3201,1.3879,1.3128,1.3961,1.6129,1.6627,1.6202,1.7494,1.9659,2.1602,2.3433,2.4465,2.5107,2.6026,2.757,2.9162,3.069,3.1987,3.2213,3.2401,3.2791,3.3141,3.3515,3.3887,3.4372,3.4995,3.5344,3.5597,3.5717,3.5517,3.524,3.4737,3.4293,3.3802,3.3021,3.1964,3.067,2.9821,2.8963,2.7984,2.6923,2.5783,2.5048,2.5048,2.4892,2.4505,2.4157,2.376,2.391,2.393,2.3433,2.3015,2.2882,2.2579,2.2212,-0.524,-0.4683,-0.4053,-0.3738,-0.3659,-0.3977,-0.2876,-0.0541,0.1614,0.3917,0.6547,0.9085,1.2514,1.6609,1.7168,1.9609,2.3122,2.4894,2.5453,2.5837,2.6967,2.753,2.834,2.9727,3.1567,3.2768,3.3616,3.3928,3.4191,3.4221,3.4293,3.4427,3.4902,3.5195,3.535,3.5644,3.5976,3.5996,3.6016,3.6016,3.6016,3.5701,3.5258,3.477,3.4315,3.3672,3.2967,3.2127,3.1841,3.1452,3.0874,2.9453,2.7612,2.5452,2.2485,1.9582,1.6476,1.4463,1.3266,1.3524,1.4511,1.3324,1.331,1.5027,1.655,1.7179,1.7604,1.9145,2.1205,2.3204,2.4771,2.5148,2.5737,2.7081,2.8534,3.0222,3.1812,3.2315,3.2586,3.2854,3.3194,3.3611,3.4039,3.4414,3.4802,3.5292,3.5541,3.5745,3.5644,3.5485,3.5299,3.4649,3.4074,3.2983,3.1932,3.1168,3.0093,2.9236,2.8275,2.7253,2.6187,2.5189,2.4664,2.4721,2.4434,2.4054,2.376,2.3509,2.3005,2.2847,2.2298,2.1928,2.1854,2.1791,2.1491]}]]